GFSMW_850_thetae_000.txt.gz
Theta_e
319 319 318 318 320 322 323 325 326 327 328 329 329 328 325 324 323 321 320 321 321 322 323 324 325 327 328 329 328 327 325 325 324 323 322 322 321 321 320 319 319 316 316
319 319 319 318 318 318 319 322 323 325 326 327 327 328 328 326 326 324 323 323 324 324 326 326 326 327 328 329 329 329 327 326 325 324 324 323 322 322 321 320 319 317 318
320 320 319 317 317 318 318 318 320 322 325 327 327 327 328 330 330 329 331 331 331 330 330 330 330 330 329 329 329 330 329 327 326 326 325 324 322 321 320 319 318 318 320
319 319 319 318 317 317 318 318 318 319 323 325 327 328 329 329 329 330 330 330 330 328 328 329 329 330 330 330 330 330 330 329 328 326 325 324 323 322 322 321 321 319 319
319 319 319 319 318 317 317 317 318 318 319 322 323 325 327 328 328 329 330 330 329 329 329 328 329 329 329 330 331 331 332 330 329 327 326 325 325 325 323 322 322 321 321
319 318 318 319 319 319 319 318 318 317 317 317 319 320 321 323 324 324 327 327 327 328 329 329 329 329 329 330 331 331 332 331 330 328 327 326 326 325 324 323 322 322 322
319 318 318 318 319 319 318 318 318 317 317 317 317 316 317 320 323 325 327 328 328 329 329 330 330 330 330 329 330 331 331 331 331 330 328 326 326 325 324 323 323 322 322
318 318 318 318 318 318 318 317 317 317 316 316 317 316 316 315 315 315 316 319 323 325 327 328 330 331 331 331 330 330 331 331 332 331 330 329 327 326 326 324 322 321 321
318 317 318 317 318 317 317 317 316 316 316 316 315 315 315 315 315 315 315 315 314 314 314 319 323 325 327 328 330 330 330 330 330 330 329 329 329 328 327 325 324 323 322
318 317 317 317 317 317 316 316 316 316 316 315 314 315 315 315 315 315 315 315 314 314 314 314 314 314 316 319 322 325 327 328 328 329 329 328 328 328 328 326 324 323 323
317 317 317 317 316 316 316 316 315 315 314 314 314 313 314 315 315 315 315 315 314 314 314 314 314 314 313 313 313 315 319 323 325 326 327 327 327 327 326 326 324 323 322
317 317 317 316 316 316 316 315 314 314 313 312 311 311 311 312 312 311 310 308 307 307 307 307 309 311 312 314 314 314 314 315 316 319 323 323 324 325 326 326 326 325 323
317 317 316 315 314 314 314 315 314 311 311 310 312 312 312 312 311 310 308 307 307 306 306 305 305 306 309 312 312 314 315 316 316 318 318 318 320 323 324 324 325 325 323
316 315 314 313 313 312 312 313 312 311 312 312 310 308 308 308 307 306 306 305 305 305 305 305 304 305 306 309 312 315 315 315 315 315 315 315 315 317 321 324 325 324 323
315 313 312 312 311 312 312 312 311 311 310 308 308 307 308 307 306 305 304 304 304 304 304 304 304 306 307 308 311 311 311 313 313 313 313 314 314 314 315 320 323 323 324
313 311 310 310 311 312 312 309 309 309 308 306 305 305 305 304 303 302 302 302 303 303 302 303 305 305 306 307 305 309 311 311 311 312 312 313 313 313 313 316 317 321 321
311 309 310 310 310 308 307 307 308 307 304 303 302 302 301 299 298 299 299 300 300 300 301 302 304 304 303 304 307 309 309 309 308 308 309 310 313 314 314 314 314 317 319
310 309 308 306 305 305 306 305 304 301 299 298 298 298 297 297 297 297 297 297 297 298 298 299 301 302 303 305 305 305 304 303 303 305 307 309 310 312 314 314 314 316 317
308 306 306 304 304 301 301 299 298 296 295 294 294 292 292 292 292 293 293 293 294 296 295 296 297 300 301 302 300 299 297 296 298 304 305 306 306 308 309 311 313 312 316
306 305 304 302 300 299 297 295 293 291 291 290 289 289 289 289 289 290 290 291 292 292 294 294 295 297 299 297 296 293 296 296 296 294 295 300 304 307 307 307 310 311 312
305 304 302 298 297 294 292 290 289 288 288 288 288 288 288 288 288 288 289 290 289 291 291 293 294 295 295 294 293 292 292 297 295 292 293 296 301 304 307 307 309 311 312
303 302 298 295 292 290 289 288 288 288 287 287 287 287 287 287 287 287 288 288 288 289 291 292 292 292 293 290 290 290 292 294 290 290 292 297 301 304 305 307 309 311 312
302 299 295 291 289 288 288 288 287 287 286 286 286 286 286 286 287 287 286 287 288 288 289 290 290 289 288 288 289 291 292 292 290 290 292 297 300 304 305 307 308 310 310
298 294 290 289 289 288 287 286 286 286 286 286 286 286 286 286 286 286 286 286 287 288 288 288 288 289 289 289 290 292 293 291 289 290 293 299 300 301 301 302 304 307 308
292 289 288 288 287 286 286 286 286 286 286 286 286 286 285 286 286 285 285 286 287 287 287 288 288 289 289 290 291 292 291 291 290 293 295 297 298 298 300 300 301 302 303
288 288 287 287 286 286 286 286 286 286 285 285 285 285 285 285 285 285 285 285 286 286 287 287 288 288 289 288 290 289 290 289 292 293 295 294 295 296 297 297 298 299 298

GFSMW_850_thetae_003.txt.gz
Theta_e
319 319 318 318 318 319 322 324 327 330 330 329 329 328 327 326 326 325 324 325 327 328 328 328 327 326 327 327 327 327 328 327 325 324 324 323 323 323 322 321 320 320 319
319 318 318 318 318 319 319 319 321 324 327 331 330 329 328 328 329 329 329 330 330 330 330 330 329 329 329 329 329 328 328 328 327 325 324 323 324 323 322 321 321 320 320
320 320 318 318 318 318 318 320 319 320 323 326 329 330 330 330 328 327 328 329 330 331 331 331 331 331 331 331 330 330 329 329 329 328 325 325 324 322 320 320 320 319 319
319 319 319 319 318 317 317 318 318 319 321 324 326 328 329 329 329 329 329 329 330 331 331 330 330 330 330 331 331 331 330 329 328 327 327 327 326 324 323 321 322 321 321
319 319 319 318 318 318 318 318 318 318 318 319 321 323 324 325 325 326 327 327 328 328 328 328 329 330 330 330 330 330 328 329 330 329 327 327 327 327 324 323 322 322 321
318 318 318 318 318 318 317 317 317 317 317 317 317 316 316 317 317 318 321 324 326 327 328 329 329 330 330 330 330 330 330 329 329 330 329 327 327 328 326 324 323 323 321
318 317 317 318 318 317 317 317 316 316 315 316 316 315 315 315 315 315 315 314 314 314 316 322 326 326 326 327 329 329 329 329 329 329 330 329 328 328 328 326 325 324 323
318 317 317 317 317 317 316 316 316 316 315 315 315 315 315 315 315 316 316 316 315 315 314 313 313 314 317 319 322 324 326 327 328 328 327 327 328 329 327 326 326 324 323
318 317 317 317 317 316 316 315 315 315 315 314 314 314 314 313 314 315 315 316 315 314 313 312 312 312 312 312 312 314 317 320 322 324 325 326 326 326 327 328 327 326 324
318 317 317 316 316 316 316 315 314 314 314 312 311 311 311 311 312 313 313 312 310 308 307 307 306 306 306 309 310 312 312 313 313 315 317 319 320 322 324 325 325 326 326
318 317 317 316 316 316 315 315 314 314 310 308 308 310 310 311 311 311 311 310 308 307 306 305 305 305 304 304 306 309 311 312 313 314 315 316 316 318 320 320 322 325 325
317 317 316 316 315 315 315 314 314 312 307 308 310 310 310 309 309 309 308 307 306 306 305 304 305 305 305 305 305 307 308 314 314 315 316 317 317 317 317 318 319 322 323
317 316 315 313 312 312 312 312 311 308 307 309 310 310 309 309 308 308 307 306 304 304 303 304 305 304 304 306 306 306 310 311 310 310 312 313 314 314 314 315 315 315 316
317 314 312 311 311 311 311 311 308 305 308 309 308 309 309 307 306 305 304 302 301 301 301 302 302 303 305 304 306 308 307 306 309 310 310 310 311 312 312 314 315 316 316
313 311 311 310 310 310 310 307 305 306 307 307 307 306 305 303 301 300 298 298 298 298 299 299 300 301 301 305 303 303 305 307 308 308 307 306 306 308 309 311 314 316 316
311 310 309 309 309 308 305 305 305 305 305 304 302 300 299 297 295 293 292 293 294 295 295 298 299 300 301 301 301 304 304 305 304 303 298 299 303 306 309 310 312 314 315
309 309 308 307 305 305 305 304 304 302 300 298 297 295 292 290 290 289 289 289 290 290 292 295 295 297 296 298 301 302 301 301 298 297 296 298 302 299 303 306 308 309 311
309 308 305 306 305 305 304 302 301 298 295 292 290 289 289 289 288 288 288 288 288 289 291 291 292 294 292 297 300 298 298 295 293 292 293 292 292 295 298 303 305 306 307
308 307 307 306 305 303 302 300 297 292 290 289 289 288 287 287 287 287 287 287 288 288 288 289 290 291 293 296 296 297 295 291 291 295 297 292 291 292 295 300 302 303 304
308 306 306 307 306 303 298 294 290 289 288 288 287 287 287 287 287 287 287 287 287 287 287 288 288 290 293 293 293 293 289 292 292 296 294 292 290 291 296 299 300 301 303
307 307 307 306 301 296 291 289 288 288 287 287 287 287 287 287 287 287 287 286 286 287 287 287 289 290 290 289 287 287 291 291 294 295 294 292 290 291 298 299 301 302 302
307 306 304 299 293 289 288 288 287 286 286 286 287 287 287 286 286 286 286 286 286 286 286 287 288 288 288 287 288 290 291 291 293 294 293 291 290 293 297 298 300 300 301
305 304 299 293 289 288 288 287 287 286 286 286 286 286 286 286 286 285 285 285 285 286 286 287 287 288 288 287 288 290 290 292 292 291 291 291 293 295 296 295 296 297 299
303 298 294 288 288 288 287 287 286 286 286 286 286 286 285 285 285 285 285 285 285 286 286 287 288 288 288 288 289 290 290 290 290 290 290 293 294 294 295 293 294 295 296
299 294 288 288 288 287 287 287 286 286 286 285 285 285 285 285 285 285 285 285 285 286 287 287 287 288 288 289 289 289 289 290 290 290 291 291 291 291 293 291 293 294 294
291 288 288 288 287 287 286 286 286 285 285 285 285 285 284 284 284 284 284 285 285 285 286 286 287 288 288 288 288 288 288 289 288 289 289 289 289 289 291 292 291 293 293

GFSMW_850_thetae_006.txt.gz
Theta_e
318 317 317 318 318 318 319 321 323 326 329 329 329 329 328 328 327 327 327 328 330 331 331 331 331 331 331 330 330 329 328 328 327 326 326 326 326 326 326 325 324 324 323
318 317 317 318 318 319 319 319 319 321 322 326 329 329 328 328 328 329 330 331 330 330 331 331 331 331 331 330 330 330 330 330 329 328 325 324 325 325 326 326 322 319 320
319 318 317 317 317 317 317 318 319 319 320 323 326 328 329 329 329 331 331 330 330 330 330 331 331 331 330 330 330 330 330 329 328 327 326 325 325 325 326 326 324 324 323
319 318 318 318 317 317 317 317 317 319 320 322 323 325 328 328 327 326 325 326 326 326 327 327 327 328 328 329 330 330 330 330 328 328 327 327 326 325 325 325 326 325 325
318 318 318 317 317 317 317 317 317 317 317 317 317 318 318 317 317 317 318 321 323 325 325 325 326 328 328 327 328 329 330 330 329 329 329 329 328 327 325 325 325 325 325
318 318 318 317 317 317 316 316 315 315 315 315 315 315 315 315 315 315 315 315 315 314 314 314 317 318 319 320 322 324 325 326 328 328 329 329 328 327 327 326 325 325 325
317 317 317 317 317 316 316 315 315 315 315 314 314 314 314 314 315 315 315 315 315 315 314 314 313 313 313 313 313 314 316 319 321 323 325 327 328 328 327 327 327 327 327
317 317 317 317 317 316 316 315 315 315 314 313 313 312 312 312 313 314 315 314 313 312 310 309 308 307 307 307 308 311 312 312 313 314 314 315 317 321 323 325 327 326 326
318 317 317 316 316 316 315 315 315 314 314 311 308 308 309 309 310 310 311 311 310 309 308 307 306 306 305 305 304 304 305 307 309 311 312 313 314 315 315 316 319 321 323
317 317 316 316 316 315 315 314 314 314 312 307 307 308 309 309 309 309 308 308 308 307 307 306 305 304 304 304 304 304 304 305 305 309 313 314 315 316 317 317 318 319 321
317 317 316 316 315 315 314 314 314 313 310 306 307 308 308 309 309 308 308 308 307 306 305 303 302 302 303 303 303 305 305 306 308 311 309 309 310 312 313 314 314 314 316
317 316 316 315 315 315 314 313 312 310 306 306 307 307 306 306 307 307 306 305 303 302 300 300 300 300 300 301 303 303 305 306 305 305 306 309 310 310 310 310 311 312 313
316 316 315 314 313 312 312 311 310 307 306 306 306 306 306 305 304 303 301 299 297 296 295 296 296 297 298 299 300 304 305 301 303 305 308 307 306 306 305 305 308 309 310
316 315 313 312 312 311 311 309 306 306 306 306 305 304 303 300 298 296 293 292 292 291 291 291 291 293 296 296 298 298 299 301 303 303 303 302 300 298 298 304 305 307 310
314 313 312 311 311 310 308 305 306 306 305 303 301 299 297 294 292 291 291 291 290 290 290 290 290 290 292 291 294 294 296 298 301 299 297 297 296 295 301 296 296 300 305
312 311 311 310 309 307 306 307 306 305 302 299 296 293 291 291 291 290 290 290 289 289 289 289 289 289 289 291 291 292 296 299 297 296 295 294 293 294 293 291 293 295 302
311 311 310 308 306 307 307 306 304 301 297 293 290 290 290 290 289 289 289 289 288 288 288 288 288 288 288 289 291 294 295 293 292 292 292 291 292 298 294 291 292 293 297
310 309 308 306 306 306 305 303 299 295 291 290 290 290 289 289 288 288 288 288 288 287 287 287 287 287 287 289 292 293 291 290 288 289 289 289 296 295 293 291 292 293 295
309 307 306 306 306 304 304 300 294 291 290 290 289 289 288 288 288 288 287 287 287 286 286 286 286 287 288 290 289 289 287 287 288 289 290 293 294 294 294 293 293 294 297
307 307 306 306 305 303 300 294 290 289 289 289 288 288 287 287 287 287 286 286 286 286 286 286 286 286 288 287 288 289 289 290 290 291 291 292 293 293 292 292 293 296 297
308 307 306 306 305 302 295 290 289 288 288 287 287 287 287 286 286 286 286 285 285 285 285 285 286 286 287 287 288 289 289 290 291 290 290 290 290 291 291 293 295 295 294
306 306 305 305 303 295 290 288 288 287 287 287 287 287 286 286 285 285 285 285 285 285 285 285 286 286 287 287 288 289 290 290 289 290 289 289 289 290 292 293 293 293 292
305 304 304 302 296 289 288 287 287 287 287 287 286 286 286 285 285 284 284 284 284 284 284 285 286 286 286 286 287 288 289 288 288 288 289 288 289 291 290 290 291 291 292
302 301 300 294 288 288 287 287 287 286 286 286 286 285 285 285 284 284 284 284 284 284 285 286 286 286 286 287 287 288 287 287 287 288 287 287 288 287 288 288 289 290 290
300 298 292 288 288 287 287 287 286 286 286 285 285 285 284 284 284 284 283 284 284 284 285 285 285 285 286 286 287 287 287 287 286 286 286 285 285 285 286 288 288 288 289
295 292 288 288 287 287 287 286 286 285 285 285 285 284 284 284 283 283 283 283 284 284 285 285 285 285 285 286 286 286 286 286 285 284 284 284 284 285 285 286 287 287 288

GFSMW_850_thetae_009.txt.gz
Theta_e
317 317 318 318 318 318 318 319 320 321 322 325 328 328 328 328 328 328 328 329 329 331 332 332 332 331 331 331 331 331 331 330 330 329 327 327 326 326 326 326 326 326 326
317 317 318 317 317 318 318 319 319 319 320 322 326 327 328 328 328 329 330 331 331 332 332 331 330 330 330 330 330 329 330 330 330 328 326 324 325 325 325 325 325 326 326
317 317 317 317 317 317 317 317 318 319 320 322 325 327 328 329 330 329 327 327 326 326 326 326 326 327 327 327 328 328 329 328 328 329 328 326 326 326 325 325 325 326 325
318 317 317 317 317 317 316 316 317 317 317 317 319 320 321 321 319 318 318 319 321 322 321 321 321 322 323 324 325 325 326 327 328 328 328 328 328 326 327 326 326 326 326
318 317 317 317 317 316 316 315 315 315 315 315 315 315 315 315 315 315 315 315 315 314 314 314 313 313 313 314 315 316 318 322 326 326 327 327 327 326 326 324 324 324 326
317 317 317 317 316 316 315 315 315 315 315 314 314 314 314 314 314 313 313 313 313 313 312 312 311 310 309 308 308 309 311 312 313 314 316 317 318 321 323 325 325 325 325
317 317 317 317 316 316 315 315 315 315 314 313 312 312 311 311 310 310 310 309 309 309 309 309 309 308 307 306 306 305 305 305 305 307 309 311 312 313 313 316 318 320 319
317 317 317 316 316 316 315 315 315 314 314 311 308 308 308 308 309 309 308 308 308 308 308 307 307 306 305 305 304 304 304 304 304 304 305 306 311 312 313 315 317 318 318
317 316 316 316 316 315 315 315 315 314 313 310 307 307 308 308 308 308 308 308 307 307 307 306 305 304 303 302 302 302 302 303 304 305 306 309 310 309 309 310 312 315 317
317 317 316 316 315 315 315 314 314 314 312 308 306 307 307 307 307 307 307 306 306 304 303 301 300 299 298 298 299 299 300 301 304 306 305 304 305 306 308 309 309 310 311
317 316 316 316 315 315 314 314 314 312 310 306 306 307 307 306 306 305 304 302 300 298 295 294 293 293 293 293 295 297 298 304 304 301 301 303 306 307 306 305 305 305 304
317 316 316 315 315 314 314 313 311 310 307 306 306 306 306 305 303 301 298 295 293 292 292 292 292 291 291 291 292 292 296 298 295 296 300 302 302 298 297 297 299 298 302
316 316 315 315 315 314 312 311 310 307 306 307 307 306 304 301 298 294 293 292 292 292 292 291 291 290 290 290 290 290 292 292 292 295 300 300 296 294 293 293 301 301 293
316 316 314 314 313 312 311 309 306 306 307 307 306 302 298 294 292 291 291 291 291 291 291 291 290 290 290 290 289 289 289 291 293 296 298 295 294 293 291 296 301 298 292
315 314 313 312 312 310 308 306 307 306 306 305 300 296 292 291 291 291 291 291 290 290 290 290 290 290 289 289 288 288 290 294 294 293 292 290 290 291 291 297 297 296 294
314 312 312 311 310 307 306 306 306 305 303 299 294 291 290 290 290 290 290 290 290 289 289 289 288 288 288 288 288 289 292 292 290 290 290 289 289 289 291 293 293 294 295
314 312 311 309 306 306 306 306 305 304 298 292 290 290 289 290 289 289 289 289 288 288 288 287 287 287 287 287 287 289 290 289 288 288 288 288 289 290 292 292 293 294 293
313 311 309 306 305 306 306 305 303 298 292 290 289 289 289 289 288 288 288 288 287 287 287 286 286 286 286 286 287 288 288 288 288 288 289 290 290 290 291 292 292 292 291
311 310 307 306 306 307 305 303 299 291 289 289 289 289 288 288 288 288 287 287 286 286 286 285 285 285 285 285 286 288 288 288 288 289 290 290 290 290 290 290 290 290 290
309 307 307 306 306 304 302 296 293 290 289 289 288 288 287 287 287 286 286 286 285 285 285 285 285 285 285 285 287 288 288 288 289 289 289 288 289 289 290 290 290 292 293
308 308 306 305 302 301 298 293 292 289 288 288 288 287 287 286 286 286 285 285 285 284 284 284 284 285 285 285 286 287 288 288 289 288 287 287 288 289 288 290 289 290 291
306 304 304 303 302 299 296 293 289 288 287 287 287 287 286 286 285 285 285 284 284 284 284 284 284 285 285 285 285 287 287 288 287 287 287 287 287 287 287 287 287 288 289
305 304 303 301 298 295 292 289 288 287 287 287 287 286 286 285 285 285 284 284 283 283 283 284 284 285 284 284 285 286 287 286 286 286 286 286 285 286 285 285 286 287 287
304 303 301 300 295 290 288 287 286 286 286 286 286 285 285 285 285 284 283 283 283 283 284 284 284 284 284 284 284 286 286 286 285 287 285 284 283 284 283 283 284 285 286
302 300 297 292 288 288 287 286 286 286 286 286 286 285 285 284 284 283 283 282 282 283 284 284 284 284 284 284 286 286 285 285 287 285 283 282 283 282 282 282 283 284 284
299 295 290 288 288 287 287 286 286 285 285 285 285 284 284 283 283 283 282 282 282 283 284 284 284 284 284 284 285 285 285 285 285 283 282 281 282 281 281 282 282 283 284

GFSMW_850_thetae_012.txt.gz
Theta_e
317 318 318 318 318 318 318 318 318 319 319 321 324 326 327 328 328 329 329 329 330 330 331 331 331 330 329 329 328 328 328 328 328 328 327 326 326 326 325 325 325 324 325
317 317 317 317 317 317 317 317 318 318 319 321 324 326 327 328 328 329 328 328 327 326 326 325 325 325 325 325 326 326 326 327 327 326 325 325 326 325 326 326 326 325 325
316 316 316 316 317 317 317 316 316 316 316 317 320 324 327 326 324 320 319 318 319 320 320 319 319 318 317 317 318 317 317 320 323 326 324 325 325 325 324 325 324 325 325
316 316 316 316 316 316 315 315 315 315 315 315 315 315 316 315 315 315 315 315 314 314 314 314 313 312 311 310 309 309 309 310 312 316 320 322 322 323 323 323 324 324 323
317 317 316 316 315 315 315 315 315 315 314 314 314 314 314 314 314 313 313 311 310 310 310 309 309 309 308 308 307 306 306 305 304 305 307 309 311 313 317 318 318 317 318
317 316 316 316 315 315 315 315 315 314 314 313 312 311 310 310 309 309 308 308 308 308 308 307 307 307 306 306 305 305 305 304 304 304 304 305 307 309 310 314 315 315 315
317 316 316 316 315 315 315 315 315 314 313 311 309 308 308 308 308 308 308 308 308 308 308 307 306 305 304 303 302 301 301 301 302 302 303 304 306 308 308 307 309 312 313
316 316 316 316 315 315 315 315 315 314 313 312 309 307 307 307 307 307 307 307 306 306 305 304 302 300 299 297 296 296 296 297 298 300 303 305 305 304 303 305 308 310 310
316 316 316 316 315 315 315 315 314 314 313 311 307 307 307 307 307 307 307 306 304 302 299 296 294 294 293 293 293 292 292 293 296 301 303 300 299 301 304 308 307 305 306
316 316 316 315 315 315 314 314 314 313 311 308 307 307 307 308 308 307 304 301 298 295 293 293 293 293 292 292 292 292 291 291 294 294 293 293 296 301 303 299 297 295 300
316 316 316 315 315 314 314 313 313 311 308 306 307 308 308 307 303 300 297 294 293 292 292 292 292 292 292 292 291 291 290 289 290 290 291 294 299 301 298 295 295 293 296
316 316 315 315 314 314 313 312 310 308 306 307 307 307 305 303 299 295 293 292 292 292 292 292 292 292 291 291 290 290 289 289 289 290 292 295 295 294 294 294 293 292 300
316 315 314 314 314 313 312 310 309 306 307 307 307 306 302 297 294 292 292 292 291 291 291 291 291 291 290 290 290 289 288 288 289 292 292 292 291 291 290 290 290 294 297
315 315 314 313 313 311 311 309 306 306 307 307 305 300 296 293 291 291 291 291 291 290 291 291 290 290 290 289 289 288 288 288 290 290 290 289 288 288 289 290 291 295 295
314 314 313 313 312 310 308 306 306 307 307 304 298 295 292 291 290 290 290 290 290 290 290 290 290 289 288 288 287 287 287 288 288 288 287 287 287 288 290 291 291 292 293
314 313 313 312 311 309 306 306 307 305 304 301 297 293 291 290 289 290 290 290 290 289 289 289 288 288 287 287 286 287 288 288 288 287 287 287 288 289 290 290 291 291 291
315 313 312 311 309 306 306 306 305 303 301 300 296 291 289 289 289 289 289 289 289 289 288 288 287 287 286 285 285 287 288 287 287 287 287 288 289 289 288 289 289 290 290
314 311 310 309 306 305 306 305 302 301 299 295 293 289 289 289 289 288 288 289 288 287 287 286 286 285 285 285 285 287 287 287 287 287 287 288 288 287 288 289 289 289 288
312 310 309 306 305 306 304 302 301 296 294 292 289 289 288 288 288 288 288 287 286 286 285 285 284 284 284 284 285 287 286 286 287 287 287 288 287 287 289 288 288 287 288
309 309 307 305 305 304 303 301 297 295 290 289 288 288 287 287 288 287 287 286 285 285 285 284 284 284 284 284 285 286 286 286 286 287 287 286 287 287 288 287 287 287 286
308 306 305 304 304 303 302 300 292 289 289 288 288 288 287 287 287 286 285 285 284 284 284 284 284 283 284 284 285 286 286 286 287 286 286 285 286 287 285 286 286 285 286
306 305 304 304 303 301 297 290 288 288 288 288 287 287 287 287 286 285 285 284 284 284 283 283 283 283 284 284 284 285 286 286 286 285 285 286 286 285 284 284 284 285 285
305 304 303 302 300 296 293 288 288 287 287 288 287 287 286 286 285 285 284 284 284 283 282 283 283 284 284 283 283 284 285 285 285 285 286 285 284 282 282 283 283 283 282
304 302 301 299 296 292 288 287 287 287 287 287 286 286 286 286 285 285 284 283 282 282 283 283 284 283 283 283 283 285 284 285 284 285 285 283 282 281 281 281 281 281 282
302 301 300 296 293 289 288 287 287 287 286 286 286 286 286 285 285 284 283 282 282 282 283 283 283 283 283 283 284 284 284 284 285 284 283 281 281 280 280 281 281 281 282
300 299 296 294 289 288 287 287 286 286 285 285 286 285 285 284 283 283 282 282 282 282 283 283 283 283 283 283 284 284 284 284 283 281 281 282 280 280 280 280 280 281 281

GFSMW_850_thetae_015.txt.gz
Theta_e
317 317 318 318 318 318 318 318 318 319 321 321 324 325 326 327 328 328 329 328 328 327 326 324 323 323 322 322 321 321 321 322 321 321 322 322 322 323 324 323 324 323 324
316 316 316 316 317 316 316 316 316 316 317 318 322 325 327 327 325 323 322 320 319 318 317 316 315 314 313 313 312 310 310 310 310 316 318 321 320 321 323 321 321 324 321
316 315 316 316 316 315 315 315 315 315 315 315 317 320 320 318 315 314 314 314 314 314 314 313 312 310 309 308 308 307 306 305 306 306 311 316 317 315 314 316 317 319 321
316 316 316 315 315 315 315 315 315 315 314 314 314 314 314 314 314 314 313 311 309 308 308 308 308 307 307 307 307 306 306 305 304 304 305 304 305 310 310 310 311 312 315
316 316 315 315 315 315 315 315 315 314 313 313 312 312 311 310 309 308 308 308 308 308 308 308 307 306 305 304 302 302 301 300 300 300 302 302 303 306 309 310 309 310 310
316 316 315 315 315 315 315 314 314 313 312 311 310 309 308 308 308 308 309 309 309 310 309 308 306 303 301 298 296 295 294 294 294 296 298 303 305 307 306 305 306 306 307
316 315 315 315 315 315 314 314 314 313 312 312 310 308 308 308 308 308 309 309 310 309 307 303 300 297 295 294 294 294 293 293 293 293 295 300 302 301 300 302 303 305 306
316 315 315 315 315 314 314 314 314 313 313 311 309 307 307 308 308 309 309 307 305 302 298 296 294 294 294 294 293 293 293 292 291 291 292 292 291 292 295 300 302 304 304
316 315 315 315 314 314 314 313 313 313 312 310 308 307 308 309 309 308 306 303 299 297 295 294 293 293 293 293 292 292 292 292 291 291 290 290 290 293 298 301 302 299 302
316 315 315 314 314 314 313 312 312 312 310 308 307 308 309 308 307 305 302 299 296 293 292 292 292 292 292 292 292 292 292 291 290 290 289 290 291 292 296 297 297 298 295
315 315 314 314 313 313 312 312 311 309 308 307 307 308 307 306 304 301 298 294 292 291 291 291 291 291 292 292 291 291 290 290 289 289 289 291 292 290 289 290 291 291 291
315 315 314 314 313 312 312 311 310 307 306 307 308 307 305 303 299 296 293 292 291 290 290 291 291 291 291 291 290 290 289 288 288 289 291 290 288 288 288 288 290 290 291
315 314 313 313 313 312 311 310 307 306 307 308 307 305 303 300 296 293 291 290 290 290 290 290 290 290 290 290 289 288 287 287 287 289 289 288 288 288 288 289 290 291 291
314 314 313 313 312 311 310 308 306 307 307 306 305 303 301 296 292 290 290 290 290 290 290 290 290 289 289 288 287 286 286 287 287 288 287 287 288 288 289 289 290 290 290
313 313 313 312 312 311 308 305 306 307 306 305 302 300 296 292 290 290 289 289 290 290 289 289 289 289 288 287 286 286 286 286 287 287 287 287 287 288 289 289 289 289 289
313 313 312 312 311 309 306 305 307 306 305 301 298 294 295 290 289 289 289 289 289 290 289 289 288 287 286 286 285 285 287 287 287 286 286 287 287 288 289 288 288 289 289
313 313 312 311 309 307 305 306 306 304 301 297 293 291 291 289 289 289 289 289 289 290 289 287 287 286 285 285 284 286 287 287 286 286 286 286 287 288 287 287 288 288 288
313 312 311 310 307 304 305 305 304 302 298 295 292 289 289 289 289 289 289 289 289 288 287 286 285 285 285 284 284 286 286 286 286 286 286 287 287 286 287 287 288 286 285
312 311 309 308 305 304 304 304 302 300 297 292 289 288 288 288 288 289 289 288 287 287 286 285 284 284 284 283 284 286 285 285 286 286 286 287 285 286 287 288 286 285 285
310 310 308 305 304 304 304 301 300 298 293 289 288 288 287 288 288 288 288 287 286 286 285 284 284 283 283 283 284 285 285 285 285 286 286 285 285 286 286 286 285 284 284
309 307 305 303 303 303 301 300 297 294 289 288 288 287 287 287 288 287 287 286 285 285 284 284 283 283 283 283 284 285 285 285 285 286 285 284 285 287 286 284 283 283 284
307 305 303 303 303 301 300 297 293 290 288 287 287 287 287 287 287 287 286 285 284 284 283 282 283 283 283 283 283 284 285 285 285 285 284 284 286 285 284 282 283 283 283
304 303 302 302 302 300 295 293 289 288 287 287 287 287 287 288 287 286 285 284 283 282 282 282 283 283 283 283 283 283 284 285 284 284 285 284 283 283 282 281 282 282 281
303 302 301 301 298 297 293 288 287 287 287 287 287 287 288 287 286 285 284 283 282 282 282 283 283 283 282 283 282 284 284 284 284 284 283 282 281 282 281 280 280 280 280
302 302 301 298 295 291 287 287 287 287 287 287 288 288 287 286 284 283 282 281 282 282 283 283 283 283 283 283 284 284 284 284 284 282 281 280 281 280 280 280 280 280 280
302 299 298 295 291 288 287 287 287 287 287 288 288 286 285 284 283 282 282 282 282 282 282 282 282 282 283 283 283 283 283 283 282 281 280 279 280 279 279 279 279 280 280

GFSMW_850_thetae_018.txt.gz
Theta_e
317 318 318 319 319 318 318 319 320 322 323 326 327 327 327 327 327 326 325 323 321 319 317 315 314 313 313 312 311 311 310 312 313 312 313 314 317 320 318 323 324 320 321
317 317 317 317 316 316 315 316 316 316 319 322 325 326 325 324 321 318 315 314 314 313 312 310 309 308 308 308 308 307 307 309 309 310 310 311 312 313 315 312 311 314 314
317 316 316 315 315 315 315 315 315 315 315 317 318 318 317 315 314 314 313 311 309 308 308 309 309 309 308 306 305 304 304 306 306 307 307 309 311 308 308 309 309 311 313
317 316 316 315 315 315 315 315 315 314 314 314 314 314 314 312 310 309 308 308 309 310 310 309 308 306 303 301 299 298 297 301 303 303 303 305 305 306 307 306 307 308 309
317 316 316 315 315 315 315 314 314 314 313 312 311 310 309 308 308 308 309 309 310 310 309 306 304 301 298 296 295 294 294 298 299 300 301 303 303 304 304 305 303 302 303
316 316 315 315 315 314 314 314 314 313 311 311 310 309 308 308 308 309 310 310 308 306 305 303 300 297 295 294 294 294 294 294 293 295 299 301 301 301 300 298 298 299 300
316 315 315 315 314 314 314 314 313 313 312 312 310 309 309 309 310 310 309 308 307 305 303 300 296 294 294 294 293 293 293 293 293 293 298 298 295 296 295 296 298 299 300
317 316 315 315 314 314 314 313 313 313 311 311 310 309 309 310 309 309 308 306 304 301 298 295 293 293 293 293 293 293 292 293 293 293 294 295 294 295 296 297 298 299 300
317 316 315 314 314 314 313 313 313 312 310 309 308 308 309 309 309 307 305 303 301 296 294 293 292 292 292 292 292 292 292 292 292 292 293 293 293 294 295 295 296 297 296
316 315 314 314 313 313 313 312 311 310 308 307 308 308 309 308 306 304 302 299 295 293 292 292 292 292 292 292 291 291 291 290 291 291 291 292 293 293 293 291 291 292 292
316 315 313 313 313 313 312 311 310 308 307 307 308 308 307 305 303 301 298 294 293 291 291 291 291 291 291 291 290 290 289 290 290 290 291 291 292 291 290 290 290 290 291
316 314 313 313 313 312 311 310 308 307 306 308 307 306 305 303 301 297 295 292 291 290 290 290 290 291 290 290 289 288 289 289 290 290 290 290 290 289 289 289 290 290 291
315 313 313 312 311 311 310 309 307 306 307 307 306 303 302 300 298 294 291 290 290 290 290 290 290 290 290 289 288 287 288 289 289 289 289 289 289 289 289 289 289 290 290
314 313 312 311 309 310 309 308 306 306 307 305 303 301 299 297 294 290 290 289 289 290 290 290 290 289 289 288 287 287 288 288 289 289 289 288 288 288 288 288 289 290 289
314 313 312 310 309 309 308 306 305 306 305 303 300 298 297 295 291 289 289 289 290 290 290 289 289 288 287 286 286 286 287 288 288 288 288 288 288 288 288 289 289 289 288
313 313 312 310 307 307 307 305 305 305 304 301 299 297 295 292 289 289 289 289 290 289 289 288 287 287 286 286 285 285 287 287 288 287 287 287 287 287 288 288 288 288 289
313 312 311 309 308 308 306 305 305 304 302 300 298 295 292 289 288 288 289 289 289 289 288 287 286 286 285 285 284 286 286 287 287 287 287 287 287 287 287 287 287 288 288
313 312 311 310 309 307 305 305 304 303 301 299 296 292 289 288 288 288 289 289 289 288 286 286 285 285 284 284 285 285 286 286 286 286 286 286 287 287 287 286 287 288 287
312 311 311 310 308 305 304 303 303 300 299 298 292 289 288 288 288 289 289 289 288 286 286 285 284 284 284 284 284 285 286 286 286 286 286 286 286 286 286 287 287 286 285
311 310 309 308 305 303 303 303 300 298 298 293 289 288 288 288 288 288 288 287 286 285 284 284 284 283 284 284 285 285 285 285 285 286 286 286 286 286 287 287 285 285 284
309 309 307 305 303 303 302 300 298 298 294 290 288 288 288 287 287 287 287 286 285 284 284 284 284 284 284 284 285 285 285 285 285 285 285 285 285 286 285 284 284 284 284
307 306 304 303 302 302 301 298 296 294 290 288 288 288 287 288 287 286 286 285 284 284 283 283 284 284 284 284 284 285 285 285 285 285 284 285 285 284 283 283 283 283 283
306 305 303 303 302 301 297 294 294 290 288 288 288 287 288 288 286 285 284 284 283 283 283 284 284 284 284 284 284 284 284 285 285 284 284 285 283 282 282 283 282 282 281
305 304 303 302 301 298 294 293 291 288 288 288 287 288 288 286 285 284 284 283 283 283 283 284 284 284 284 284 284 283 284 284 283 284 284 282 282 281 282 281 281 281 281
304 303 301 300 297 293 292 290 288 288 287 287 288 287 286 285 284 284 283 282 282 282 283 283 283 283 283 283 283 284 284 283 284 284 282 281 281 280 280 280 280 280 281
302 301 299 296 295 292 289 288 287 287 287 288 287 286 285 284 284 283 283 283 283 283 282 282 282 283 283 283 283 283 283 283 283 281 281 280 280 280 280 280 280 280 280

GFSMW_850_thetae_021.txt.gz
Theta_e
320 320 320 321 321 324 327 329 330 331 331 332 332 328 324 322 324 324 321 317 314 313 311 309 309 309 310 310 309 309 309 309 309 309 309 309 311 313 312 315 319 320 315
320 319 319 319 319 319 320 323 327 330 331 327 325 322 320 319 317 315 314 312 309 309 309 310 310 310 310 308 307 305 305 305 305 306 305 308 307 309 309 306 306 307 309
320 319 319 319 319 317 316 316 316 317 318 319 318 317 316 315 313 311 309 309 309 310 311 310 308 306 305 303 301 300 299 300 300 303 303 304 305 304 304 304 305 307 307
319 319 319 319 318 316 315 315 315 315 316 317 317 317 314 311 309 309 309 310 311 310 308 307 306 304 302 299 297 296 296 298 300 299 300 300 301 303 304 303 302 302 302
319 319 319 318 317 315 315 314 314 313 313 312 311 311 310 309 309 309 310 309 308 308 308 305 303 301 298 296 295 294 294 295 298 296 297 299 300 301 300 300 299 298 297
319 319 318 317 316 314 314 313 313 312 312 311 311 310 309 309 310 310 309 308 307 307 306 303 300 297 295 294 294 294 294 294 294 294 295 297 300 299 297 296 297 297 298
319 318 317 317 316 315 313 312 312 312 312 311 311 310 310 310 310 310 310 309 307 306 305 302 298 295 294 293 293 293 293 293 293 293 295 294 295 296 295 295 296 297 298
318 317 317 317 317 315 313 312 312 312 311 310 310 309 310 310 310 310 309 307 306 303 301 298 295 293 293 293 292 292 292 293 293 293 293 293 294 293 294 295 295 296 295
318 318 318 317 316 314 313 312 313 312 311 310 309 309 309 309 309 308 307 305 302 300 297 294 293 292 292 292 292 292 292 291 291 291 292 292 292 293 292 294 293 293 293
319 318 317 317 315 313 312 312 311 311 310 308 308 308 309 308 307 305 303 301 298 296 293 292 291 291 292 292 292 291 291 290 290 291 291 291 291 291 292 292 291 291 291
319 317 317 316 313 311 311 311 311 310 308 307 308 308 307 306 304 302 300 297 293 291 291 291 291 292 292 292 290 290 289 289 290 290 290 291 290 291 290 290 290 290 290
318 317 316 315 312 311 309 308 308 307 306 307 307 307 305 304 301 299 296 292 291 291 291 291 292 292 291 290 289 289 289 288 289 289 290 290 290 290 290 289 289 289 289
318 317 316 314 311 310 307 306 306 305 306 307 306 304 303 300 299 297 293 291 290 290 291 291 291 291 290 288 288 288 288 288 288 289 289 289 289 289 289 289 289 288 289
318 316 315 313 311 309 306 304 303 305 306 306 304 303 301 299 297 294 291 290 290 290 291 291 290 289 288 288 287 287 287 287 288 288 288 289 288 288 288 288 288 289 289
317 316 316 314 311 308 305 302 302 305 305 304 303 302 300 297 293 290 290 290 290 290 290 290 289 288 287 287 287 286 287 287 287 287 288 288 288 288 288 288 288 288 288
317 316 315 314 311 307 304 301 303 305 304 304 302 300 297 294 290 289 289 290 290 290 289 289 288 287 287 287 287 287 286 286 286 287 287 287 287 287 287 288 288 288 288
317 316 315 314 310 306 303 300 302 304 304 302 300 297 294 291 289 289 289 289 289 289 288 288 287 287 286 286 286 286 286 286 287 287 287 287 287 287 286 287 287 287 287
316 315 314 312 307 304 301 299 303 303 302 300 297 294 292 289 289 289 289 289 288 288 287 287 286 286 285 285 285 286 286 286 286 286 286 286 286 286 287 287 287 286 286
314 313 311 308 304 303 302 303 303 302 299 297 294 292 289 289 289 288 289 289 288 287 287 286 285 285 285 285 285 286 286 285 285 286 286 286 286 286 287 287 286 285 284
311 310 308 306 304 300 302 303 302 299 297 295 294 290 289 288 288 289 289 288 287 286 286 285 285 285 285 285 286 286 286 285 285 285 285 285 286 286 286 286 285 284 283
309 309 307 303 300 302 302 302 300 297 295 295 292 289 288 288 289 289 288 287 286 285 285 285 284 285 285 285 286 286 286 285 285 285 285 285 285 286 285 284 284 283 285
308 306 303 301 302 302 302 300 296 295 296 293 289 288 288 289 289 288 287 286 285 285 284 284 284 285 285 285 285 285 285 285 285 285 284 284 285 284 284 283 283 283 283
306 303 302 302 302 302 301 296 296 296 293 289 288 288 289 289 288 287 286 285 284 284 284 284 284 284 284 284 284 284 284 285 284 284 284 285 283 283 282 282 282 282 281
304 302 300 301 302 301 299 297 297 293 288 288 288 289 289 288 287 286 285 284 284 284 284 284 284 284 283 283 283 283 284 284 283 284 284 282 282 282 281 281 281 281 281
303 302 300 300 299 300 297 296 291 288 288 288 289 289 288 286 285 285 284 284 284 284 284 283 283 283 283 283 284 284 283 283 283 284 282 281 280 280 280 280 280 280 280
303 302 300 299 299 297 294 290 288 288 288 288 288 287 286 285 285 284 284 284 284 284 284 283 283 283 283 283 283 283 283 283 283 282 281 280 280 280 280 280 280 280 280

GFSMW_850_thetae_024.txt.gz
Theta_e
321 320 321 323 327 329 329 327 327 328 330 331 331 331 330 327 325 323 319 315 312 310 309 311 311 311 309 307 307 305 304 304 302 300 301 301 305 304 305 310 306 304 303
320 320 321 321 324 329 330 331 332 332 332 331 329 325 323 321 317 314 312 309 310 310 311 311 309 308 307 307 305 301 300 298 298 300 299 301 301 306 299 300 298 304 306
320 320 319 319 320 323 324 329 330 329 329 326 323 320 316 314 312 309 309 310 311 311 310 309 309 308 306 304 300 298 296 296 296 296 298 300 301 298 300 298 300 303 298
320 319 319 319 318 318 318 318 318 318 318 317 316 315 314 310 309 309 310 311 311 310 310 309 307 305 303 301 298 296 295 295 294 295 295 294 295 299 300 300 297 296 295
319 319 319 319 318 317 316 316 316 317 318 318 315 311 310 309 310 310 310 309 309 310 309 307 305 303 301 298 296 295 294 294 293 293 294 293 294 294 297 297 296 295 294
319 319 319 318 317 316 315 314 313 313 312 312 311 310 310 310 310 309 309 308 308 308 307 306 304 301 298 296 294 294 293 293 293 293 293 293 294 293 294 296 295 294 294
319 319 318 318 316 314 313 312 311 311 311 311 310 310 310 310 310 310 310 309 308 307 306 304 300 297 295 294 293 293 293 293 293 292 292 292 292 292 293 293 293 293 293
319 318 318 317 316 314 312 312 312 311 311 311 310 310 310 310 310 310 309 308 307 305 303 300 296 294 293 293 293 293 293 292 292 291 291 291 291 291 292 292 293 292 293
319 318 317 317 316 314 312 312 311 311 310 310 310 310 310 310 310 309 308 306 304 301 298 295 293 293 292 292 292 292 292 291 290 290 290 290 290 290 291 291 291 292 292
318 318 317 317 315 313 313 311 311 311 310 309 309 309 309 309 308 307 306 303 300 296 294 293 292 292 292 292 292 292 291 290 289 289 288 289 290 290 290 290 290 290 290
318 318 317 316 314 313 312 311 311 310 309 308 308 308 308 307 306 305 303 301 297 293 292 292 291 292 292 292 292 291 290 289 288 288 287 288 289 289 290 289 289 289 289
318 318 317 316 314 312 310 310 309 308 308 308 308 308 307 305 304 303 301 297 294 292 291 291 292 292 292 292 290 289 288 287 288 287 286 287 288 288 288 289 288 288 288
318 317 317 315 313 311 309 308 307 307 307 307 307 307 305 304 302 300 297 294 292 291 291 291 292 292 291 290 289 287 287 287 287 286 286 286 287 288 288 288 288 288 288
318 317 316 315 312 310 308 306 305 305 306 306 306 305 304 303 301 298 294 291 290 291 291 291 291 291 289 288 287 287 287 287 287 286 285 286 287 288 287 288 288 288 288
318 317 316 314 311 309 307 305 304 304 305 305 305 304 303 301 298 294 291 290 290 290 291 291 290 289 288 287 287 287 287 287 286 285 286 287 287 287 287 288 288 288 287
318 316 316 314 311 309 306 304 303 304 304 304 304 303 301 298 295 291 290 290 290 291 291 290 288 287 287 286 287 287 287 286 286 285 286 286 286 286 287 287 287 287 288
317 316 316 314 311 308 306 303 303 303 303 303 302 301 299 296 291 290 290 290 291 290 289 288 287 286 286 286 287 287 286 286 286 286 285 285 285 285 285 286 287 287 286
317 316 316 314 311 308 305 302 301 302 303 302 300 299 296 292 290 290 290 290 290 289 288 287 286 285 285 285 286 286 286 286 286 285 285 285 285 285 286 286 287 286 285
316 315 315 313 309 306 304 302 301 302 302 300 298 295 292 290 289 290 290 290 289 288 287 286 285 285 285 285 286 286 286 286 286 286 285 285 285 285 286 286 286 285 284
314 314 313 311 307 304 303 302 302 301 300 298 296 293 289 289 289 290 290 289 288 287 286 285 284 284 284 284 286 286 286 286 285 285 285 284 285 285 286 286 285 284 283
312 311 309 306 305 303 301 302 301 300 297 296 293 290 289 289 290 290 289 288 287 286 285 285 284 284 284 285 285 285 285 285 285 285 284 284 284 285 285 285 283 283 284
307 306 306 303 302 301 301 301 299 297 297 294 290 289 289 290 290 288 288 287 286 285 284 284 284 284 283 284 284 285 285 285 285 284 283 283 285 284 284 283 282 283 283
305 304 304 303 301 301 301 300 298 296 295 289 289 289 290 290 289 288 287 286 285 284 284 284 284 284 283 283 283 284 284 284 284 283 283 284 283 282 281 281 281 281 280
304 303 302 302 302 301 300 298 296 294 289 289 289 289 290 289 289 288 286 285 284 284 284 284 284 284 283 283 283 284 284 283 283 283 284 282 281 280 280 280 280 280 280
302 301 301 301 301 300 298 296 294 290 289 289 289 289 290 289 288 287 285 284 284 284 284 284 284 284 284 284 284 284 284 283 283 283 282 280 279 279 279 279 279 280 279
302 300 299 299 299 298 296 295 290 289 288 288 288 289 289 288 287 285 284 283 283 283 284 284 284 284 283 284 284 283 283 283 282 281 279 279 279 279 279 279 279 279 279

GFSMW_850_thetae_027.txt.gz
Theta_e
321 321 320 321 325 326 325 325 325 326 329 333 335 334 334 332 330 329 325 317 312 309 310 311 310 309 309 308 307 306 304 303 301 301 301 301 301 302 303 303 302 300 300
321 320 320 324 328 329 329 328 329 331 332 333 334 333 331 328 324 317 311 309 310 311 310 310 309 308 308 306 304 302 300 299 296 296 297 297 299 302 298 299 297 298 300
320 320 321 324 329 330 331 331 331 331 330 330 330 326 323 317 313 309 309 310 311 310 310 310 309 308 306 304 301 298 296 296 296 294 295 296 297 294 297 295 297 300 296
320 320 320 321 326 330 330 331 331 331 330 327 322 318 314 312 309 310 311 310 311 311 310 310 309 307 304 300 298 296 295 294 294 294 293 294 293 295 296 295 293 293 293
320 319 319 319 321 321 325 327 325 324 321 317 315 313 310 310 310 310 310 311 310 310 309 308 306 303 300 298 296 295 294 293 293 293 293 293 293 292 294 293 292 292 292
319 319 319 318 318 318 318 318 317 317 317 317 314 310 310 310 311 310 309 309 309 308 308 306 303 300 297 295 294 293 293 293 293 293 292 291 291 291 291 291 291 292 291
319 319 319 318 317 317 317 316 316 316 315 312 310 310 310 310 310 310 309 308 308 308 306 302 299 296 294 293 293 293 293 293 293 292 291 290 290 290 290 291 291 291 291
319 319 318 317 316 314 314 313 312 311 311 310 310 310 310 310 310 309 309 308 307 305 302 298 296 294 293 293 293 293 293 292 292 290 290 289 289 288 289 289 290 290 290
319 319 318 317 315 313 312 311 311 310 310 310 310 310 310 309 309 308 308 307 305 302 299 296 294 293 292 292 292 292 292 291 290 289 289 288 287 287 287 288 288 290 290
318 318 317 316 314 312 312 311 310 310 310 309 309 309 309 309 308 307 307 306 303 299 296 294 292 292 292 292 292 291 290 289 289 288 288 287 286 286 286 288 288 288 289
318 318 317 316 314 312 312 311 310 310 309 308 308 308 309 308 307 307 306 304 300 296 293 292 292 292 292 292 291 290 289 288 288 287 287 287 286 285 286 286 287 288 288
318 317 317 316 314 313 312 311 309 308 308 307 308 308 307 306 306 306 303 299 296 293 291 291 291 292 292 290 289 288 288 287 287 287 287 286 285 286 287 287 287 287 287
317 317 317 316 314 313 312 310 308 307 306 306 307 306 306 305 305 303 299 296 292 291 291 291 291 291 290 289 288 287 287 287 287 287 287 286 285 286 286 287 287 287 287
317 317 316 315 314 312 311 309 307 306 306 306 305 305 305 305 303 300 296 293 291 291 291 291 291 289 289 288 287 287 287 287 287 287 286 285 285 286 286 287 287 287 287
317 317 316 315 314 311 309 307 306 305 304 304 304 304 304 303 301 297 293 291 290 291 291 290 289 288 288 287 286 287 287 287 287 286 286 285 285 286 286 287 286 286 286
316 316 316 315 313 311 308 306 305 304 303 303 304 304 302 301 298 293 291 290 291 291 290 289 288 288 286 285 286 287 287 287 286 286 286 285 285 285 286 285 286 287 287
317 316 316 315 313 310 308 306 304 303 302 303 303 302 300 298 293 290 290 291 291 290 289 288 287 286 285 285 286 286 287 287 286 286 285 285 285 285 285 285 286 286 286
317 316 316 314 312 310 307 305 303 302 302 302 301 300 298 294 290 290 290 291 290 289 288 287 286 285 285 284 285 286 286 286 286 285 285 285 285 284 285 285 285 286 285
317 316 316 314 311 309 306 304 302 301 301 301 299 298 295 290 290 290 291 290 289 288 287 286 286 284 284 284 285 286 286 285 285 285 284 285 284 284 285 285 286 284 283
317 316 315 312 310 306 305 303 301 301 301 299 298 295 290 289 290 291 290 289 288 287 286 286 284 284 284 283 284 285 285 285 284 284 284 283 283 284 285 285 284 282 282
315 314 312 310 308 305 303 301 302 301 298 297 295 290 289 290 291 290 290 289 287 287 285 285 284 284 284 283 284 284 284 284 285 284 283 283 283 285 284 284 282 282 283
311 311 309 307 304 303 302 302 301 298 297 295 290 289 290 290 290 290 289 288 286 285 285 284 284 284 284 283 283 284 284 285 284 284 283 283 284 283 282 281 282 282 282
308 307 306 304 301 300 300 301 299 296 295 291 289 289 290 290 290 289 288 286 285 284 284 284 284 284 283 283 283 284 285 284 284 283 283 282 282 281 280 280 281 281 279
305 304 303 302 300 300 300 298 297 295 291 289 289 289 290 291 290 288 286 286 284 283 284 284 284 283 283 283 283 284 284 283 283 283 282 281 280 279 279 280 280 279 279
303 302 302 301 301 300 299 297 295 290 288 288 289 289 290 290 289 287 286 284 283 283 283 283 283 283 283 283 284 284 283 283 283 282 281 279 279 279 279 279 279 279 279
301 300 300 301 300 299 296 295 290 288 288 289 289 289 289 289 287 286 286 284 283 282 282 282 283 283 283 283 283 283 283 282 281 280 279 278 278 278 279 279 279 279 279

GFSMW_850_thetae_030.txt.gz
Theta_e
321 321 321 321 320 321 322 323 323 323 324 331 334 336 333 332 331 330 329 328 321 311 310 310 310 309 309 308 307 305 303 301 300 300 301 301 300 300 302 301 299 298 297
320 321 321 320 321 322 324 324 323 321 326 330 335 335 333 332 330 329 323 311 310 310 310 310 310 309 309 307 304 302 300 298 296 295 296 296 298 301 299 298 295 295 295
321 321 321 321 324 325 325 327 328 331 332 333 334 333 332 331 327 316 310 310 310 311 310 310 310 309 306 303 301 298 297 296 294 293 294 294 295 293 295 294 294 293 293
321 321 321 324 327 327 328 328 330 331 332 332 332 332 330 324 313 309 310 311 310 310 310 310 309 306 302 300 297 295 294 294 293 293 292 292 292 291 292 292 292 291 291
321 321 321 325 328 328 329 330 330 330 330 328 324 323 317 311 310 310 310 310 310 310 310 308 305 301 299 297 295 294 293 293 293 292 292 292 291 290 291 291 290 290 290
320 321 322 325 329 329 330 329 330 329 327 321 316 314 311 310 311 310 310 310 310 309 308 305 301 298 296 295 293 293 292 293 293 292 291 290 290 290 289 288 288 289 289
319 320 321 323 324 326 328 327 327 323 317 315 313 310 310 310 310 310 310 310 309 308 305 302 299 296 294 293 292 292 293 293 292 291 290 290 289 289 288 287 287 288 288
318 319 319 320 320 319 320 319 317 317 316 315 311 309 310 309 309 310 309 308 308 306 302 299 296 294 293 292 292 292 292 292 291 290 289 289 288 288 287 286 286 287 288
318 318 318 318 318 317 317 317 317 316 314 311 310 309 309 309 310 309 308 308 306 304 300 297 295 293 292 292 292 292 291 290 290 289 288 288 287 287 286 286 285 287 287
317 318 317 317 316 316 315 314 313 312 310 309 309 309 309 309 309 308 307 306 304 301 297 295 292 292 292 292 292 291 290 289 288 288 287 287 287 286 285 285 286 287 287
317 318 317 316 314 313 312 310 310 310 309 309 309 309 308 308 307 307 306 304 301 297 294 292 292 292 292 291 290 289 288 288 287 287 287 287 286 286 285 285 286 286 286
317 318 317 315 313 312 311 310 309 308 308 307 308 307 307 306 306 306 304 301 297 293 292 291 291 292 291 290 289 288 287 287 287 287 287 287 286 285 285 285 286 286 286
317 317 316 314 312 311 311 309 308 307 306 306 307 306 306 305 306 304 301 298 293 291 291 291 292 290 289 288 288 287 286 286 287 287 287 286 286 285 285 285 286 286 286
317 317 316 314 313 312 311 309 307 306 305 305 305 305 305 305 304 302 298 293 291 291 292 291 290 289 288 287 287 286 286 287 287 286 286 286 286 285 286 286 286 286 286
315 316 316 315 313 312 311 308 307 305 304 304 304 304 304 303 302 298 293 291 291 292 291 290 289 288 287 287 286 286 287 286 286 286 286 286 285 286 286 286 286 285 285
315 315 316 315 314 312 310 308 306 304 303 303 303 304 303 301 298 294 291 291 291 291 290 289 288 287 286 286 285 287 286 286 286 286 286 285 284 284 285 285 285 286 286
315 316 316 316 314 312 310 308 306 304 303 302 303 302 300 298 294 291 290 291 291 290 289 288 287 286 286 285 285 286 286 286 285 285 284 284 284 284 283 284 285 284 285
315 315 316 315 314 312 309 307 304 303 302 302 302 300 298 296 291 290 291 291 290 289 288 287 286 285 285 284 284 284 285 284 284 284 284 284 284 283 284 285 285 285 284
316 316 316 315 314 311 308 305 303 302 301 301 300 299 297 291 290 291 291 290 290 288 287 286 285 285 284 284 283 285 284 284 284 284 285 284 283 283 285 286 284 283 282
316 316 316 314 312 308 306 304 302 301 301 301 299 297 292 290 291 291 291 290 288 287 286 286 285 284 284 283 283 285 284 284 284 285 284 283 283 284 285 284 283 282 281
316 315 315 313 310 306 304 302 301 301 300 298 297 292 289 291 291 291 290 289 287 287 286 285 284 284 283 283 283 284 285 284 285 284 284 283 283 284 283 283 282 281 283
315 314 313 309 306 304 303 302 301 300 298 297 293 289 290 291 291 290 289 288 287 286 285 284 284 283 283 283 283 284 285 285 284 284 283 283 283 282 281 281 281 282 282
311 309 309 305 302 301 301 302 301 298 297 294 289 290 290 290 290 289 288 287 286 285 284 283 283 282 282 282 283 284 284 283 284 283 283 282 281 280 280 280 281 280 280
309 307 306 303 301 300 300 300 299 297 294 289 289 290 289 289 289 289 287 286 285 283 283 282 282 282 282 282 283 283 283 283 283 282 282 281 280 279 280 281 280 280 279
304 304 304 302 301 300 299 298 296 294 289 289 289 289 289 289 290 288 287 285 283 282 282 282 282 282 282 282 283 283 283 283 282 282 280 279 279 279 280 280 280 279 279
302 302 301 301 301 299 298 296 293 289 288 288 288 288 289 289 288 287 286 284 283 282 282 281 281 282 282 282 282 283 283 282 281 280 279 279 278 278 279 279 279 279 280

GFSMW_850_thetae_033.txt.gz
Theta_e
324 324 322 321 321 321 321 325 330 333 334 333 336 337 335 333 333 332 330 328 328 325 311 310 310 310 310 310 308 304 302 301 301 301 302 301 301 299 299 301 300 299 297
324 322 321 321 321 320 321 322 323 326 329 331 333 335 334 332 331 329 329 328 318 310 310 310 310 311 309 307 303 302 300 298 297 296 297 296 297 299 300 297 297 295 295
324 322 321 321 321 320 321 322 323 323 323 328 332 334 333 331 330 328 328 316 310 310 310 311 311 309 305 302 301 299 297 296 295 293 294 293 293 292 294 294 294 293 293
323 322 321 321 321 322 323 324 324 322 326 331 332 334 334 332 330 327 315 310 310 310 311 311 309 305 302 300 298 297 295 294 293 293 292 292 291 290 291 291 292 292 291
322 322 321 321 322 324 325 327 329 331 332 333 333 333 332 331 326 313 310 310 310 310 310 309 306 303 300 298 296 295 294 293 293 292 292 291 290 290 290 289 289 290 290
322 321 321 322 324 326 327 329 331 331 332 331 331 330 329 324 313 310 310 310 310 310 309 307 304 301 298 296 295 293 293 292 292 292 290 289 289 289 288 287 287 287 287
319 320 320 325 326 328 329 329 330 330 329 327 324 322 318 311 310 310 310 310 309 309 307 305 301 298 296 294 293 292 292 292 291 290 290 289 288 288 287 287 287 286 286
318 319 321 324 326 327 329 329 329 329 326 320 315 312 310 310 310 310 310 309 309 308 306 302 298 295 293 292 292 292 292 291 290 289 289 288 287 287 287 286 285 285 286
317 318 322 324 326 327 327 327 327 326 318 314 312 309 309 309 309 309 309 308 308 306 302 298 295 293 292 292 292 292 291 290 289 289 288 287 287 287 286 286 285 285 286
316 317 321 323 324 325 325 323 322 318 315 313 309 309 308 308 308 308 308 308 306 302 298 295 293 292 291 292 292 290 290 289 289 288 287 287 287 286 286 285 285 285 285
315 316 318 320 320 320 319 318 316 315 313 309 308 308 308 308 307 307 307 306 303 299 295 293 292 292 292 292 290 290 289 288 287 287 287 287 286 286 286 286 285 285 285
313 315 318 317 317 316 316 315 314 312 310 308 307 307 307 307 307 307 306 303 300 295 293 292 292 292 292 290 289 289 288 287 287 287 286 286 286 286 286 285 285 285 285
314 315 316 315 315 314 313 312 310 308 307 307 307 307 306 306 306 305 303 300 295 292 291 291 292 291 290 289 289 288 287 287 286 286 286 286 286 286 285 285 285 285 286
315 316 315 314 313 311 310 308 307 306 306 305 306 306 305 305 305 303 300 296 292 291 291 292 291 290 289 289 288 287 287 286 286 286 286 286 285 285 285 285 285 285 285
314 315 315 313 311 310 308 307 306 305 305 304 305 305 304 304 303 301 297 293 291 291 292 291 290 289 289 288 286 286 286 286 286 286 285 284 284 284 285 285 285 284 285
314 315 314 313 311 310 308 307 306 304 304 304 304 303 304 302 300 297 294 291 291 292 291 290 289 289 288 287 286 285 286 285 285 284 284 283 283 284 284 284 284 285 285
315 315 316 314 312 310 309 307 306 304 303 302 302 303 302 300 298 295 291 291 292 292 291 289 288 288 287 286 285 284 286 284 284 284 284 284 284 284 283 284 284 286 285
315 315 315 314 313 311 309 307 305 303 302 301 302 301 300 299 296 291 291 292 292 291 290 289 288 287 286 285 284 284 284 284 284 284 284 285 284 283 284 285 286 284 283
316 316 316 315 314 312 309 307 304 303 301 301 301 300 299 297 291 290 292 292 291 290 289 288 287 285 285 284 283 283 284 284 284 284 285 284 283 283 285 285 284 283 282
316 316 316 315 313 310 308 306 304 301 300 300 300 299 297 292 290 291 291 291 291 289 288 287 285 284 283 283 283 284 284 284 284 285 284 283 283 284 284 284 283 282 282
316 315 314 315 312 310 307 304 303 301 300 300 298 297 292 290 291 291 291 291 290 288 287 285 284 284 283 283 282 284 284 284 285 284 283 282 283 284 283 283 282 281 283
314 314 314 312 310 307 305 303 301 300 299 298 297 293 289 290 291 291 290 289 288 287 285 284 284 284 283 282 282 283 284 285 284 284 283 283 283 282 281 281 281 282 281
313 312 313 310 306 304 303 302 300 300 298 296 293 289 290 290 290 290 290 289 287 285 284 283 283 282 282 282 282 283 284 283 284 283 283 282 281 280 280 281 280 280 280
311 310 309 306 302 301 301 301 300 298 296 294 289 289 289 289 290 290 289 287 285 284 283 282 282 282 282 282 282 283 283 283 283 282 282 280 280 280 280 281 281 280 279
308 308 307 305 302 299 299 298 297 296 294 289 289 289 289 289 289 289 287 286 284 283 282 282 281 281 281 282 283 283 283 283 282 282 280 280 280 280 281 281 281 280 280
306 305 303 302 300 299 299 297 295 292 289 288 289 288 288 289 289 288 287 284 283 282 282 281 281 281 281 282 282 282 283 282 280 280 279 279 279 279 280 280 280 281 281

GFSMW_850_thetae_036.txt.gz
Theta_e
324 324 324 324 324 322 322 322 322 325 330 335 335 336 337 335 334 334 333 332 328 327 326 312 310 310 310 310 307 303 302 302 301 301 302 300 300 299 298 299 300 300 297
322 324 324 323 323 321 321 321 321 327 331 334 335 336 336 334 334 333 331 328 327 326 311 310 310 311 311 307 304 302 300 299 298 297 297 296 297 298 300 296 296 295 295
321 322 323 324 322 321 321 320 320 324 330 333 334 335 335 333 332 330 326 325 320 311 310 310 311 311 308 305 302 300 299 298 296 294 293 293 293 292 294 294 295 293 293
320 321 321 322 322 321 321 320 321 322 324 330 333 334 335 332 329 326 324 325 311 310 310 311 311 309 306 302 300 298 297 295 294 293 293 292 290 290 290 291 292 291 291
318 320 322 322 323 321 321 322 323 324 323 327 331 333 333 329 328 324 322 314 309 310 310 310 310 307 304 300 298 296 295 293 293 292 292 291 290 289 289 288 290 291 291
320 320 321 322 322 321 323 324 324 323 323 327 331 330 332 329 327 321 313 309 310 310 310 309 308 305 301 298 297 295 293 293 293 292 291 289 288 288 287 287 287 287 287
319 320 321 321 321 322 324 326 327 327 329 329 329 329 329 329 326 316 309 310 310 309 309 308 305 302 299 296 294 293 293 293 292 291 290 289 288 288 287 287 287 286 286
318 320 320 321 321 322 325 327 329 330 329 328 328 327 325 320 311 309 309 309 309 308 308 306 303 300 296 294 293 293 293 292 291 290 289 289 288 287 287 287 286 285 285
316 318 318 320 322 323 326 328 329 330 329 327 324 319 313 309 309 309 309 308 308 308 306 303 300 296 294 293 293 293 292 290 290 289 288 288 287 287 287 286 286 285 285
315 316 317 320 324 326 327 328 328 328 326 320 315 310 308 308 308 308 308 307 308 306 303 300 297 294 293 292 292 291 290 290 289 288 288 287 287 286 286 286 286 285 285
316 316 317 321 325 326 327 327 327 326 320 313 310 308 308 307 307 307 307 307 306 303 301 298 294 292 292 292 291 290 290 289 288 288 287 287 286 286 286 286 285 285 285
315 315 316 321 323 325 325 325 322 321 314 311 308 307 307 307 306 307 307 306 304 302 298 294 292 292 292 291 290 290 289 288 288 287 286 286 286 286 285 285 285 285 285
312 313 315 320 321 321 321 319 317 314 312 308 307 306 306 306 306 306 306 304 302 298 294 292 292 292 292 291 290 289 288 287 287 286 286 285 285 284 284 284 284 285 285
311 311 314 317 319 318 317 315 313 311 308 306 305 306 305 306 306 305 304 302 299 295 292 292 292 292 291 290 289 288 287 287 286 285 285 284 284 283 284 285 285 285 284
310 311 312 315 315 314 312 310 309 307 306 305 305 305 305 305 304 303 302 298 295 292 292 293 292 291 290 289 288 287 286 286 285 285 284 284 283 284 285 285 285 284 284
310 310 312 313 312 311 309 308 306 305 304 304 304 304 304 304 303 301 298 294 292 292 293 292 291 290 289 288 287 285 285 285 285 284 284 284 284 284 284 284 284 285 286
311 311 313 313 312 310 308 306 305 303 303 303 303 303 303 302 301 298 294 292 292 293 293 291 290 289 288 287 286 285 284 284 284 284 284 284 284 283 283 283 284 285 285
312 312 313 311 309 308 307 306 304 303 302 302 302 302 302 300 298 295 292 292 292 292 292 291 290 288 287 286 285 284 284 284 284 284 284 284 283 283 284 284 285 284 283
315 316 314 313 311 309 308 306 304 302 301 301 301 301 300 298 295 292 291 292 292 292 291 290 289 287 286 285 284 283 284 284 284 284 284 283 283 283 284 285 284 283 282
316 316 315 313 312 309 308 306 304 301 301 300 300 299 297 295 292 291 292 292 292 291 290 289 287 285 284 284 283 283 284 284 284 284 284 283 283 284 284 284 283 282 281
315 315 314 314 313 310 308 305 303 301 300 299 298 297 295 293 291 291 291 291 291 290 289 287 286 285 284 283 282 282 284 284 284 284 283 283 283 284 283 283 281 281 283
313 313 314 313 311 309 307 304 302 299 298 297 296 295 293 290 291 291 291 291 290 289 287 286 285 284 283 282 282 282 284 284 284 283 283 282 283 282 281 281 281 282 281
313 312 313 312 309 306 304 303 300 298 297 297 296 293 290 290 290 290 290 290 289 287 285 284 283 283 282 282 282 282 283 283 283 283 283 282 281 280 280 281 280 281 281
311 311 311 309 305 302 301 301 299 298 297 296 293 289 289 289 289 290 290 289 288 285 284 283 282 282 282 281 282 283 282 283 283 282 282 281 280 280 280 281 282 282 281
309 308 308 305 301 299 299 298 298 297 296 293 289 289 289 289 289 289 289 288 285 283 282 282 281 281 281 281 283 283 283 283 282 282 280 280 280 280 281 281 282 282 282
307 305 303 302 299 298 298 297 296 295 291 289 289 289 288 288 289 289 288 285 283 283 282 281 281 281 281 281 282 282 282 282 280 280 280 280 279 280 281 281 281 282 282

GFSMW_850_thetae_039.txt.gz
Theta_e
319 321 324 324 324 323 324 323 322 322 323 324 330 335 335 336 336 335 333 332 332 329 327 326 316 310 310 311 309 306 303 302 302 301 301 299 299 298 298 298 297 296 296
316 319 321 324 324 324 323 322 322 323 323 325 329 335 335 335 335 333 332 330 329 327 325 316 310 310 311 309 307 304 302 301 300 298 297 296 297 299 298 297 296 296 295
313 316 318 321 323 324 323 322 322 322 322 325 331 334 335 334 332 331 330 327 326 324 316 310 311 311 311 309 306 303 301 299 297 296 295 294 294 294 296 295 295 294 293
311 312 316 319 321 323 322 321 321 321 323 328 332 334 335 333 331 331 329 324 319 317 310 310 311 311 310 307 304 302 299 297 295 295 294 293 292 291 291 292 292 292 292
311 311 313 317 320 322 322 321 321 321 322 328 332 334 334 332 331 327 325 320 316 311 310 310 311 310 308 305 302 299 296 295 294 294 293 292 291 290 289 290 291 291 291
314 315 313 316 319 321 321 321 321 322 323 325 330 332 333 332 328 324 320 318 311 309 310 310 310 308 306 303 299 296 295 294 294 293 292 290 289 289 288 288 288 288 288
312 315 318 317 319 320 321 321 322 323 323 324 328 331 332 331 326 322 319 315 309 309 310 310 309 307 304 300 296 295 294 293 293 292 291 290 289 288 288 287 287 287 287
312 316 317 319 319 321 321 322 323 324 323 324 327 329 329 325 322 317 310 308 309 309 309 309 307 304 301 297 294 294 293 293 292 291 290 289 288 288 287 287 286 286 287
313 311 318 318 319 320 322 322 323 325 324 326 328 326 324 321 315 309 307 308 309 309 309 307 305 301 297 294 293 293 293 291 291 290 289 288 288 287 287 286 286 286 286
310 312 313 318 319 321 323 325 326 327 327 325 324 324 320 312 308 307 308 308 309 309 307 304 301 297 294 293 293 293 292 291 290 289 288 288 287 287 286 286 286 286 286
309 313 314 317 318 322 324 326 327 328 326 324 322 318 311 307 307 307 308 308 308 307 305 301 297 294 293 293 292 291 291 290 289 288 288 287 286 286 285 285 285 284 284
310 314 315 317 318 322 325 326 326 326 324 320 315 310 307 306 307 307 307 307 306 305 301 298 294 293 293 292 291 291 290 289 288 288 287 286 285 285 284 284 284 284 284
312 313 314 316 318 321 324 324 324 322 318 312 308 306 306 306 306 307 307 305 304 301 298 295 293 293 293 291 291 290 289 288 288 287 286 285 284 284 284 284 284 284 285
310 311 311 314 318 321 322 322 319 317 312 307 306 306 305 305 306 306 305 303 301 298 295 293 293 293 292 291 290 289 288 287 286 285 285 284 284 284 284 285 285 285 285
307 308 309 312 316 318 319 317 315 311 308 306 305 305 305 305 305 304 302 300 298 295 293 293 293 292 291 291 289 288 287 286 285 285 284 284 284 284 285 285 285 284 285
307 307 309 312 316 317 315 312 310 308 306 305 304 304 304 304 303 302 300 297 294 293 293 293 292 292 291 290 288 286 285 285 284 284 284 284 284 284 284 284 284 285 285
307 306 309 313 314 314 314 311 308 306 304 304 304 303 303 303 301 299 297 294 293 293 293 292 292 291 290 288 287 285 284 284 284 284 284 284 284 283 283 283 284 285 285
309 309 311 311 312 311 309 308 306 304 303 302 302 302 302 301 299 297 295 293 292 292 292 292 291 290 288 286 285 284 284 284 283 284 284 284 283 283 284 284 285 284 283
312 311 311 312 310 309 307 306 303 302 301 302 301 301 300 299 297 295 293 292 292 292 292 291 290 288 286 285 284 283 283 283 284 284 284 283 283 283 284 285 284 283 283
314 313 312 310 309 307 305 303 301 301 301 300 300 299 298 297 295 293 292 292 292 292 291 290 288 286 285 284 283 283 283 284 284 284 284 283 283 284 285 284 283 282 281
314 312 311 310 308 305 303 302 301 300 300 299 299 298 297 295 295 291 291 291 291 291 290 289 286 285 284 283 283 282 284 284 284 284 283 283 283 284 283 283 282 281 283
311 312 312 309 306 304 303 302 300 299 299 298 298 297 297 294 291 291 291 290 290 290 288 286 286 285 284 283 282 282 284 284 283 283 283 282 283 282 281 281 281 282 281
312 312 311 308 305 303 303 303 300 299 298 298 297 296 293 290 290 290 290 290 289 288 286 284 284 284 283 282 282 282 283 283 283 283 283 282 281 281 281 281 281 282 282
309 309 309 306 303 302 301 302 300 298 298 297 296 293 290 290 289 289 289 289 287 285 284 283 283 282 282 281 282 282 282 283 283 282 282 281 280 280 281 282 282 282 282
307 308 308 306 303 300 299 299 298 297 297 295 292 289 289 289 289 289 289 288 285 284 282 282 281 281 281 281 282 282 282 283 282 282 280 280 280 280 281 282 282 282 282
306 306 305 303 299 298 298 297 296 295 295 292 289 289 288 288 288 289 288 285 284 283 282 282 281 281 281 281 282 282 282 282 280 280 280 280 280 280 281 281 282 283 283

GFSMW_850_thetae_042.txt.gz
Theta_e
318 319 320 321 322 320 320 324 324 324 323 323 333 335 333 335 336 336 334 334 333 331 330 326 326 320 310 310 312 311 308 304 302 301 300 299 299 298 297 298 298 298 296
314 316 318 320 322 322 323 323 324 324 323 324 327 331 333 334 336 336 333 334 332 331 329 324 320 310 310 312 311 310 307 303 301 298 298 300 299 299 298 297 296 295 295
312 313 314 317 321 322 323 324 324 324 323 325 329 328 332 334 335 334 333 331 331 329 326 319 310 310 311 312 311 308 304 301 299 297 296 299 299 296 296 296 295 294 294
312 312 313 314 319 321 323 324 323 323 322 323 325 327 331 335 334 332 331 329 328 326 319 311 310 311 311 311 309 306 302 299 296 295 295 294 293 295 295 295 294 293 293
312 313 313 313 315 319 321 322 322 321 322 322 324 329 332 333 332 330 328 327 325 316 313 310 310 310 311 310 307 304 299 296 295 295 294 293 292 292 293 293 294 293 292
312 312 312 313 314 318 318 320 321 321 321 322 326 330 331 333 332 329 326 325 317 313 309 309 310 310 309 308 305 301 297 295 295 294 293 292 291 292 291 291 292 291 292
312 313 314 315 316 317 317 320 321 321 321 323 327 330 332 332 331 329 326 323 317 309 309 309 309 309 308 305 301 297 295 294 294 293 291 291 290 290 290 290 290 291 290
313 312 314 317 317 318 317 320 321 321 322 323 326 329 330 331 330 327 323 315 310 308 309 309 309 307 305 301 297 295 294 294 293 292 291 290 290 289 289 289 289 289 290
313 313 313 316 318 320 317 320 321 322 322 323 325 327 329 329 328 321 314 312 307 308 308 308 306 304 301 298 295 294 293 292 292 291 290 290 289 289 288 288 288 288 289
315 313 312 315 319 321 319 321 321 322 322 322 324 326 328 325 318 315 310 307 307 308 307 306 304 300 297 295 294 293 293 292 291 290 289 289 288 288 288 288 288 288 288
315 312 312 316 319 320 320 319 319 320 321 322 325 326 321 316 315 308 306 307 307 307 306 304 300 297 295 294 294 293 292 291 290 289 289 288 287 287 287 287 287 287 287
314 314 315 317 318 317 316 318 319 320 321 323 323 320 318 314 308 305 306 307 306 305 303 301 297 295 294 294 293 292 292 291 289 289 288 287 287 286 286 286 286 286 286
312 312 312 313 315 313 312 316 320 322 323 321 320 318 311 305 305 306 306 306 305 303 301 298 295 294 293 293 293 292 291 289 288 288 287 286 286 286 286 286 286 286 286
311 311 311 312 311 309 313 319 322 322 321 319 315 309 305 305 305 305 305 304 303 301 298 295 294 293 293 293 292 291 289 288 288 287 286 285 285 286 286 286 286 286 286
310 309 309 309 305 307 316 320 320 317 316 312 307 305 304 304 305 305 303 302 300 298 295 294 293 293 293 292 291 289 288 287 287 286 286 286 285 284 285 286 286 286 285
308 307 305 303 301 309 316 316 316 312 308 305 305 305 304 304 304 303 301 299 297 295 294 293 293 293 292 291 289 288 286 287 286 286 286 285 285 285 285 285 285 285 285
307 305 302 300 305 311 316 314 311 307 304 304 304 304 304 303 302 300 299 297 295 293 293 293 293 292 291 290 288 286 285 286 285 285 285 285 285 285 285 285 285 285 285
306 303 300 302 307 311 311 311 305 303 303 303 303 303 302 302 300 298 296 295 293 293 293 292 292 291 290 288 286 285 285 285 286 285 285 285 285 285 285 285 285 285 285
305 304 307 308 307 309 307 304 302 302 302 302 302 302 301 300 298 296 294 293 292 292 292 292 291 290 287 286 285 284 284 285 285 285 285 285 285 285 285 285 285 285 284
305 305 305 305 307 304 304 304 302 301 301 302 301 300 299 298 296 294 293 292 292 291 291 291 289 287 286 285 285 284 284 285 285 285 285 285 285 285 285 285 284 283 283
309 308 308 308 308 306 304 303 301 301 301 300 300 299 297 296 295 292 291 291 291 291 290 290 287 286 285 284 284 283 283 285 285 285 284 285 284 284 284 283 283 282 283
309 310 309 307 305 304 303 302 301 300 300 299 299 297 296 293 292 291 291 290 290 290 290 288 286 285 284 283 283 282 283 284 284 284 284 284 284 283 282 282 281 282 282
308 309 308 306 300 300 301 302 301 299 299 298 297 295 294 292 290 290 290 290 290 289 287 285 285 284 283 283 282 283 284 284 284 283 283 284 283 281 281 281 281 282 281
305 305 304 301 300 300 301 302 299 298 297 297 295 294 292 290 289 289 289 290 289 286 285 284 284 283 283 283 283 283 283 283 283 283 283 282 281 280 280 281 281 281 280
305 304 303 303 301 299 299 299 298 296 296 295 294 291 289 289 289 289 289 289 286 284 283 283 282 282 282 282 282 283 283 283 283 282 281 281 280 280 280 280 280 280 280
306 304 303 302 299 298 298 296 295 295 296 294 290 289 288 288 288 289 288 286 284 283 283 282 281 281 281 281 282 282 282 282 281 280 280 280 280 280 279 279 281 282 283

GFSMW_850_thetae_045.txt.gz
Theta_e
319 320 320 322 322 322 324 325 325 325 326 329 334 337 337 336 337 336 336 332 331 331 330 330 328 326 324 311 311 312 310 309 306 303 301 301 301 299 300 299 299 299 297
316 317 318 320 321 322 324 323 324 325 326 329 331 336 336 335 336 336 334 331 332 332 331 330 328 325 311 310 312 311 310 309 305 301 301 302 301 301 300 300 298 296 296
315 315 315 317 319 321 322 323 323 325 326 329 333 335 335 335 335 334 332 333 332 331 330 327 325 317 310 311 311 311 309 306 303 299 298 300 302 300 298 298 297 296 296
314 314 315 315 315 318 322 323 324 326 329 331 331 331 329 330 329 331 332 332 331 330 328 326 320 310 310 311 311 310 309 304 300 298 297 296 295 296 296 297 296 296 295
314 314 314 314 314 315 319 323 324 326 330 329 331 328 328 325 328 331 331 331 330 329 326 321 313 309 310 311 310 309 307 302 298 297 296 295 294 294 294 295 295 294 294
313 313 313 313 314 314 317 323 324 327 329 329 326 325 326 325 327 331 330 329 328 326 318 313 310 309 310 310 309 307 304 299 297 296 295 294 293 293 293 293 293 292 293
312 313 313 314 314 314 314 322 325 326 327 325 325 325 326 325 328 331 330 328 326 323 316 310 307 309 309 309 307 304 300 297 296 295 294 293 292 292 291 291 291 291 291
313 314 315 314 314 315 315 321 325 325 324 323 325 327 324 325 328 330 329 326 323 316 315 308 306 308 308 307 304 300 298 296 295 295 293 292 292 291 291 291 290 290 290
313 315 315 315 315 318 317 320 324 323 322 323 325 323 323 326 329 328 326 322 316 310 307 308 307 307 306 304 301 298 296 295 294 293 292 292 291 290 290 290 289 289 290
314 314 314 315 314 317 319 322 323 322 321 322 320 318 321 327 328 327 320 316 314 309 306 307 306 306 303 301 298 296 295 294 293 292 292 291 290 289 289 289 289 289 288
314 315 314 314 315 318 321 322 322 320 319 317 315 316 321 325 325 319 311 310 308 306 306 306 305 303 301 298 296 295 295 294 292 291 291 290 289 289 288 288 287 287 287
314 314 315 315 318 321 322 322 319 317 314 311 313 318 323 320 316 309 311 307 305 305 304 304 302 300 298 296 295 294 294 293 291 291 290 289 288 288 287 287 287 287 287
313 314 315 317 319 321 320 318 314 311 310 311 316 319 316 313 310 312 308 305 305 304 303 302 300 298 296 295 294 294 293 291 291 290 289 288 288 287 287 287 287 287 287
315 314 314 315 316 317 315 313 309 307 308 310 313 313 310 311 310 304 304 305 303 303 302 300 297 295 295 294 294 293 291 291 290 289 288 288 287 287 287 286 286 286 286
315 313 313 313 313 313 310 305 303 303 310 312 311 310 308 305 303 304 303 303 302 301 300 297 295 294 294 294 292 291 290 289 288 288 288 287 287 286 286 286 286 286 286
313 310 311 310 306 303 302 300 300 304 309 311 310 305 303 302 303 304 303 302 300 299 298 295 294 294 293 292 292 291 289 287 287 287 287 287 286 286 286 286 286 286 286
310 308 307 303 300 302 299 298 303 309 309 308 305 303 302 303 303 302 301 299 299 297 295 294 293 293 292 292 290 288 287 286 287 286 287 286 286 286 286 285 286 286 285
307 304 301 299 300 299 297 299 306 307 305 304 303 301 302 303 301 301 299 298 297 295 293 293 293 292 292 291 288 287 286 286 286 286 286 286 286 286 286 285 285 285 285
304 301 298 299 298 299 299 299 301 301 302 301 301 301 302 301 300 299 297 298 296 293 293 292 292 292 289 288 286 286 285 285 285 286 286 286 286 285 286 286 285 285 284
301 300 300 300 300 299 300 303 301 303 304 301 300 300 300 300 298 297 302 295 292 292 292 292 291 290 288 286 286 285 284 284 285 285 285 285 285 286 286 285 285 284 283
303 302 301 303 302 301 301 300 298 296 298 300 300 300 299 297 299 300 293 292 291 291 291 291 289 287 286 286 285 284 283 284 285 285 285 284 285 285 285 285 284 283 283
301 300 298 298 297 297 298 297 299 300 301 300 300 299 300 302 296 293 291 291 290 290 290 289 287 286 285 284 284 283 284 285 285 284 284 284 285 285 284 283 282 283 283
301 299 299 298 298 300 304 304 301 300 300 300 300 299 297 294 292 291 290 290 290 290 288 286 286 285 285 284 284 284 284 284 284 284 284 284 284 283 282 281 282 282 281
305 304 304 304 303 302 301 302 300 300 300 299 297 296 294 292 290 290 289 290 290 287 285 285 284 284 283 283 283 282 283 283 283 283 283 283 282 281 281 281 281 281 281
300 298 299 301 300 299 299 300 299 297 297 297 296 294 291 290 289 289 289 289 287 285 285 284 283 282 282 282 282 282 282 283 283 283 282 281 281 281 281 281 281 282 282
297 298 300 300 299 299 299 297 297 296 297 296 293 290 289 289 288 289 289 288 286 285 284 283 282 282 281 281 281 282 282 282 282 281 280 280 280 280 280 281 282 283 283

GFSMW_850_thetae_048.txt.gz
Theta_e
320 320 320 321 320 321 323 327 326 326 326 329 336 338 335 340 336 335 335 335 332 331 329 328 328 328 326 325 312 311 313 312 311 308 304 302 302 301 301 300 300 299 298
317 317 319 320 320 321 321 322 325 326 325 324 328 336 337 337 336 335 335 335 333 332 330 329 329 329 326 321 311 312 312 311 309 306 304 302 301 301 302 300 299 299 297
315 315 316 317 318 320 321 322 322 325 325 325 327 335 337 336 336 336 335 334 333 332 330 330 330 329 326 314 311 312 312 311 309 305 302 300 301 301 299 298 298 297 297
315 315 315 315 315 316 319 321 322 323 324 325 328 333 335 335 336 334 334 334 331 330 329 329 329 328 322 311 311 311 311 310 307 304 301 298 297 297 297 297 297 297 296
315 315 314 314 314 315 316 318 320 323 323 326 329 332 334 334 332 333 334 332 328 329 326 327 327 324 314 310 310 311 311 309 305 302 299 298 297 295 295 295 296 295 295
314 314 314 314 314 314 314 315 319 322 323 327 331 333 330 331 332 333 332 331 328 326 325 325 325 317 311 310 310 310 309 307 303 300 298 297 296 294 294 293 293 293 294
312 312 313 314 313 313 314 314 315 322 324 329 332 333 331 330 328 328 329 328 327 324 323 321 315 311 310 310 309 309 307 303 300 298 297 296 295 294 292 292 292 291 292
312 311 314 314 314 315 314 313 314 324 325 330 331 332 330 328 325 324 325 327 325 323 320 316 311 309 309 309 308 307 304 301 298 297 296 295 294 293 292 291 290 290 290
312 313 314 314 313 315 314 314 314 324 326 329 330 327 325 325 325 324 326 326 324 318 315 310 308 308 308 308 306 304 301 298 297 296 295 294 293 292 291 290 290 289 289
312 313 314 314 314 314 315 316 316 324 326 328 326 325 326 326 324 325 326 322 319 314 311 310 306 308 307 305 303 300 298 296 295 295 294 293 292 291 290 289 289 288 288
312 312 314 312 314 314 317 317 319 324 325 324 324 325 326 323 322 325 322 320 313 310 308 308 307 305 304 303 300 297 296 295 295 294 293 293 291 290 289 289 288 287 287
312 312 313 312 315 316 317 318 321 322 323 323 323 324 321 320 322 322 317 310 308 306 307 305 305 302 302 300 298 296 295 295 294 293 292 291 290 289 288 288 287 287 287
311 314 314 313 317 319 320 320 321 321 321 320 321 317 316 318 316 312 309 308 307 306 304 304 303 302 300 297 296 295 294 294 293 292 291 290 289 288 288 287 287 286 286
312 314 314 314 318 319 320 319 318 317 316 316 313 312 311 311 310 306 306 307 306 305 304 301 301 300 298 296 295 294 294 293 292 290 289 288 288 288 287 287 287 287 286
313 314 313 314 316 317 314 314 313 312 311 310 308 305 305 306 305 305 305 306 303 302 300 301 300 297 296 295 294 293 293 291 289 288 288 288 287 287 287 287 287 287 287
311 312 312 313 315 312 310 310 309 307 306 304 301 301 303 305 305 305 303 302 301 301 301 300 297 295 294 294 293 293 291 289 288 288 287 287 286 286 287 287 287 287 286
312 311 311 311 308 306 306 305 302 300 300 299 299 302 303 302 302 302 302 300 300 301 300 297 294 294 294 293 292 291 289 288 287 286 286 286 286 286 286 286 286 286 286
312 310 307 307 307 304 303 300 298 297 297 297 298 299 300 301 300 300 300 300 300 300 296 294 294 293 293 292 290 288 288 287 286 285 285 286 286 286 286 286 286 286 285
304 302 302 300 298 297 296 295 295 295 295 296 298 300 302 300 298 299 300 300 300 297 295 293 292 292 291 290 289 287 287 286 284 284 284 285 285 285 286 286 286 285 285
301 299 296 295 295 294 294 294 295 297 298 300 300 301 301 301 301 299 302 301 297 293 292 292 292 291 289 288 287 287 286 284 284 284 284 284 285 285 286 286 286 285 284
297 296 296 296 295 295 296 298 300 302 303 304 305 302 299 296 299 304 300 295 292 292 291 292 291 288 287 287 286 285 284 284 285 285 284 284 284 285 285 285 284 284 284
300 300 299 299 299 299 302 303 303 304 304 301 297 296 297 303 303 295 292 291 291 291 291 290 288 287 286 285 284 285 285 285 285 284 284 283 284 285 284 284 283 283 284
298 297 296 296 296 300 304 302 296 295 296 298 302 302 302 296 293 291 291 291 290 291 289 287 286 286 285 283 283 283 283 282 283 283 283 284 283 282 282 281 282 282 282
298 297 297 297 296 297 298 300 299 300 300 300 299 297 295 292 291 290 290 290 291 289 286 286 285 284 283 282 282 282 282 282 283 283 283 282 281 281 281 281 282 282 283
302 302 303 303 301 300 299 297 298 299 300 298 296 295 292 290 290 289 290 290 288 286 286 285 284 283 282 282 282 282 282 283 283 283 282 281 281 281 281 282 283 283 283
299 302 302 300 298 298 298 298 298 297 298 297 295 292 290 290 289 290 291 288 286 286 285 284 283 282 282 282 282 282 283 282 282 281 280 280 280 280 281 282 283 283 284

GFSMW_850_thetae_054.txt.gz
Theta_e
318 318 319 319 319 320 322 321 322 322 331 334 335 335 336 337 337 335 336 335 333 332 330 330 330 330 329 326 326 325 324 311 312 312 311 309 306 304 303 302 301 300 300
316 317 318 319 319 319 319 319 320 320 321 331 333 334 332 335 332 332 334 335 333 332 331 330 331 331 329 326 326 325 324 311 312 312 310 308 306 305 303 302 301 300 299
314 314 316 317 318 318 319 319 319 319 320 322 330 333 333 332 332 331 332 333 334 333 331 331 331 331 329 327 327 326 322 311 312 312 311 308 306 304 302 300 299 300 300
314 314 314 314 314 315 317 318 318 320 320 321 326 330 333 331 330 330 330 332 332 333 331 331 331 331 329 327 327 325 317 311 312 312 311 308 306 302 300 299 299 299 298
315 315 315 314 314 315 315 315 315 316 318 320 322 329 331 331 328 328 329 329 332 332 330 329 331 331 329 327 326 323 317 311 311 311 309 306 305 302 299 298 298 297 296
314 314 314 315 314 314 314 315 315 315 315 316 319 320 325 329 329 328 327 329 329 331 330 328 330 330 329 327 325 322 314 310 310 309 308 305 302 300 298 297 296 296 296
312 312 313 313 314 314 314 314 314 314 314 314 317 320 320 323 325 327 327 327 328 329 328 327 328 328 327 325 324 315 311 309 308 307 305 304 300 298 296 295 294 294 294
311 311 311 312 312 312 312 312 312 312 312 313 313 315 321 321 324 326 326 325 326 327 327 327 327 325 325 324 319 312 308 306 306 304 301 300 298 296 295 294 293 292 292
313 312 311 313 313 312 312 313 313 313 313 312 312 313 315 322 324 324 325 327 327 327 327 325 323 321 322 321 314 309 307 304 304 302 300 298 296 295 294 293 292 291 289
313 313 313 312 312 313 312 312 312 311 310 312 314 313 313 320 324 325 324 326 326 326 325 324 322 318 318 313 308 305 303 302 300 299 297 296 295 294 293 292 291 290 289
313 312 313 313 312 312 311 312 311 310 313 314 314 313 315 323 326 325 325 326 325 325 323 322 319 312 309 306 304 303 300 298 297 299 299 296 294 293 292 291 290 289 288
312 312 312 311 311 311 310 310 310 311 316 314 314 314 324 327 327 324 325 325 325 322 320 318 311 307 305 306 302 299 300 304 298 295 294 294 293 292 291 290 289 288 287
312 313 313 313 313 312 311 311 310 312 316 316 317 321 325 326 325 324 323 322 320 319 312 309 306 305 302 300 302 301 296 294 296 297 293 292 291 290 289 288 288 287 287
312 313 314 313 313 314 312 312 311 314 318 319 320 322 322 323 323 321 320 318 315 310 306 304 301 301 298 297 299 300 301 301 296 292 291 289 289 288 288 287 287 287 287
313 313 312 312 312 314 313 313 314 316 316 318 319 320 319 319 316 317 313 310 305 304 303 302 297 295 299 305 306 307 300 294 292 290 288 288 288 287 286 286 287 287 286
310 312 312 312 312 312 312 311 310 308 308 308 308 310 310 309 307 307 304 303 300 299 298 301 301 302 302 302 297 294 293 291 289 288 288 287 287 286 285 285 285 287 287
311 311 310 310 309 308 307 307 304 302 302 302 301 301 302 305 302 301 299 299 299 301 301 299 300 296 296 297 293 291 290 288 288 288 287 286 285 285 284 284 285 286 286
302 301 303 304 303 302 302 302 302 302 301 299 298 297 301 299 298 299 299 300 300 298 296 298 300 300 294 291 291 290 288 288 287 286 285 285 284 284 284 285 286 286 285
302 301 299 300 301 303 303 305 305 304 301 296 295 296 297 297 298 300 300 298 297 298 299 298 293 290 291 291 289 289 288 287 286 285 285 284 283 283 285 286 286 286 285
298 300 299 299 300 299 300 302 300 298 296 294 295 297 300 300 301 301 298 300 299 299 296 290 290 291 290 288 287 286 286 286 286 285 284 283 283 284 285 286 285 284 284
296 296 296 297 297 297 298 297 295 297 299 299 300 300 299 300 299 299 299 300 296 290 289 290 290 289 287 287 286 285 284 284 283 283 283 283 283 284 285 284 283 283 284
296 296 295 295 295 295 297 298 299 298 298 299 299 300 299 299 299 299 295 290 289 289 290 289 288 287 286 285 284 284 283 283 283 283 283 284 284 283 282 282 281 282 282
298 297 297 296 296 297 300 300 299 299 299 299 299 299 300 298 292 290 290 290 290 290 289 287 287 286 285 284 283 283 283 283 283 283 283 283 282 281 281 281 282 283 283
300 299 299 299 298 299 300 301 299 299 299 300 300 299 292 290 290 289 289 290 289 287 286 286 286 285 284 283 283 283 283 283 283 283 282 281 281 281 281 283 284 284 284
302 302 302 301 301 301 300 299 298 298 300 299 293 290 289 289 289 289 289 288 287 287 287 286 284 283 283 283 283 283 283 283 282 282 281 281 281 282 284 284 284 284 284
302 301 302 301 301 301 301 300 300 299 298 293 292 290 289 289 289 290 289 288 287 286 285 284 283 282 282 282 282 282 282 281 280 281 280 281 282 283 284 284 284 284 285

GFSMW_850_thetae_057.txt.gz
Theta_e
317 317 317 318 318 318 321 322 321 320 320 326 337 336 335 336 337 336 335 334 335 333 331 331 328 328 329 328 328 327 325 324 320 310 311 310 308 306 304 303 302 301 301
315 317 317 318 318 318 318 320 320 320 319 320 326 333 334 334 333 334 335 335 334 333 332 331 329 329 329 329 329 328 325 324 319 310 311 308 307 306 304 303 302 301 300
313 314 314 315 317 318 318 318 319 319 319 319 319 326 333 334 333 332 332 332 332 333 333 331 329 330 330 330 330 328 326 325 320 311 311 309 309 305 304 303 302 301 300
312 314 313 313 313 314 317 317 318 317 317 318 319 320 322 328 331 332 330 331 330 331 331 330 329 329 330 330 329 327 326 325 319 311 311 311 310 306 303 302 301 300 300
311 313 314 314 314 314 313 314 315 315 316 316 319 319 320 326 331 330 331 329 329 329 329 329 329 329 330 330 328 326 325 325 317 311 311 310 309 307 303 300 300 299 298
310 312 314 314 314 314 314 314 314 315 315 315 315 316 320 322 329 331 332 331 329 328 328 328 327 327 328 329 329 325 323 322 317 313 309 309 307 307 303 300 299 297 297
312 312 311 313 313 314 314 314 314 314 314 314 314 314 316 320 321 323 329 331 330 327 327 327 327 328 327 328 326 323 323 319 317 310 308 307 304 304 299 298 297 296 296
313 313 313 312 312 312 312 313 313 313 313 313 313 313 313 314 317 321 321 326 329 328 326 326 327 326 326 325 323 318 321 318 309 305 304 305 301 300 298 296 295 294 294
314 313 312 312 313 312 312 313 312 312 312 312 312 312 312 312 313 317 321 324 326 327 327 325 326 326 323 322 320 316 313 311 308 305 305 300 299 298 296 296 294 293 291
314 313 313 313 312 313 312 312 312 312 312 312 311 310 310 312 313 313 320 323 324 324 325 325 325 324 321 319 316 310 308 306 304 301 302 299 297 296 296 296 294 292 290
315 314 313 313 313 312 311 312 311 311 311 311 311 311 311 313 313 313 316 324 324 325 324 325 323 322 320 315 312 308 305 303 300 300 303 298 301 295 294 293 292 291 290
314 314 312 313 314 314 312 311 311 310 310 310 310 313 314 314 314 315 321 324 325 324 323 322 321 318 312 309 306 303 302 303 305 304 300 299 296 295 294 291 290 289 288
313 314 312 313 313 313 313 313 312 311 310 311 313 316 316 316 317 320 321 322 321 321 321 320 315 307 305 301 300 302 302 303 301 299 303 302 295 293 291 290 289 288 287
312 312 312 313 312 312 313 312 312 311 312 315 317 318 318 319 320 319 319 318 319 320 317 311 307 303 300 300 300 301 298 297 300 299 300 297 294 290 289 288 287 287 287
307 310 311 312 312 312 312 312 312 312 313 313 315 315 316 315 315 314 315 314 313 312 308 304 299 299 299 298 297 298 302 301 296 292 292 290 289 289 288 287 286 287 287
305 310 311 311 312 310 310 310 310 309 309 310 309 309 309 308 310 310 309 308 307 302 299 299 300 299 300 301 301 300 297 293 290 289 290 289 288 287 286 285 285 285 286
300 303 307 306 306 308 308 307 306 305 305 307 305 302 301 303 301 301 300 299 298 298 299 301 299 301 301 301 300 297 293 291 290 289 289 287 286 285 285 284 284 285 285
301 301 301 302 302 302 303 305 305 305 304 302 301 300 299 299 299 298 298 298 299 299 300 300 300 300 299 295 292 291 289 289 288 287 286 285 285 284 283 284 285 285 285
301 300 299 302 301 301 301 302 303 304 302 303 303 302 300 299 298 299 300 300 300 300 301 300 300 296 290 290 290 289 288 287 286 286 285 284 283 283 284 285 285 285 285
298 299 298 299 299 298 299 300 299 299 300 298 298 298 297 299 299 300 300 300 299 300 301 297 289 289 289 288 288 286 286 286 285 284 283 283 283 283 285 286 285 284 283
296 296 297 297 296 297 297 297 296 296 295 295 296 297 298 298 300 300 299 299 299 295 290 289 289 289 287 286 286 285 284 284 284 283 283 284 283 284 284 283 283 282 283
296 296 296 296 295 295 295 297 297 296 296 297 298 298 298 298 299 299 297 291 290 290 289 289 288 287 286 285 284 283 283 283 283 283 283 283 283 282 282 281 281 282 283
297 296 295 297 296 297 298 297 296 297 298 298 299 298 298 297 292 290 290 290 290 289 288 287 286 285 285 284 284 284 283 283 283 283 283 282 281 281 281 282 283 284 284
299 298 299 298 298 298 299 299 299 299 299 299 298 297 292 290 290 289 289 289 288 287 286 286 286 285 285 284 283 283 283 283 283 282 282 281 281 281 282 284 284 284 284
302 302 302 301 300 300 300 300 300 299 299 297 293 291 290 289 289 289 289 289 288 287 287 286 284 284 283 283 282 282 282 282 282 282 281 281 281 283 284 284 284 284 285
302 302 301 301 301 300 299 299 299 299 297 293 291 290 289 289 289 290 288 287 287 286 285 284 284 283 282 282 281 282 281 281 281 281 281 281 283 283 284 284 284 285 285

GFSMW_850_thetae_060.txt.gz
Theta_e
317 317 317 317 317 317 317 318 319 321 321 322 325 330 334 335 334 334 335 333 334 333 332 329 329 328 326 326 327 327 327 326 324 321 316 310 310 309 307 304 303 302 302
315 316 316 316 316 317 317 318 318 318 320 320 321 321 323 331 332 333 332 332 333 332 331 331 330 329 327 327 328 328 327 326 323 322 315 309 309 309 308 305 303 303 302
310 312 312 313 313 314 316 317 318 317 318 318 319 319 321 326 333 332 332 332 331 332 331 331 330 329 329 328 328 328 328 327 325 323 315 310 311 308 307 305 304 303 303
309 310 311 313 313 313 313 314 316 317 316 317 317 318 319 320 321 324 328 331 331 330 330 331 329 328 330 329 329 329 328 327 324 323 319 311 310 308 307 306 305 303 302
312 311 311 313 313 313 313 313 314 316 317 316 316 317 318 320 322 322 328 330 330 330 329 328 328 327 329 329 329 329 328 327 325 324 321 311 310 309 307 304 305 302 301
313 312 311 312 312 313 313 313 313 313 314 315 315 315 315 317 319 320 323 329 329 330 330 329 327 327 327 327 328 328 327 327 325 324 317 310 311 309 306 304 303 301 300
314 313 312 312 311 312 312 313 313 313 314 314 314 314 314 314 315 318 322 327 330 329 330 329 328 327 326 327 327 327 326 325 323 321 314 313 308 306 306 303 301 300 299
314 314 313 312 312 312 312 312 312 312 312 313 313 313 313 313 314 315 317 320 321 325 327 329 329 327 326 326 327 325 324 323 321 316 310 311 306 304 302 302 299 298 297
315 314 313 313 313 314 313 312 312 312 312 312 312 312 312 312 312 312 312 315 319 322 325 326 328 328 326 326 325 324 322 319 316 311 309 304 305 306 299 299 297 296 295
316 315 314 313 313 314 314 312 312 312 312 312 312 312 311 310 310 310 311 312 313 320 324 324 326 326 327 324 324 322 319 312 308 306 302 303 299 300 300 297 298 298 293
315 315 314 313 312 313 314 314 311 311 312 311 310 310 310 310 310 311 312 313 313 317 324 325 325 325 323 322 320 317 311 304 302 301 301 298 298 298 300 299 295 294 293
314 313 313 313 313 313 313 313 312 312 311 310 310 310 310 311 314 314 314 316 317 319 325 324 321 320 320 319 313 308 302 301 302 300 298 300 303 301 297 296 294 291 290
311 311 311 311 313 312 312 312 312 311 311 310 310 311 312 316 316 316 316 317 317 320 320 319 319 318 316 311 305 303 302 299 298 299 302 301 301 299 296 294 292 289 288
307 310 311 311 311 311 312 312 312 312 312 311 311 312 314 314 314 316 316 315 315 317 316 316 314 310 306 303 301 298 298 300 301 300 300 302 301 296 293 288 288 287 287
305 308 309 309 310 310 310 311 311 310 311 311 311 313 313 312 312 313 312 311 309 311 311 311 306 302 300 300 301 301 298 298 300 300 300 299 291 288 288 287 286 286 285
303 307 307 307 309 310 308 307 309 308 308 310 310 310 310 309 308 309 309 307 303 301 302 302 303 302 299 298 297 297 300 300 301 296 289 288 287 287 286 285 285 285 285
302 304 305 303 307 305 305 304 304 302 302 303 304 304 305 306 305 302 300 301 301 302 300 298 298 299 299 299 300 300 301 299 290 289 288 287 286 286 286 285 285 284 285
301 301 301 302 304 303 303 303 301 300 300 299 299 301 301 302 301 298 297 296 295 297 298 299 299 299 300 300 300 294 290 289 288 288 287 286 286 285 284 284 285 285 285
300 299 300 301 302 302 302 303 302 301 300 298 298 298 300 301 300 298 297 298 299 299 299 300 300 299 298 294 290 288 288 287 287 286 286 284 284 284 284 285 285 285 285
298 299 299 300 300 300 300 300 301 300 299 298 299 299 298 299 298 298 298 298 298 299 299 299 294 290 290 288 288 289 287 286 286 285 284 283 283 284 285 285 284 283 282
297 297 298 298 298 299 297 296 296 295 295 295 296 296 298 298 298 299 298 298 298 298 294 290 289 288 287 287 287 286 285 284 284 283 283 284 283 284 283 283 282 281 283
296 296 296 296 296 296 295 296 295 295 296 297 297 298 298 298 298 298 297 293 290 289 289 288 288 287 286 285 284 284 283 283 283 283 283 283 282 282 281 281 282 282 283
296 295 295 296 295 297 297 297 297 296 297 298 298 298 298 296 291 290 290 290 289 289 288 287 287 286 285 284 284 284 283 283 283 283 282 282 282 281 281 283 284 284 284
298 298 298 299 298 299 298 298 297 298 298 298 298 294 290 289 289 289 290 289 288 287 286 286 285 285 284 284 284 283 283 283 282 282 281 281 281 281 283 284 284 284 284
300 301 301 300 300 299 299 299 298 299 299 296 291 290 289 289 289 289 289 287 287 286 286 285 285 284 283 283 282 282 282 282 281 281 281 281 281 283 284 284 284 285 285
301 301 301 300 300 300 300 300 299 298 294 292 290 289 289 289 289 289 288 287 287 286 285 285 284 283 282 282 281 281 281 281 280 280 281 281 283 284 284 284 285 285 285

GFSMW_850_thetae_063.txt.gz
Theta_e
316 316 317 317 316 316 317 317 318 320 324 326 328 328 331 332 332 332 332 332 333 333 332 331 326 322 327 327 324 326 327 327 326 324 322 321 314 309 309 308 305 304 303
313 314 315 316 316 315 316 317 317 317 318 321 322 322 325 330 330 331 331 330 331 332 332 331 331 327 326 327 326 325 327 327 326 324 322 315 312 309 309 309 307 304 303
309 310 311 312 313 314 315 315 316 317 317 317 319 320 322 324 323 323 327 329 329 330 331 331 331 331 329 329 328 326 327 327 326 325 321 315 313 311 310 309 308 306 305
310 310 311 311 312 312 312 313 315 315 317 317 317 317 319 320 320 321 321 325 326 330 331 331 330 329 329 330 329 327 327 328 327 325 324 322 317 310 309 309 308 306 305
312 311 311 312 312 312 312 312 312 313 315 316 316 316 317 317 318 319 320 320 322 326 331 331 329 328 329 328 329 329 327 327 327 327 326 321 318 312 310 308 309 308 305
313 312 312 311 312 312 312 312 312 312 312 313 314 314 315 316 317 318 319 319 321 322 328 331 331 330 327 327 327 328 328 327 327 326 326 324 322 321 316 308 307 306 304
314 313 313 312 312 311 312 312 312 312 312 312 313 313 314 315 316 316 317 319 320 322 322 328 329 329 329 328 326 327 328 327 326 326 325 323 321 318 311 312 304 303 302
315 315 314 313 313 313 313 311 311 312 312 312 312 312 312 313 313 314 315 317 319 320 323 324 325 327 328 328 327 326 327 327 326 323 321 319 317 310 309 304 306 299 299
315 315 315 314 314 314 314 314 313 312 312 312 312 311 311 311 312 312 312 312 313 315 318 322 324 327 327 328 327 327 326 325 323 321 318 314 306 305 306 305 297 298 297
315 314 314 314 312 312 313 314 314 314 312 312 312 312 311 311 311 310 310 310 310 311 313 315 320 324 326 327 327 326 324 323 321 318 313 306 302 300 299 298 299 298 301
314 313 312 312 313 313 313 313 313 313 311 311 311 311 310 310 310 311 311 311 311 311 313 315 317 324 323 324 324 324 323 320 316 309 304 300 299 299 297 298 300 303 301
312 312 312 312 312 313 312 311 312 312 311 311 310 310 310 310 310 310 310 311 312 313 316 319 319 322 322 321 321 320 317 312 305 300 298 298 299 299 301 301 301 303 297
311 311 312 312 311 311 311 312 311 311 312 312 311 311 311 310 310 312 314 314 315 317 316 317 317 318 318 319 316 312 309 302 298 298 299 300 300 301 301 300 298 295 289
308 310 311 310 310 310 310 310 309 309 309 310 311 311 311 311 311 312 313 313 314 314 315 315 316 314 312 309 308 303 300 298 300 301 301 302 301 300 299 296 291 289 288
307 307 308 307 307 306 306 307 308 307 307 308 310 310 310 310 310 310 310 310 310 310 309 310 310 307 304 301 300 299 300 300 300 301 300 300 300 295 289 288 287 286 286
304 305 303 304 304 303 305 305 307 307 305 305 307 308 308 308 307 307 306 304 304 304 302 302 299 297 299 298 298 299 301 301 300 300 299 295 288 287 286 285 285 284 284
303 302 301 303 303 304 303 305 304 306 306 304 304 302 302 304 305 304 302 303 301 300 299 296 297 298 300 300 300 300 300 300 299 291 288 287 286 286 285 285 284 284 284
301 302 300 302 302 303 303 304 304 305 304 302 300 299 299 300 300 299 299 300 298 298 298 298 298 298 298 298 299 300 297 289 287 287 286 286 285 285 285 284 285 285 285
301 300 300 301 302 302 302 303 304 303 303 301 299 298 298 298 298 299 298 296 297 297 297 297 297 298 298 295 292 289 288 287 287 286 285 285 285 284 285 286 285 285 284
299 300 300 300 299 299 299 300 301 300 300 300 299 298 298 297 297 296 296 297 297 297 297 297 297 294 290 290 289 287 286 286 285 284 284 284 284 284 285 285 284 283 282
298 299 298 298 297 297 297 298 297 297 297 298 298 298 297 297 297 297 297 298 298 298 293 289 289 289 288 287 286 285 285 284 284 284 284 283 283 283 282 282 282 282 284
298 297 298 297 296 297 297 297 298 297 297 298 297 297 297 298 297 298 296 290 290 289 289 288 288 287 286 285 284 283 284 283 283 283 283 282 282 282 282 282 283 284 285
297 297 297 296 298 298 297 298 296 297 297 297 298 298 298 294 290 290 290 290 289 288 288 287 286 285 284 284 284 284 283 283 283 282 282 282 282 282 282 284 284 285 285
298 297 298 298 299 299 298 299 298 298 298 299 298 293 290 290 290 290 289 288 287 287 286 286 285 285 284 283 283 283 283 282 282 282 281 281 281 282 284 284 284 284 285
301 301 300 300 300 300 300 299 299 299 298 294 290 290 289 289 290 290 289 287 287 286 286 285 284 283 283 283 282 282 282 281 281 281 281 281 282 284 284 284 285 285 285
302 302 302 301 301 300 300 299 299 298 293 291 290 289 289 290 290 288 287 287 287 286 285 284 283 283 282 282 281 281 281 281 281 281 281 281 283 284 284 285 285 285 285

GFSMW_850_thetae_066.txt.gz
Theta_e
316 315 316 316 316 316 317 318 318 318 324 328 330 337 335 329 328 331 334 334 333 332 333 333 332 331 326 326 328 327 325 325 326 327 325 324 322 321 315 309 308 308 306
313 313 315 315 316 316 316 316 317 317 317 329 322 327 334 334 330 331 330 331 329 330 331 332 332 331 329 325 326 328 327 325 326 327 319 316 317 321 317 310 309 308 307
310 310 311 313 314 315 316 316 316 317 317 317 327 328 326 326 326 327 328 330 331 331 331 331 331 331 331 328 323 326 327 325 326 327 322 318 319 314 317 314 309 308 307
311 311 311 311 311 311 312 313 314 315 316 316 321 329 325 323 322 322 324 326 325 328 331 330 331 331 330 330 329 327 327 327 325 326 326 325 319 314 311 312 310 308 306
312 312 311 311 311 311 312 312 312 313 314 314 315 323 328 328 322 322 321 321 321 321 326 328 330 331 331 330 329 328 328 328 326 326 327 325 324 322 317 312 313 310 307
314 313 312 312 312 312 312 312 312 311 312 313 314 315 324 327 328 327 325 319 319 319 321 323 326 329 331 330 329 329 329 328 328 326 326 327 326 325 322 318 311 309 307
315 314 313 313 313 313 312 312 312 312 311 311 312 313 313 319 326 325 327 325 326 321 320 321 323 324 326 329 329 329 328 328 328 328 326 326 326 323 322 318 314 309 306
315 315 315 315 314 314 314 313 312 312 312 312 312 312 312 312 313 314 320 324 324 319 319 322 325 328 328 327 326 328 328 327 327 328 326 326 324 321 318 312 310 306 306
314 314 315 315 315 315 315 315 314 314 313 312 312 311 311 311 312 312 312 313 314 315 315 317 319 322 326 327 327 327 328 327 326 326 325 320 320 318 314 310 307 303 303
314 313 312 313 314 314 314 314 314 314 314 313 312 311 312 311 311 311 311 311 310 310 311 311 312 314 317 322 324 325 326 325 324 324 323 316 315 312 309 309 303 300 298
313 311 311 311 312 313 313 312 312 312 312 312 311 311 311 311 310 310 310 310 311 311 311 311 312 314 319 322 323 323 324 323 322 320 316 316 313 305 303 298 298 300 300
309 310 311 311 311 311 310 311 311 311 312 311 311 311 311 311 310 310 310 310 310 310 311 312 314 316 317 320 319 319 320 319 318 317 313 311 301 298 298 300 301 302 302
308 308 308 309 310 310 310 310 310 310 310 311 311 311 311 311 311 311 310 311 311 312 313 315 315 316 316 317 317 316 316 313 309 305 302 298 297 299 302 302 302 300 300
307 307 306 308 308 308 308 308 308 308 309 310 310 311 311 310 311 310 311 311 313 313 313 312 313 314 314 314 314 311 310 305 300 297 297 299 301 302 301 300 300 297 290
306 304 306 305 307 305 305 307 308 308 307 308 309 309 309 309 310 310 310 310 310 311 310 310 310 309 308 306 304 300 300 299 298 300 301 301 301 299 300 294 289 287 286
304 303 305 304 306 305 305 306 305 305 306 305 306 307 307 306 308 308 306 305 305 304 304 303 299 297 296 296 297 297 299 300 300 301 301 300 299 289 287 287 286 286 285
303 302 303 303 304 303 304 303 304 303 302 303 304 304 305 304 303 303 303 303 302 301 300 297 297 296 298 297 298 298 299 300 299 300 297 290 287 286 286 286 285 284 284
301 300 301 302 302 302 302 303 302 301 302 303 302 302 303 303 302 301 301 300 298 298 297 297 297 297 296 298 298 298 299 295 291 289 288 287 286 285 285 285 285 286 286
299 300 300 301 302 301 301 301 301 301 302 303 302 301 301 300 299 299 298 298 297 297 297 297 297 297 297 297 294 290 289 288 287 286 286 286 285 284 285 286 286 285 284
298 300 300 300 299 300 300 300 300 300 301 302 301 300 299 298 297 297 297 297 297 296 296 296 297 292 289 287 287 287 286 285 285 285 285 284 284 284 285 284 284 283 283
299 299 299 297 298 298 298 298 298 300 300 300 299 298 298 298 297 297 297 297 297 297 294 290 289 288 288 287 285 285 285 285 285 284 284 283 283 283 282 282 282 283 284
299 297 297 297 297 298 297 297 299 299 299 299 299 298 297 297 297 297 293 291 290 289 288 287 287 286 285 284 284 284 284 284 283 283 283 283 282 282 282 282 283 284 285
297 297 297 297 298 297 297 298 299 298 299 299 298 297 297 295 290 290 290 289 288 287 287 286 285 285 285 284 284 284 283 283 283 282 282 282 282 282 282 284 285 285 285
297 298 298 299 298 297 298 298 297 297 297 297 297 293 290 290 290 290 289 288 287 286 286 286 285 285 284 283 283 283 283 282 282 282 281 281 282 282 284 285 285 285 285
299 299 299 299 300 300 299 299 299 298 298 295 290 290 290 290 290 289 288 287 287 287 286 285 284 283 283 283 282 282 282 282 281 281 281 281 282 284 285 285 285 285 285
302 301 300 301 301 301 300 300 299 298 294 291 290 290 290 290 289 288 288 287 287 286 285 284 284 283 282 282 282 281 281 281 281 281 281 282 283 284 285 285 285 285 285

GFSMW_850_thetae_069.txt.gz
Theta_e
317 317 317 318 318 319 319 321 321 322 331 336 337 331 335 334 335 337 338 337 335 334 334 333 332 332 331 330 331 329 327 324 324 322 319 321 324 324 323 321 315 310 310
316 316 316 315 316 317 317 318 319 320 321 328 333 330 325 328 332 333 332 332 335 333 331 333 333 332 332 331 330 331 329 325 324 323 321 320 320 323 323 321 317 310 309
314 314 313 313 313 314 315 316 317 318 319 319 325 332 331 335 331 327 331 332 332 335 334 331 332 333 332 332 331 329 330 326 326 325 324 321 320 320 317 319 318 310 308
313 313 313 313 312 312 313 315 315 316 317 317 319 324 331 333 332 331 329 330 331 329 330 333 333 332 332 332 331 330 328 326 326 326 325 324 322 320 314 314 313 310 307
314 314 314 314 313 311 312 312 312 313 314 315 316 319 325 329 331 331 332 331 330 325 325 327 328 330 331 331 332 331 329 328 325 326 326 325 324 322 316 314 314 309 308
315 314 315 315 316 312 312 311 311 311 311 312 313 314 318 326 329 329 330 331 332 331 329 323 321 323 327 330 329 327 329 329 326 325 326 327 325 325 324 319 315 315 312
317 316 316 315 315 314 313 313 312 312 311 311 311 312 313 318 325 328 329 329 330 329 331 327 323 323 324 331 330 328 327 328 328 326 326 327 326 324 324 323 318 313 311
317 317 317 316 315 315 315 314 313 313 312 311 311 311 312 313 316 322 326 328 328 329 328 325 322 320 322 326 331 330 329 329 327 326 324 324 325 324 323 319 316 312 309
317 316 316 316 315 315 314 314 314 314 314 313 312 312 312 311 311 312 315 321 323 326 326 324 321 318 322 324 324 328 327 326 325 324 322 323 323 321 319 319 316 307 306
316 315 314 314 314 313 313 313 313 313 313 313 313 312 311 311 311 311 311 312 314 315 313 312 313 313 314 318 324 324 323 321 321 321 321 321 320 319 315 310 314 312 306
315 314 313 313 312 311 312 311 312 312 312 311 311 311 311 311 311 311 311 310 310 311 311 311 311 311 312 313 316 320 319 319 319 318 318 317 317 317 311 308 305 306 303
312 313 313 311 310 309 309 310 311 310 311 311 311 311 311 311 311 311 310 310 310 310 310 311 311 311 312 313 315 316 316 317 317 316 315 314 312 308 307 305 300 300 301
311 311 310 309 308 307 309 309 309 309 309 309 309 310 311 310 310 310 310 310 311 311 311 312 312 312 313 313 313 314 315 315 314 311 309 308 305 304 297 299 300 302 302
310 310 309 307 306 308 307 307 307 308 308 308 309 310 310 310 310 310 310 310 310 310 311 311 311 311 312 312 312 311 310 309 306 304 300 299 299 299 300 301 302 300 299
310 308 307 306 305 304 305 306 307 307 307 307 308 308 309 309 309 309 309 310 310 310 310 309 309 309 307 305 304 304 301 301 300 298 296 298 300 301 301 300 300 296 289
307 305 304 304 304 303 305 305 305 305 305 305 307 307 307 307 308 308 308 308 307 306 305 304 303 301 300 297 297 297 297 297 297 299 299 299 299 299 299 292 289 288 287
306 304 303 303 303 302 304 303 305 304 304 305 305 304 303 304 305 303 303 303 302 301 300 299 299 299 298 297 298 298 298 298 299 298 297 296 291 289 288 287 286 286 285
304 303 302 302 303 301 304 304 304 304 303 302 301 302 302 303 303 301 300 300 300 299 298 298 298 297 297 297 298 297 298 298 297 293 291 288 286 286 286 286 286 286 286
302 301 301 301 303 301 303 303 303 302 302 301 300 300 301 300 300 299 299 299 298 297 297 297 297 297 297 297 298 295 290 288 287 286 285 286 286 285 285 285 286 286 286
301 299 301 301 301 301 301 301 301 302 302 300 300 299 299 299 299 299 297 297 297 297 297 297 293 289 289 288 288 287 286 286 285 285 285 285 284 284 284 284 284 284 283
300 300 300 300 300 299 299 300 300 301 300 299 298 298 298 299 299 298 297 297 296 295 290 289 289 289 288 287 287 286 286 285 285 284 284 284 284 284 284 284 283 283 283
298 299 299 299 298 298 297 298 299 299 299 298 299 298 298 298 298 297 295 291 289 289 288 288 287 287 287 286 286 285 285 284 284 283 283 283 283 283 283 282 283 284 286
298 299 298 297 298 297 296 298 299 299 297 298 298 298 297 294 290 290 290 289 288 288 287 287 286 286 285 285 284 284 283 283 283 283 282 282 282 282 282 283 285 285 286
298 297 296 297 297 297 297 299 298 298 298 297 298 295 290 290 290 290 288 288 288 287 287 286 285 285 284 284 284 284 284 283 283 282 282 282 282 282 283 285 285 286 286
298 298 297 298 298 298 297 297 297 297 297 297 292 290 290 290 290 289 288 288 288 287 286 286 285 284 284 284 283 282 282 282 282 281 281 281 282 283 284 285 285 286 286
299 299 299 299 299 298 297 298 298 298 296 291 290 290 290 290 289 289 288 288 287 287 286 285 285 284 284 283 283 282 282 281 281 281 281 281 282 284 284 285 285 286 286

GFSMW_850_thetae_072.txt.gz
Theta_e
318 318 317 317 317 318 321 323 324 330 338 340 340 337 336 338 339 339 337 337 336 335 334 333 332 332 331 330 331 330 329 327 326 324 321 319 319 322 324 324 322 320 317
317 317 317 317 317 318 318 319 321 321 322 331 336 336 334 332 331 335 337 336 336 334 333 333 333 333 332 331 331 331 330 329 327 324 322 319 318 321 324 324 323 321 319
315 315 315 314 314 315 316 317 317 319 320 320 325 329 332 331 328 323 325 332 336 334 333 331 331 331 332 332 332 331 331 329 328 326 323 319 321 322 322 322 322 320 318
314 313 313 313 313 313 313 315 316 317 317 318 319 321 326 330 326 324 325 324 323 326 331 330 330 332 332 333 331 331 330 329 328 326 325 322 322 322 320 319 318 317 315
314 314 314 314 313 311 311 312 313 315 316 317 318 318 320 324 333 332 332 331 327 324 325 326 329 331 331 332 332 332 332 329 328 329 328 324 323 321 320 319 318 314 314
314 314 315 316 315 313 312 312 312 311 311 312 314 315 317 318 322 328 331 330 328 330 331 331 331 329 332 334 333 332 332 330 329 328 329 328 325 323 320 316 317 315 312
315 315 315 315 315 314 314 314 313 313 312 311 311 311 312 313 318 326 329 329 329 329 330 329 328 330 330 330 331 330 328 329 329 329 329 326 325 323 323 321 317 315 311
317 317 317 316 315 315 315 314 313 313 312 312 312 312 312 312 313 320 324 326 328 329 329 328 327 328 330 329 329 325 325 326 326 326 326 325 324 322 321 320 320 315 310
317 316 315 315 315 315 315 314 314 314 314 313 313 312 312 311 311 312 315 320 323 326 327 327 326 323 326 326 325 323 323 323 324 324 324 323 322 321 321 320 319 315 310
316 315 314 314 314 314 313 312 313 313 313 313 313 313 312 312 312 311 312 313 315 318 319 320 318 315 318 318 318 321 319 320 320 321 320 320 320 319 319 317 315 310 308
315 314 314 314 313 311 311 311 311 311 311 311 311 311 312 311 311 311 311 311 311 311 311 311 311 311 311 311 312 312 315 316 316 316 317 317 317 316 315 312 310 309 308
314 313 314 312 311 310 310 310 310 310 310 310 311 310 310 311 311 311 311 310 310 310 310 310 310 311 311 311 310 311 313 313 313 314 314 314 313 310 308 307 307 305 306
312 312 311 310 309 308 309 309 308 308 308 309 309 310 310 310 310 310 310 310 310 310 310 310 310 310 310 311 311 312 312 311 312 312 311 309 308 306 304 301 300 301 301
312 311 310 308 308 308 307 307 308 308 308 308 309 309 309 309 309 309 309 310 310 310 310 310 309 310 310 310 311 311 310 309 307 305 303 302 301 299 299 300 300 300 301
311 310 309 307 306 305 305 306 307 307 307 307 307 308 308 309 309 309 308 309 309 309 308 308 308 308 307 306 305 306 305 303 302 300 298 298 298 299 299 299 298 295 293
310 308 307 306 304 304 305 306 307 307 306 306 306 306 307 307 308 308 308 307 306 305 305 305 304 303 302 301 301 299 300 298 297 297 298 299 297 297 299 296 290 287 287
309 306 305 304 304 304 304 305 306 306 306 305 304 304 305 306 307 307 303 302 302 301 301 301 300 300 298 298 298 298 298 299 299 298 297 298 299 297 292 286 286 286 285
307 305 304 304 303 303 303 304 304 304 305 304 303 304 304 304 303 301 300 300 299 300 300 300 299 299 298 298 298 297 298 298 298 297 293 289 287 286 285 286 286 287 286
305 303 303 302 302 302 303 304 304 304 303 303 302 303 302 301 300 299 298 299 299 299 299 299 298 298 297 297 295 291 288 287 287 287 286 286 286 286 285 285 286 286 285
303 303 302 302 303 303 302 303 302 302 303 301 301 301 300 299 298 298 298 298 298 299 298 294 290 289 289 288 288 287 287 287 287 286 286 285 284 284 284 284 284 284 284
302 302 302 300 301 301 301 301 301 301 301 300 299 299 298 298 298 297 297 297 295 291 290 290 289 289 288 287 287 286 286 285 284 284 284 284 284 283 283 283 283 283 283
302 301 300 301 300 300 300 300 300 301 300 299 298 298 298 298 297 296 294 290 289 289 288 288 287 287 287 286 286 285 285 284 284 284 283 283 283 282 282 282 283 284 286
302 300 300 299 299 299 299 298 300 300 298 298 298 298 298 296 292 291 290 289 288 288 288 287 287 287 286 285 285 285 284 284 283 283 283 282 282 282 283 283 285 286 286
301 300 298 298 298 299 298 298 299 299 298 298 296 297 292 290 290 290 289 288 288 288 288 287 287 286 285 285 285 284 283 283 283 282 282 282 282 282 283 285 285 286 286
301 299 297 298 299 298 299 299 298 298 297 297 296 291 291 290 290 289 289 289 288 288 287 286 286 285 285 285 284 283 283 282 282 282 282 282 282 283 284 285 285 286 286
302 300 298 299 299 299 298 298 298 297 296 297 291 291 291 291 290 289 289 288 288 288 287 287 286 285 285 284 283 283 282 282 282 282 282 282 282 283 285 285 285 285 286

GFSMW_850_thetae_075.txt.gz
Theta_e
318 317 318 318 318 321 323 326 332 339 340 339 337 337 339 338 337 338 336 335 335 334 333 333 332 331 331 330 330 331 331 329 327 327 327 324 322 321 320 320 320 321 322
316 317 317 317 317 317 318 320 323 323 330 331 337 336 337 337 337 337 336 336 335 334 334 333 332 331 332 332 331 331 331 331 329 327 326 323 322 321 321 320 321 321 320
316 315 315 316 317 317 318 318 319 322 321 323 325 330 333 333 334 332 332 334 334 332 333 334 334 333 333 332 332 331 331 329 330 329 327 322 322 322 322 322 321 321 320
315 314 314 315 315 315 316 316 317 317 319 320 320 321 323 326 327 327 328 326 327 330 330 331 332 333 333 333 332 331 329 328 328 329 328 326 324 322 322 322 322 320 318
314 313 313 314 314 313 313 313 313 315 316 317 318 319 319 322 329 331 332 330 329 329 327 325 325 329 332 331 331 331 331 329 329 329 329 327 326 324 322 321 322 320 319
314 314 314 313 312 312 312 312 312 312 314 316 317 317 318 318 319 320 329 332 332 331 329 326 331 332 330 330 330 329 330 329 329 329 329 328 326 325 322 320 320 318 315
314 314 315 315 314 314 313 313 313 312 311 311 312 314 315 316 316 317 321 327 329 329 329 329 328 328 328 326 327 329 327 326 327 327 329 327 327 327 325 322 318 317 316
315 315 315 315 315 314 314 314 313 313 312 312 312 312 311 311 312 313 315 324 327 328 327 327 328 329 327 326 325 324 324 324 324 324 325 325 326 325 325 323 321 317 314
317 316 316 315 315 315 315 314 314 314 314 313 313 312 311 311 312 312 313 318 323 325 326 327 327 327 324 325 319 322 321 322 322 322 322 323 323 324 324 322 318 318 314
316 315 314 315 315 314 314 313 313 313 313 313 313 313 313 312 313 312 312 313 315 318 320 320 321 323 322 318 314 313 314 314 319 318 318 318 320 321 320 319 318 315 312
315 314 314 314 314 313 312 312 312 312 311 311 312 312 312 312 312 311 311 311 311 312 313 313 312 311 311 310 311 311 311 311 313 314 314 314 315 315 316 316 315 311 309
314 314 314 314 312 311 311 310 310 310 310 310 310 311 311 311 311 311 311 311 311 310 310 310 310 310 310 310 310 310 311 310 311 311 312 312 312 313 312 311 310 308 306
314 313 313 311 311 310 309 309 308 308 309 309 309 309 310 309 309 309 309 309 309 310 310 310 310 309 310 310 310 310 310 311 311 311 311 310 309 307 305 304 302 302 302
313 312 311 310 309 309 308 308 307 307 308 308 308 309 309 309 309 309 309 309 309 309 309 309 309 309 309 308 309 309 310 309 310 309 308 306 304 303 300 300 300 300 300
312 311 310 309 308 308 307 306 306 306 307 307 307 308 308 308 308 308 308 308 309 309 309 308 307 307 308 306 307 306 306 306 305 304 303 302 301 300 299 299 298 298 298
312 310 309 309 308 306 306 306 306 306 306 306 306 306 307 307 307 308 307 307 306 306 306 306 304 303 303 302 300 300 300 300 300 299 299 300 299 299 298 298 298 298 290
312 310 309 308 307 305 305 305 305 305 305 305 305 305 305 306 306 305 304 304 304 304 302 301 300 300 299 298 298 298 299 299 298 298 298 298 297 297 295 289 286 285 286
312 310 308 306 305 304 304 304 304 304 304 304 304 304 305 304 304 303 302 302 302 301 299 299 300 300 298 298 298 297 298 298 298 296 293 290 288 286 286 286 286 287 287
310 308 306 305 304 303 303 303 303 303 303 304 304 304 303 303 302 301 301 301 300 299 298 298 298 298 297 295 292 289 289 288 288 287 287 286 286 286 285 285 285 285 285
308 307 305 304 303 303 303 303 303 303 303 303 302 302 301 301 300 300 300 299 298 298 296 291 290 289 289 288 288 288 288 287 287 286 285 284 284 284 284 283 283 284 284
305 303 302 302 302 302 302 302 302 301 302 302 301 301 300 299 299 299 298 298 294 291 290 290 289 288 288 287 287 286 286 285 285 284 284 284 284 283 283 283 283 283 283
305 303 302 302 302 301 301 301 301 301 302 301 300 300 300 299 299 297 293 290 289 289 289 288 288 288 287 286 286 286 285 285 284 284 283 283 283 283 283 283 283 283 285
304 303 302 301 301 300 300 300 300 301 301 300 299 299 299 298 295 292 290 289 289 288 288 288 287 287 286 286 286 285 284 284 284 283 283 283 282 282 283 283 284 285 285
304 302 301 300 300 300 299 299 299 300 299 299 299 299 298 293 290 289 289 289 289 288 288 287 287 286 286 286 285 284 284 283 283 283 282 282 282 282 283 284 285 285 285
304 302 301 300 300 299 299 298 299 300 299 298 298 297 292 291 291 290 289 289 288 288 287 287 286 286 286 285 285 284 283 283 283 283 282 282 282 282 283 285 285 285 286
304 302 301 300 300 300 299 299 299 299 299 298 298 293 291 291 290 289 289 289 288 288 287 286 286 286 286 285 285 284 283 283 283 283 282 282 282 282 284 285 285 285 286

GFSMW_850_thetae_078.txt.gz
Theta_e
319 319 318 319 319 323 327 331 335 338 338 337 338 340 339 339 338 337 335 335 336 334 333 332 331 330 329 329 329 330 331 331 330 327 327 327 327 327 325 323 321 320 320
317 318 318 318 319 318 321 323 327 332 333 337 336 338 338 338 339 338 337 335 335 334 335 334 333 333 332 331 331 331 331 331 331 330 328 327 327 327 326 324 322 321 319
316 315 317 317 317 318 319 319 321 323 324 327 333 332 334 337 337 337 337 336 334 333 334 333 332 333 333 333 333 332 332 331 331 331 328 326 326 326 325 325 323 321 319
316 315 315 315 316 316 317 317 318 319 320 321 321 323 328 328 327 331 332 332 331 330 330 331 332 333 333 333 333 332 332 332 331 330 329 328 328 325 324 325 323 322 319
315 315 315 314 314 315 315 316 317 317 318 318 318 319 319 321 322 325 326 328 330 329 328 330 330 329 330 330 331 332 330 329 329 329 328 328 328 327 324 323 324 323 321
313 313 314 314 314 314 314 314 314 314 314 315 316 316 317 318 320 321 321 322 322 327 331 330 328 326 322 327 328 331 330 327 328 329 330 328 327 326 326 325 324 323 322
313 314 314 314 313 312 312 312 312 312 311 312 313 315 315 316 317 317 318 318 320 325 326 329 328 326 328 328 327 326 326 326 325 325 326 325 325 325 325 323 323 322 320
314 314 314 315 314 313 313 313 313 312 312 311 311 311 311 312 313 314 314 314 317 326 328 329 328 327 326 327 326 324 324 323 323 323 322 322 322 322 323 322 321 320 319
314 314 315 315 314 314 314 314 313 313 313 312 312 311 311 311 311 311 311 312 315 321 326 327 326 326 326 324 324 324 321 318 320 320 320 320 320 320 321 322 321 319 316
316 316 316 315 315 315 315 314 314 313 313 313 313 313 313 312 312 312 312 312 313 316 319 322 323 324 324 323 321 321 314 312 313 316 313 317 316 316 315 316 318 318 315
316 315 315 314 314 314 313 312 312 312 312 312 312 312 312 312 312 312 312 312 312 312 313 315 316 316 315 314 313 311 311 311 311 311 310 312 312 313 312 313 313 313 312
315 314 314 313 313 312 311 311 311 310 310 310 310 310 311 311 311 311 311 311 311 311 311 311 310 310 310 310 310 310 310 310 310 310 310 310 310 310 311 311 311 309 308
314 314 313 313 312 311 310 309 309 309 308 308 308 309 309 310 309 309 309 309 309 309 309 309 309 309 309 309 309 310 310 310 310 310 310 310 310 310 309 309 308 307 305
314 313 313 313 311 310 309 309 308 308 307 307 308 308 308 309 309 308 309 309 309 309 309 309 309 309 309 309 309 309 309 309 309 309 309 308 308 306 305 303 302 302 301
313 313 313 311 310 309 308 308 307 307 307 307 307 307 308 308 308 308 308 308 308 309 309 309 309 308 308 308 308 307 307 306 306 306 305 304 303 302 301 301 301 301 301
313 312 312 311 310 309 308 307 306 306 306 306 306 306 306 307 307 307 307 308 308 307 307 306 306 305 306 305 304 302 302 303 301 301 301 300 300 300 298 299 299 298 298
313 313 312 311 310 309 307 306 306 306 305 305 305 305 305 306 307 307 306 305 305 304 303 303 303 303 302 300 301 301 300 300 299 300 299 299 297 298 297 294 291 288 287
313 312 311 310 308 307 306 305 305 305 305 304 304 304 304 305 305 304 303 302 302 301 302 302 302 302 301 300 300 298 298 297 296 295 293 290 288 288 288 287 287 287 287
314 313 310 309 307 306 305 305 304 304 303 303 303 304 304 304 303 302 301 301 300 300 301 300 299 297 295 292 289 289 289 288 288 288 287 287 286 286 286 285 285 285 285
311 310 308 306 305 304 304 303 303 303 303 303 303 303 303 301 301 300 300 300 299 300 297 292 290 290 289 289 288 288 287 287 286 286 286 285 285 285 284 284 284 284 284
310 308 306 306 304 303 303 303 303 302 302 302 302 302 301 300 300 299 299 299 298 292 290 290 289 289 288 288 287 286 286 286 285 285 285 284 284 284 283 283 283 283 283
308 306 305 304 303 302 302 302 302 302 301 301 301 301 300 299 299 298 298 293 290 290 289 289 288 288 287 287 286 286 285 285 285 284 284 284 283 283 283 283 282 283 283
306 305 304 302 302 302 302 301 301 301 301 301 300 300 299 299 298 296 292 290 290 289 289 288 288 287 287 287 286 285 285 284 284 284 283 283 283 283 282 283 283 284 285
305 305 303 302 302 301 301 300 299 300 300 300 299 299 299 298 295 291 290 289 289 289 288 288 287 287 287 286 286 285 285 284 284 284 283 283 283 283 283 283 284 285 285
306 305 303 302 301 301 300 300 299 300 300 299 299 299 298 295 291 290 289 289 289 288 288 287 287 287 286 286 286 285 285 284 284 283 283 283 283 283 283 283 285 285 285
306 305 303 302 300 300 300 300 299 299 299 298 298 299 297 291 291 290 290 289 289 288 288 287 287 287 286 286 286 286 285 284 284 284 283 283 282 282 282 284 285 285 285

GFSMW_850_thetae_081.txt.gz
Theta_e
319 318 319 321 322 326 329 335 338 339 341 340 339 338 338 337 337 336 335 335 336 335 334 332 331 331 330 330 329 329 329 329 330 331 330 329 328 327 327 327 327 326 325
318 319 319 318 319 322 324 327 334 337 338 339 339 339 339 338 338 338 337 336 335 334 334 333 333 333 333 332 331 330 329 329 330 331 330 329 328 327 327 326 326 326 325
318 318 318 318 318 318 321 322 325 328 332 332 334 335 336 338 338 339 338 335 333 334 334 334 334 334 334 334 333 332 331 331 331 331 330 326 326 326 326 326 325 325 324
316 315 316 316 317 317 319 319 322 324 325 324 325 330 335 335 334 335 335 334 334 332 333 332 332 333 334 334 334 332 332 331 330 329 329 328 326 326 326 326 325 325 324
315 315 315 315 315 316 317 317 317 318 320 320 321 321 322 322 324 326 328 330 333 333 334 333 331 328 329 330 329 330 332 329 328 328 327 328 328 328 327 323 325 325 324
315 314 314 314 315 315 315 315 315 316 316 316 316 317 318 318 319 320 322 324 325 325 326 328 328 329 329 327 325 327 327 327 328 329 327 327 326 327 326 326 324 323 322
314 314 314 314 314 314 314 314 314 313 314 314 314 313 314 315 316 316 318 319 319 320 321 323 328 325 327 326 324 325 326 325 323 323 324 323 324 323 324 325 323 322 322
313 313 314 314 314 313 313 312 312 312 311 311 311 311 312 312 313 314 315 315 316 316 316 318 324 328 327 326 325 325 324 324 323 322 322 321 321 320 320 320 320 319 317
313 314 314 314 314 313 313 313 313 313 312 312 312 311 311 311 311 311 311 311 312 313 316 322 328 328 328 326 324 323 322 322 322 320 316 318 318 318 319 319 317 316 316
314 315 314 314 314 314 314 314 314 313 313 313 313 313 313 312 312 311 311 311 312 313 316 321 324 326 326 324 324 322 321 319 319 313 314 315 317 315 316 313 314 313 314
314 314 315 314 314 314 314 314 313 313 313 313 312 312 312 312 312 312 312 312 312 312 314 316 319 320 321 321 321 321 319 315 311 311 311 311 310 311 310 310 311 311 311
315 315 315 315 314 314 313 312 312 311 311 311 311 310 310 311 311 311 311 311 311 311 312 312 313 313 312 311 310 309 309 310 310 310 310 310 309 310 310 310 310 310 310
315 314 314 314 313 313 312 311 310 310 309 309 309 309 309 309 309 309 309 310 310 310 310 310 310 310 309 309 309 309 309 309 310 309 309 309 309 309 309 307 306 306 307
315 314 314 313 313 312 311 310 309 309 308 308 307 308 308 308 308 308 308 308 308 309 309 309 309 309 309 309 309 309 309 309 309 309 308 307 307 306 304 304 303 303 303
314 314 314 313 313 311 310 309 308 308 307 307 307 307 307 308 308 308 308 308 308 308 308 308 308 308 308 308 308 308 308 308 308 306 305 304 303 301 301 301 301 300 301
314 314 313 313 312 311 310 309 308 307 307 307 306 306 306 306 306 306 306 306 307 307 307 307 306 306 306 307 306 304 305 305 303 302 302 302 301 300 299 299 299 298 298
313 313 313 313 312 310 309 308 307 306 306 306 305 305 305 306 306 305 306 306 306 305 304 304 303 303 302 301 302 302 302 301 300 300 300 299 299 297 296 294 291 289 288
312 312 312 312 311 309 308 307 306 306 305 305 305 304 305 305 305 305 304 304 303 303 302 302 302 301 301 301 300 299 296 293 292 291 290 289 288 288 287 287 287 287 287
311 312 313 312 311 309 307 306 305 305 305 304 304 304 304 304 304 304 302 301 301 301 301 301 300 299 295 290 290 289 289 289 289 288 288 287 287 286 286 285 285 285 285
313 313 313 311 309 307 306 305 304 304 304 303 303 303 304 303 303 302 301 301 300 300 299 296 292 290 290 289 289 288 288 288 287 287 287 286 285 285 284 284 284 284 284
311 311 310 309 308 306 305 304 304 304 303 303 303 303 303 302 301 301 300 299 299 296 291 290 290 289 289 288 288 287 287 287 287 286 286 285 285 284 284 284 284 284 284
310 309 308 307 305 304 303 303 303 303 302 302 302 302 302 301 300 299 298 298 294 290 290 289 289 288 288 288 288 287 287 286 286 286 285 285 284 284 284 283 283 283 284
308 307 306 305 304 303 302 302 302 302 301 301 301 301 300 299 299 298 298 292 290 290 289 289 288 288 288 288 287 287 287 286 286 285 285 284 284 284 284 283 283 284 285
308 306 305 305 303 302 302 302 301 301 300 301 301 300 299 299 298 297 293 290 290 289 289 288 288 288 287 287 287 287 286 286 285 285 284 284 284 283 283 283 283 284 285
307 306 306 305 303 301 301 301 300 300 300 300 300 299 299 298 298 294 291 290 289 289 288 288 288 287 287 287 287 287 286 286 286 285 285 284 284 284 283 283 284 285 285
307 307 307 305 302 301 300 300 299 299 299 300 300 299 299 298 295 291 290 289 289 289 289 288 287 287 287 287 287 286 286 286 286 285 285 284 284 283 283 283 283 285 285

GFSMW_850_thetae_084.txt.gz
Theta_e
320 320 327 330 328 329 329 334 338 339 340 340 340 340 339 338 337 337 336 335 334 335 335 333 332 331 330 330 330 330 329 329 329 329 329 329 329 329 328 327 327 326 326
320 318 318 322 325 324 326 331 337 338 339 340 340 339 338 338 337 337 336 336 335 334 333 333 333 333 333 332 332 331 331 331 330 329 329 329 327 326 326 326 326 326 325
319 320 318 318 318 320 322 326 332 336 337 339 338 339 338 338 337 337 337 335 333 333 333 333 334 334 334 334 333 333 332 332 331 330 329 329 327 326 325 325 324 325 325
319 320 317 317 318 318 318 320 324 331 335 335 336 335 335 334 334 335 335 336 336 334 334 335 335 335 334 332 332 332 332 332 330 329 328 328 328 329 327 327 326 326 325
316 315 316 316 316 316 316 318 320 323 326 329 332 333 330 330 333 335 334 331 331 333 333 332 331 330 329 330 328 329 331 331 331 330 329 327 326 328 327 324 323 324 324
317 316 314 314 315 315 316 317 317 318 320 323 325 322 321 321 321 322 323 325 326 327 329 330 329 329 329 328 327 328 327 326 327 326 325 329 327 325 323 324 321 322 321
316 316 314 313 314 314 314 314 315 315 315 315 315 315 315 315 316 316 317 317 318 320 321 322 323 324 328 328 325 327 326 325 324 325 323 321 322 321 321 321 320 320 320
314 315 315 314 313 314 314 314 314 314 313 313 313 312 312 312 312 312 314 315 316 317 317 318 318 320 329 328 326 327 325 326 325 322 322 321 320 319 319 319 319 317 316
312 313 313 314 314 314 313 313 312 312 312 312 312 311 311 311 311 311 311 312 312 312 313 313 314 316 320 330 327 326 325 322 322 322 321 319 319 316 316 317 316 316 315
311 312 313 314 314 314 313 313 313 312 312 312 312 312 312 312 312 311 311 311 311 312 312 315 319 323 327 326 325 323 323 322 321 319 317 315 313 314 315 315 313 313 312
312 314 314 314 314 313 313 313 313 313 313 313 313 313 313 313 312 312 312 312 312 312 312 314 318 323 323 322 322 322 321 319 318 315 312 310 311 311 310 310 309 310 310
314 314 314 314 314 314 314 313 313 313 312 312 311 311 311 311 311 311 311 312 312 312 312 312 313 314 316 317 317 317 315 312 310 309 309 309 309 309 309 309 309 309 309
313 314 314 314 314 313 313 312 311 311 311 310 310 309 309 309 309 309 310 310 310 310 310 311 310 310 310 310 309 309 309 309 309 309 309 309 309 308 308 307 306 305 307
314 314 314 313 313 313 312 312 310 310 310 309 308 308 308 308 308 308 308 308 308 308 308 309 309 309 308 308 308 308 309 309 309 308 308 307 307 307 307 305 304 304 303
314 314 314 313 313 313 312 311 310 309 309 308 308 308 307 307 307 308 308 308 308 308 308 308 308 308 308 308 308 308 308 308 308 307 305 305 307 306 303 302 301 301 300
314 314 313 313 313 313 312 310 310 309 308 308 307 307 307 307 306 306 306 306 307 307 307 307 307 307 307 307 307 306 306 306 305 304 304 304 303 301 300 299 299 298 298
315 314 314 313 313 312 311 310 309 308 307 307 307 306 306 306 306 305 305 306 306 306 306 305 305 305 304 304 303 303 302 302 302 302 302 301 298 295 293 290 288 288 288
314 314 313 313 312 311 310 309 308 307 307 306 306 305 305 305 305 303 302 303 304 304 303 302 302 302 300 300 301 301 299 296 293 291 290 289 288 288 288 287 287 287 286
313 313 312 312 312 311 310 308 307 306 306 305 305 304 304 304 303 302 302 302 301 300 300 300 300 300 300 295 291 290 290 290 289 289 288 287 287 287 286 286 286 285 285
310 309 311 312 312 311 309 307 306 305 305 304 304 303 303 304 303 302 301 300 299 299 299 299 298 293 290 289 289 289 288 288 288 288 287 287 286 286 285 285 285 285 285
312 312 313 312 311 309 308 306 305 304 303 303 303 302 302 303 302 301 300 299 298 298 297 293 290 289 289 288 288 287 288 288 288 287 287 287 286 285 285 285 285 285 284
311 311 310 309 309 307 306 305 304 303 303 302 302 301 301 301 301 300 299 298 298 296 290 289 289 289 288 288 288 287 287 287 287 287 287 287 286 285 285 285 285 285 284
310 309 308 307 307 305 304 303 303 302 302 302 301 301 300 300 299 299 298 297 295 290 290 289 289 288 288 288 287 288 287 287 287 287 286 286 286 285 285 285 284 284 284
308 308 307 307 306 305 303 302 301 301 301 301 301 300 300 299 298 298 297 296 291 290 289 289 288 288 288 287 288 288 287 287 287 287 286 286 286 285 285 285 284 284 285
308 307 306 306 306 304 303 302 302 301 301 300 300 300 299 298 298 298 297 292 290 289 288 288 288 288 287 287 287 287 287 287 287 287 286 286 286 285 285 284 284 284 284
308 307 306 307 306 304 302 301 301 300 300 299 299 300 299 299 298 298 295 290 289 289 288 288 288 288 287 287 287 287 287 287 288 287 286 286 286 285 285 284 284 284 284

GFSMW_850_thetae_087.txt.gz
Theta_e
321 320 319 330 330 330 330 330 331 331 332 336 338 337 338 338 338 337 336 335 334 334 333 334 332 331 331 330 330 330 330 330 329 329 329 329 329 329 327 326 325 326 326
322 320 319 323 329 329 326 324 324 326 322 332 334 337 338 338 337 337 337 336 335 334 334 334 334 333 333 332 331 331 331 331 331 330 330 329 328 327 327 325 325 325 325
322 321 320 321 319 320 324 322 324 325 328 330 335 336 338 338 336 338 337 336 333 333 334 333 333 333 333 333 333 333 333 332 332 331 330 329 328 327 327 326 325 326 326
322 320 320 320 319 318 318 320 321 326 329 330 334 336 336 336 337 336 335 336 336 335 335 335 334 333 334 333 333 332 331 332 332 331 329 328 329 328 326 325 325 325 324
318 319 319 318 318 318 317 317 319 322 326 331 332 333 336 335 333 333 333 335 334 334 333 332 332 331 331 330 329 329 329 329 331 331 329 328 327 328 326 324 324 322 322
316 317 319 318 316 316 316 316 317 319 322 327 331 331 331 332 330 326 325 327 332 331 329 328 328 329 329 329 331 330 327 327 329 328 326 326 324 325 324 323 322 320 320
317 317 318 318 317 315 315 315 316 318 321 324 326 326 326 323 320 318 318 318 318 319 320 323 326 326 325 325 327 328 327 326 326 325 324 323 322 321 322 321 321 321 318
314 315 317 317 317 315 314 315 315 315 315 315 315 315 315 315 315 314 314 314 314 315 316 318 319 320 321 323 326 329 326 327 326 326 325 323 321 322 320 320 319 318 316
311 313 314 314 314 314 314 313 313 313 313 314 314 313 312 312 311 311 311 311 312 313 314 314 315 316 316 317 327 329 327 324 325 324 322 321 321 320 319 317 316 314 314
311 311 313 313 313 313 313 313 313 313 312 312 312 312 311 311 311 311 311 311 311 311 311 311 312 313 317 322 325 329 325 325 323 321 321 321 318 317 313 314 314 315 313
310 310 311 312 313 313 313 313 313 312 312 312 312 312 312 312 312 312 312 312 312 312 312 312 313 319 322 323 322 324 322 320 321 321 320 315 314 311 311 311 310 310 309
310 311 313 313 313 313 313 313 313 313 313 313 313 313 312 312 312 312 312 312 312 312 312 312 313 315 317 319 320 320 320 321 320 319 315 310 309 309 309 309 309 309 309
312 313 314 314 313 313 313 313 313 312 311 311 311 311 311 310 310 309 310 310 310 310 311 311 311 311 312 313 313 313 313 311 310 309 309 309 309 309 309 308 308 306 306
313 313 313 313 313 313 313 312 311 310 310 310 309 309 309 308 308 308 308 308 308 308 308 309 309 309 309 309 309 309 309 309 309 309 309 309 308 308 307 306 305 305 304
313 313 313 314 313 313 312 311 310 310 310 310 310 308 308 308 308 308 308 308 307 308 308 308 308 308 308 308 308 308 308 308 308 308 308 307 306 306 304 303 304 303 303
313 314 314 313 313 312 312 311 310 310 309 309 309 308 308 307 307 307 307 307 307 307 307 307 307 307 307 308 308 307 307 307 307 306 305 304 304 302 301 302 302 301 298
314 314 314 314 313 313 312 312 310 309 309 308 307 307 307 306 306 306 306 306 306 305 305 306 306 306 306 306 306 306 305 304 304 303 303 302 301 299 294 291 290 289 289
314 315 315 314 313 313 312 310 309 309 308 307 307 306 306 305 305 305 304 303 303 304 304 304 303 303 302 302 302 302 302 302 301 298 294 291 290 290 289 289 288 288 287
314 314 314 314 313 312 312 310 309 308 307 306 306 305 304 304 304 304 302 302 302 302 302 301 301 300 300 299 300 298 294 291 290 290 289 289 289 288 288 288 287 287 286
311 311 312 312 312 312 311 310 309 308 307 306 305 304 304 304 304 303 301 300 298 298 299 300 299 299 296 290 289 290 289 289 289 289 288 288 288 287 287 287 286 286 285
310 311 309 310 311 311 311 310 308 307 306 304 304 303 303 303 302 301 300 298 297 296 297 298 297 291 289 289 288 288 288 288 288 288 288 288 287 287 286 286 286 285 285
311 311 311 311 311 310 309 308 307 305 304 303 303 302 302 301 301 300 299 297 296 296 297 294 290 289 288 288 288 288 288 288 288 288 287 287 287 286 286 286 286 285 285
310 310 310 309 309 308 307 306 305 304 303 303 302 302 301 301 300 299 298 296 296 297 294 289 289 288 288 288 288 288 288 287 287 287 287 287 287 286 285 286 285 285 285
308 308 308 308 307 306 306 304 303 302 302 302 302 301 301 300 300 298 297 297 297 295 289 289 288 288 288 288 288 288 288 287 287 287 287 287 286 286 286 286 286 285 285
309 308 307 307 306 305 304 303 302 302 302 301 301 300 300 299 299 298 298 297 296 291 290 289 288 288 288 288 288 287 287 287 287 287 287 287 286 286 286 286 285 285 285
308 308 307 307 306 307 305 303 302 301 301 300 300 300 300 299 298 297 297 296 292 289 289 288 288 288 287 287 287 287 287 287 287 287 287 287 286 286 286 286 286 285 285

GFSMW_850_thetae_090.txt.gz
Theta_e
324 323 327 329 331 332 330 332 331 335 337 336 335 336 337 337 337 337 337 336 333 333 333 333 332 331 331 330 330 330 330 329 329 329 329 329 329 329 329 327 326 325 324
324 323 323 324 331 331 330 330 330 330 331 332 333 335 335 335 335 337 337 337 336 335 334 334 334 334 333 332 331 331 331 330 331 331 331 331 331 330 328 327 325 325 325
323 322 321 321 321 327 331 329 326 325 323 325 325 328 330 331 332 334 335 335 334 334 335 334 334 334 334 333 333 333 332 332 332 332 331 330 329 329 327 327 327 325 326
323 323 320 320 320 319 318 324 324 325 324 326 323 326 329 328 327 330 335 336 336 335 335 335 335 334 334 333 333 333 332 332 332 331 332 331 330 328 328 326 324 323 324
321 321 321 320 320 320 322 320 318 324 324 322 320 326 327 326 329 329 330 333 333 334 333 333 333 334 333 333 333 332 331 330 330 331 330 331 328 327 327 326 323 323 323
318 319 319 319 319 319 319 321 320 317 321 323 322 325 325 328 325 325 329 330 328 330 333 333 331 329 330 329 329 330 330 331 331 329 330 330 328 325 324 324 324 322 320
318 318 318 319 321 319 318 316 318 319 319 320 322 321 323 324 325 330 328 322 321 321 322 323 323 325 328 328 330 330 330 330 329 328 327 326 325 323 322 321 321 321 319
318 318 318 318 318 319 318 317 316 315 316 317 322 326 327 326 324 321 318 316 316 315 315 316 317 318 319 322 325 326 328 329 329 327 327 326 325 323 322 321 321 320 317
313 316 317 316 317 317 319 317 316 315 315 316 316 316 316 315 315 314 313 313 312 312 312 313 315 317 318 319 321 323 328 330 329 327 325 325 323 322 321 321 321 319 317
311 311 313 314 315 315 315 314 314 313 313 313 313 313 313 313 312 311 311 311 311 311 311 311 312 312 313 313 314 316 323 327 327 326 325 322 321 321 320 318 315 314 314
311 311 312 312 312 313 313 313 312 313 313 313 312 312 312 311 311 311 311 311 311 311 311 311 311 311 312 316 321 322 323 324 323 326 323 321 320 319 315 313 311 311 311
311 312 311 311 312 312 312 313 313 313 312 312 312 312 312 312 312 313 313 313 313 312 312 312 312 313 314 318 320 321 322 322 322 320 320 319 318 313 310 309 309 309 309
312 311 311 311 312 313 313 313 313 312 312 312 312 312 312 311 311 311 311 311 311 311 311 311 311 312 313 315 317 317 318 319 319 319 318 315 310 309 309 309 308 308 307
312 312 311 311 312 313 313 313 313 312 312 311 311 311 310 310 310 309 308 308 309 309 309 309 310 310 310 311 311 312 313 312 311 310 309 309 308 308 308 307 307 306 306
312 312 312 312 313 313 313 313 312 311 311 310 310 310 309 309 309 308 308 308 308 308 308 308 308 308 308 308 308 308 308 308 308 308 308 308 307 307 306 306 305 305 304
312 312 312 313 313 314 313 313 312 311 310 310 309 309 309 309 308 307 307 307 307 307 307 307 307 307 307 307 307 307 307 308 307 307 307 306 306 306 305 305 304 303 302
313 312 313 314 314 314 313 312 312 311 310 309 309 308 308 307 307 307 306 306 306 305 306 306 306 306 306 307 307 306 307 307 306 305 305 304 304 303 302 297 293 291 290
313 313 314 314 314 313 313 312 311 310 310 309 308 308 307 307 306 306 305 305 304 303 303 305 305 305 305 304 305 305 304 304 303 303 302 301 296 292 290 289 289 289 289
313 313 314 315 314 314 313 312 311 310 309 308 308 307 306 306 305 305 305 303 302 302 302 303 303 302 301 301 301 302 302 301 300 296 291 290 290 289 288 288 288 288 288
312 314 314 314 314 313 313 312 311 310 310 308 307 306 305 305 304 304 303 301 301 300 299 299 299 299 299 299 299 299 294 291 290 290 289 289 289 288 288 288 287 287 287
309 310 311 311 312 312 312 311 311 310 309 307 306 305 304 304 303 302 302 300 300 299 297 296 297 298 296 291 289 289 289 289 289 289 289 289 288 288 287 287 287 287 286
310 311 311 310 310 310 310 310 310 309 307 305 304 304 303 302 302 302 301 299 298 297 296 295 296 293 289 289 288 288 287 288 288 288 288 288 288 287 287 287 287 286 286
310 311 311 310 310 310 310 309 308 307 305 304 303 303 302 302 301 301 300 299 297 296 296 296 293 289 289 288 288 288 287 287 287 288 288 288 287 287 287 287 286 286 286
309 309 309 309 309 308 308 307 306 305 304 303 302 302 302 301 301 300 299 298 297 296 295 295 290 289 288 288 288 288 287 287 287 287 287 287 287 287 287 286 286 286 286
310 310 308 308 307 307 307 306 305 304 303 302 302 301 301 301 300 300 299 298 297 297 297 293 289 289 288 288 288 288 288 287 287 287 287 287 287 287 287 287 286 286 286
308 308 308 309 306 305 305 306 304 303 302 302 301 301 301 300 300 299 298 297 296 296 295 289 289 288 288 287 288 287 287 287 287 287 287 287 287 287 287 287 286 286 286

GFSMW_850_thetae_093.txt.gz
Theta_e
324 324 323 326 328 332 338 340 336 335 335 337 337 340 338 338 338 337 338 338 338 336 335 334 335 334 332 331 332 330 329 329 329 329 329 330 329 330 330 330 330 329 327
323 325 323 325 327 329 331 333 337 334 335 337 336 336 335 337 337 335 336 337 336 335 334 334 334 335 334 332 332 331 331 330 330 330 331 331 332 331 331 330 328 327 326
322 324 323 322 329 329 331 330 333 336 332 331 331 335 334 334 335 335 335 335 335 334 336 335 334 334 334 334 334 333 332 332 331 331 331 332 331 330 329 328 327 327 326
321 324 323 322 325 330 331 331 330 331 329 328 328 327 328 328 328 327 327 328 332 332 332 331 333 334 334 334 334 333 333 333 333 332 332 331 331 330 328 327 326 326 324
322 323 323 322 324 323 327 327 326 325 323 323 324 323 324 325 325 325 326 327 324 325 329 328 328 330 334 334 334 334 333 333 332 332 331 330 330 330 327 325 324 325 323
322 324 322 320 320 319 318 320 320 321 325 327 321 322 322 324 324 325 328 322 321 322 329 329 327 328 330 332 332 332 332 333 332 331 331 331 328 329 328 326 324 323 324
321 322 323 320 319 320 318 319 319 320 318 319 323 322 323 322 321 321 321 322 324 325 319 320 324 328 331 330 329 330 331 331 331 331 332 330 330 328 326 324 323 321 322
319 320 320 321 319 319 319 319 317 316 317 319 320 320 323 323 321 321 324 325 325 323 320 318 318 318 319 321 326 331 332 332 330 330 330 329 328 326 325 324 322 320 321
318 319 319 319 320 319 318 319 320 317 315 316 317 320 320 320 320 322 320 322 317 315 314 313 313 314 315 317 319 323 328 331 330 330 329 329 327 326 323 322 323 319 320
314 315 317 319 318 317 316 317 320 320 317 315 315 316 319 320 318 316 314 313 313 312 311 311 311 312 312 313 315 316 319 326 326 329 325 326 325 325 322 321 320 318 318
314 314 313 316 316 316 316 315 318 321 318 315 314 313 313 313 312 312 311 311 311 311 311 311 311 311 311 312 313 316 316 320 323 323 324 319 323 323 321 320 318 315 313
314 313 313 314 315 314 314 313 314 313 313 313 313 312 312 312 312 312 312 312 312 312 312 312 312 312 313 313 314 316 321 323 322 322 321 320 321 320 319 316 311 310 310
314 314 314 314 313 313 313 312 312 312 313 312 312 312 312 312 312 312 312 312 312 312 311 311 311 312 312 313 314 316 318 319 320 320 319 318 318 318 313 309 309 308 308
314 314 313 313 313 313 312 312 312 313 312 312 312 312 312 311 311 311 310 310 309 309 309 309 309 310 310 311 312 315 316 317 316 316 317 317 314 309 308 308 308 307 307
314 314 314 313 313 312 312 312 313 313 312 312 311 311 311 310 310 310 310 309 308 308 308 308 308 308 308 309 309 310 310 311 311 310 309 308 308 308 308 307 307 306 304
314 314 314 313 312 312 312 312 313 312 312 311 311 311 310 310 310 310 309 309 308 307 307 307 307 307 307 308 307 308 308 308 308 308 308 308 308 307 307 306 305 304 303
314 314 314 313 313 312 311 312 312 312 311 310 310 310 310 309 309 309 308 308 307 307 306 306 306 307 307 307 307 307 307 307 307 307 307 306 306 305 304 303 303 302 298
314 314 314 313 313 312 312 312 312 312 311 310 310 310 309 309 308 308 307 307 306 306 305 305 305 305 305 306 306 306 306 305 305 305 304 303 303 302 300 295 291 290 290
314 314 314 314 313 313 313 313 313 312 312 311 310 309 308 308 307 307 306 305 305 305 302 302 302 303 304 303 303 304 303 303 302 302 301 302 297 292 290 290 290 290 289
313 314 315 314 314 313 313 313 312 312 312 311 310 309 308 307 306 306 305 304 304 303 302 301 300 301 300 300 300 300 300 300 300 299 293 290 290 289 289 289 289 289 288
310 313 313 313 313 312 313 312 312 312 311 310 309 308 307 306 305 304 304 303 303 302 301 300 299 298 298 298 298 298 296 293 289 289 289 289 289 288 288 288 288 288 288
309 309 310 310 310 311 312 311 311 311 310 309 308 307 305 304 304 303 302 302 301 301 299 298 297 296 297 297 292 289 289 289 288 288 288 288 288 288 288 287 287 287 287
310 310 310 310 310 310 309 309 310 310 309 308 307 305 304 304 303 302 302 302 301 299 298 297 296 296 295 290 289 288 287 287 288 287 287 288 288 288 287 287 287 287 286
309 309 309 309 309 309 309 308 309 308 307 306 305 304 303 303 302 302 302 301 301 299 298 296 296 296 293 289 288 287 287 287 287 287 287 288 287 287 287 287 287 287 287
309 310 309 308 308 308 307 307 307 306 305 304 303 303 302 302 302 301 301 301 300 299 297 296 296 295 290 289 288 288 288 287 287 287 287 287 287 287 287 287 287 287 287
307 307 307 307 308 309 309 307 306 306 304 304 303 302 302 301 301 301 300 300 299 297 296 295 295 294 289 288 287 287 287 287 287 287 287 287 287 287 287 287 287 287 287

GFSMW_850_thetae_096.txt.gz
Theta_e
324 325 324 325 338 339 340 337 338 338 339 339 338 337 339 338 337 337 336 335 336 336 333 331 334 334 332 330 329 329 328 328 327 328 328 328 329 329 330 330 330 329 329
323 324 324 324 336 336 336 336 334 337 336 335 335 338 338 338 337 337 337 336 336 336 336 334 334 336 335 333 332 332 330 329 329 329 330 330 330 331 331 330 330 329 328
322 323 324 324 333 336 337 336 335 335 334 334 335 335 335 337 337 336 334 334 335 335 333 334 333 333 334 334 333 333 332 331 331 331 330 331 331 330 330 330 330 327 326
320 322 324 323 331 335 334 333 335 336 333 332 333 332 333 333 333 334 334 333 332 333 333 332 331 331 331 331 332 332 332 332 332 332 332 332 331 331 329 328 327 326 325
319 321 323 323 325 332 332 330 331 336 335 332 330 329 328 328 328 328 327 328 327 326 325 327 328 327 325 325 326 329 330 331 333 332 332 332 331 330 330 328 328 326 325
319 321 323 323 323 325 330 330 329 330 331 328 327 326 327 327 325 325 325 325 325 326 324 324 326 327 324 323 323 324 327 328 331 333 332 331 330 328 329 328 327 326 325
319 321 323 322 322 324 321 325 327 330 326 326 325 322 322 323 323 324 323 323 325 324 324 324 323 322 319 320 320 321 327 331 332 332 332 332 332 329 327 325 325 324 322
319 322 322 321 321 322 319 320 320 320 320 322 323 323 322 323 322 321 323 322 322 320 320 319 317 317 320 319 317 325 331 332 330 331 331 329 329 327 325 326 324 323 323
319 321 321 322 321 321 321 319 318 318 316 317 318 323 326 325 324 324 325 326 325 324 322 325 323 318 315 315 314 316 320 326 326 327 327 325 326 325 324 327 324 323 321
317 318 319 320 320 320 319 317 317 318 318 316 316 317 318 320 321 320 320 320 320 317 315 313 312 312 311 311 312 313 315 319 324 326 322 324 320 324 325 325 323 321 320
315 315 317 318 319 318 318 316 316 317 318 318 318 317 315 316 318 318 316 314 313 312 312 311 311 311 311 311 311 312 312 315 317 322 325 318 323 322 322 321 322 320 319
314 314 313 315 317 317 317 316 315 316 317 318 319 319 317 314 313 312 312 312 311 311 311 312 312 312 312 312 312 313 317 320 320 320 320 320 320 321 321 320 320 319 313
314 314 313 314 315 316 315 315 314 315 316 317 319 318 314 312 312 312 312 312 312 312 312 312 312 312 312 312 312 313 315 317 318 318 320 319 318 319 318 317 317 309 309
314 314 314 314 314 313 313 313 313 312 312 312 313 312 312 312 312 312 312 311 311 311 310 309 309 309 309 310 310 311 313 315 315 316 316 316 315 315 315 314 308 308 308
314 314 313 313 313 313 313 312 312 312 312 312 312 312 312 312 311 311 310 310 310 310 309 309 308 308 308 308 308 309 310 311 313 313 313 313 313 313 309 308 308 307 307
314 314 314 313 313 313 312 312 312 312 312 312 312 311 311 310 310 310 310 310 310 309 309 308 307 307 307 307 307 307 308 308 308 309 309 308 308 307 307 307 306 306 305
314 314 314 313 312 312 312 312 312 312 312 311 311 311 310 310 310 310 309 309 309 308 307 307 307 306 306 307 307 307 306 307 307 307 307 306 306 306 305 305 305 304 304
314 314 314 313 313 312 312 312 312 312 312 311 311 310 310 310 309 309 309 308 308 307 307 306 306 306 305 305 306 306 306 306 306 305 305 305 305 304 304 303 302 300 297
313 314 314 314 313 313 312 312 312 312 312 312 311 310 310 310 309 309 308 308 307 306 306 305 304 303 303 304 304 304 302 302 303 303 303 303 302 301 301 296 291 290 290
313 314 314 314 314 313 313 312 312 312 312 311 311 310 310 309 309 308 307 306 306 305 305 304 302 301 301 301 300 301 300 301 301 301 301 300 299 294 290 289 289 289 289
312 314 314 314 314 313 313 312 312 312 311 311 310 309 309 308 308 307 306 305 304 304 303 302 301 300 299 299 298 297 299 299 299 298 297 292 289 289 289 288 288 289 288
308 311 313 313 313 313 312 312 312 311 311 310 309 308 308 307 307 306 305 304 303 303 302 301 300 299 298 297 297 297 296 296 291 289 289 288 289 288 287 287 288 288 287
308 309 309 309 309 309 309 309 310 309 309 309 308 307 306 306 305 304 303 303 302 302 301 300 299 298 297 296 297 294 289 288 288 288 288 288 288 287 287 287 287 287 287
309 308 308 308 309 309 309 309 309 309 309 308 307 306 305 305 304 303 303 302 301 301 301 300 299 297 297 296 292 289 288 287 287 287 287 287 287 287 287 287 287 287 287
308 308 308 308 308 307 307 307 307 308 307 306 305 305 304 303 303 302 302 301 301 300 299 298 297 296 297 296 291 288 287 287 286 286 286 287 287 287 287 287 287 287 287
306 306 307 307 307 307 307 307 307 306 305 304 304 304 304 303 302 302 301 301 300 300 299 297 296 295 295 293 288 287 287 287 287 287 287 287 287 287 287 287 287 288 288

GFSMW_850_thetae_099.txt.gz
Theta_e
325 325 324 326 334 337 340 340 339 339 339 340 340 338 337 337 337 336 336 336 335 335 334 331 329 330 330 327 327 327 327 328 327 327 327 327 327 327 329 330 329 330 329
325 325 324 325 333 335 337 337 336 338 339 338 338 338 338 338 336 336 336 336 335 335 335 333 332 332 333 333 332 330 330 330 329 329 329 329 329 329 330 331 330 330 329
321 324 324 324 325 335 335 333 331 335 335 338 337 337 337 336 337 337 337 337 335 334 335 335 333 334 335 334 333 333 332 332 331 330 330 330 330 330 331 331 331 330 328
320 322 324 324 324 325 335 335 334 331 333 334 334 334 334 335 335 338 336 335 333 333 334 334 332 332 333 332 331 330 332 332 331 330 330 330 331 331 329 330 329 328 327
319 321 323 324 325 325 329 334 335 334 335 334 334 334 334 333 334 334 332 331 330 330 330 328 332 330 329 328 327 326 326 326 327 326 326 327 329 331 329 329 328 326 326
318 319 322 324 324 330 330 334 337 336 335 333 332 333 330 330 328 328 326 326 325 326 326 325 325 328 328 326 324 324 324 323 324 325 326 327 328 331 331 328 327 324 324
318 318 322 323 323 326 330 331 332 333 333 331 331 329 328 327 327 327 326 326 326 326 326 326 325 325 323 323 321 321 322 320 319 318 325 324 330 330 327 328 326 324 324
318 318 320 322 323 323 324 329 328 331 331 330 325 324 323 323 323 322 322 322 322 323 324 324 323 324 324 326 325 321 318 319 318 319 322 326 326 327 327 326 325 325 323
318 318 320 323 323 323 323 325 327 328 328 326 325 324 322 322 322 322 322 322 320 321 322 321 320 318 318 319 319 320 320 318 318 319 323 326 326 326 325 325 324 325 323
317 319 321 322 322 321 321 320 320 322 320 320 320 320 320 321 322 323 323 322 323 325 325 324 324 323 322 315 312 312 312 312 313 314 320 322 324 324 323 323 322 324 323
316 318 321 321 321 321 320 320 319 318 318 317 316 316 319 321 322 323 322 321 321 320 319 317 313 312 311 311 311 311 311 311 311 313 318 322 320 324 323 322 320 320 320
314 315 315 318 320 319 319 318 317 317 317 316 315 316 316 317 317 316 314 314 312 312 311 311 311 311 311 312 312 312 312 312 312 314 315 318 320 318 318 320 322 320 320
314 313 313 316 318 318 318 317 316 316 316 316 315 316 315 315 317 317 317 314 312 312 312 312 312 312 311 311 311 312 312 313 314 315 317 317 319 318 318 319 318 318 317
313 313 314 315 316 316 316 316 315 315 315 315 315 315 314 314 316 315 313 312 312 311 310 310 310 309 309 309 309 310 310 311 313 315 315 316 316 316 316 316 315 315 312
314 314 314 314 314 314 314 314 314 313 313 313 312 312 312 312 312 312 312 311 310 310 310 310 310 309 309 308 308 308 308 309 309 312 311 312 312 312 312 312 313 310 307
314 313 313 313 313 313 313 312 312 311 311 311 311 311 311 312 312 311 310 310 310 310 310 309 309 309 309 308 307 307 307 307 308 308 309 310 310 311 311 311 307 307 307
314 314 313 313 313 313 313 312 312 311 311 311 311 311 311 311 310 310 310 310 309 309 309 309 309 308 308 308 307 306 306 306 306 307 307 307 307 307 307 306 306 306 306
314 314 314 313 313 312 312 312 311 311 312 311 311 310 310 310 310 310 309 309 309 309 308 308 308 307 307 307 307 306 305 305 305 305 305 306 306 305 305 305 304 302 303
311 314 314 313 313 312 312 312 312 311 311 311 310 310 310 310 310 309 309 309 308 308 307 307 306 306 305 305 305 305 304 302 302 302 303 303 304 303 303 303 301 301 300
310 313 314 314 313 313 312 312 311 311 311 311 311 310 310 309 309 309 308 307 307 306 306 305 305 304 304 301 303 302 300 300 301 301 301 302 301 300 300 300 296 290 290
311 314 314 314 313 313 313 312 311 311 311 311 310 310 309 309 308 308 307 306 305 305 304 304 303 303 302 300 299 299 298 298 299 299 300 299 298 296 292 290 289 289 289
308 313 314 314 314 313 312 312 311 310 310 310 309 309 308 308 308 307 306 305 304 304 303 303 302 301 300 299 297 296 297 297 297 297 296 293 290 288 288 288 288 288 288
308 309 310 312 313 312 312 311 310 310 310 309 309 308 308 308 307 306 305 304 303 303 302 302 301 299 299 298 297 296 297 295 292 289 288 288 288 288 287 287 287 287 287
308 308 308 308 309 309 309 308 308 308 308 308 308 308 307 306 305 304 303 303 302 302 301 301 300 299 298 297 296 296 292 289 288 287 287 287 287 287 287 286 286 287 287
307 307 307 307 307 307 307 307 307 307 307 307 306 305 305 305 304 303 303 302 302 301 301 301 300 299 297 297 296 295 289 288 286 286 286 286 287 287 287 286 286 287 287
305 305 306 306 306 306 306 306 306 305 305 305 305 305 304 304 303 303 302 302 301 300 300 299 299 298 297 296 295 293 288 287 287 287 287 287 287 287 287 287 287 287 287

GFSMW_850_thetae_102.txt.gz
Theta_e
325 328 335 337 337 337 337 338 339 339 339 338 339 338 336 337 337 336 336 335 334 334 332 330 328 328 328 328 327 326 326 326 326 327 327 326 326 326 327 328 329 329 329
325 326 326 330 337 337 336 337 337 338 337 336 338 339 338 337 336 335 336 335 335 334 334 334 333 330 329 330 330 329 328 327 328 329 329 329 328 328 328 329 330 330 329
324 326 325 325 329 333 336 338 337 338 338 337 338 337 338 337 336 335 335 335 336 335 334 336 334 333 331 328 329 330 330 331 331 331 330 330 330 330 330 330 330 330 329
321 325 324 325 327 326 329 334 334 335 338 338 337 336 335 336 336 336 336 336 336 336 335 334 334 332 332 328 330 328 329 330 329 331 331 330 329 329 329 329 328 329 328
318 319 324 324 324 325 325 329 333 332 333 335 336 334 335 335 335 336 335 334 335 335 333 333 334 333 331 331 331 329 329 328 327 326 327 326 325 325 325 327 328 327 326
318 319 320 324 324 325 326 328 329 332 334 333 333 334 334 333 334 333 334 336 334 331 330 330 329 330 330 329 327 326 325 325 324 323 323 324 325 323 323 326 327 328 326
318 318 320 324 325 325 325 326 326 331 330 332 332 333 333 333 333 331 330 329 327 327 327 327 328 328 327 327 326 325 323 322 323 321 321 320 320 323 321 324 325 326 327
318 318 318 322 325 326 325 324 326 328 329 330 331 332 332 331 328 327 326 326 325 325 325 326 325 325 325 325 325 325 325 324 324 323 320 318 320 321 324 323 325 326 326
318 318 318 318 322 324 324 325 324 325 326 327 330 331 329 327 327 326 324 322 322 321 320 321 321 321 321 320 318 319 319 319 319 323 323 323 321 326 326 326 326 325 325
317 317 317 318 320 322 323 323 324 326 326 328 329 327 323 322 322 322 322 322 322 321 320 321 323 323 321 320 321 323 319 315 312 312 312 314 316 321 325 322 323 323 324
316 316 317 318 321 322 322 322 323 323 327 328 327 325 325 323 322 322 322 322 323 322 323 324 324 323 322 317 313 311 311 311 311 311 311 312 317 320 322 322 323 322 321
315 317 317 318 322 322 321 320 319 319 319 320 319 319 320 320 321 323 322 318 318 316 314 314 313 312 311 311 311 311 311 312 312 312 312 312 315 317 319 319 320 320 321
313 314 318 321 321 321 320 319 319 317 317 317 316 316 316 317 316 316 315 315 314 315 312 311 311 311 311 311 311 311 311 311 311 312 312 314 315 317 317 316 319 318 319
313 314 314 316 319 320 319 318 316 316 316 316 316 315 315 315 315 314 314 313 313 313 312 312 311 310 310 310 310 309 309 309 309 310 313 313 315 317 317 317 316 316 316
313 313 315 316 317 317 317 316 316 316 315 315 315 315 315 315 315 314 312 311 311 311 311 311 310 310 310 310 310 309 308 308 308 308 309 310 312 313 313 314 314 313 312
313 313 314 314 314 315 315 315 314 314 314 314 314 314 314 313 311 311 311 310 310 310 310 310 310 310 309 309 309 309 308 307 307 307 307 307 309 309 310 310 310 310 311
313 313 313 313 313 313 313 312 312 312 312 311 311 311 311 311 311 310 310 310 310 310 310 310 309 309 308 308 308 307 307 307 306 306 306 306 307 307 307 308 308 308 307
313 314 313 313 313 313 312 312 311 311 311 311 311 311 311 310 310 310 309 309 310 310 309 309 308 308 307 307 307 306 306 306 305 304 304 304 304 305 305 304 304 304 304
310 313 314 313 313 312 312 312 311 311 311 311 311 310 310 309 309 309 309 309 309 309 308 307 307 306 305 305 305 305 304 304 302 301 301 301 302 302 302 302 302 302 302
309 311 314 314 313 313 312 312 311 311 311 311 310 310 310 309 309 309 309 309 308 307 307 306 306 305 305 304 304 304 303 302 301 300 300 301 301 301 301 301 299 299 298
309 312 313 314 313 313 312 312 312 311 311 310 310 310 309 309 308 308 308 308 307 306 306 305 304 304 304 302 301 302 299 299 299 299 299 300 300 299 299 298 297 292 290
309 312 313 313 313 313 312 312 311 310 310 310 310 309 309 308 308 308 308 307 306 306 305 304 304 303 301 300 298 297 297 297 298 298 298 297 297 296 293 289 288 288 288
308 310 312 312 313 312 311 310 310 310 309 309 309 308 308 308 308 307 307 306 304 304 304 303 303 301 299 299 298 298 297 297 297 295 294 292 289 288 288 288 287 286 287
308 307 307 308 309 309 310 310 309 309 308 308 307 307 307 307 306 306 305 304 304 303 303 302 302 301 300 299 298 297 296 295 296 290 288 287 287 287 287 287 286 286 286
307 307 307 307 307 307 307 307 307 306 306 307 306 306 306 305 304 304 303 303 303 302 302 302 301 300 300 299 297 296 295 294 289 287 287 286 286 287 287 287 286 286 286
305 304 305 305 305 305 305 306 306 305 305 305 305 304 304 303 303 303 303 303 303 303 302 301 300 300 299 297 296 295 295 293 288 288 287 287 286 286 286 286 286 286 286

GFSMW_850_thetae_105.txt.gz
Theta_e
328 332 334 333 335 336 337 337 337 339 340 338 337 337 336 336 336 336 335 335 334 332 329 325 326 328 330 331 331 329 328 327 326 326 326 326 326 326 326 327 327 328 329
326 329 332 335 332 334 336 337 338 337 337 338 338 337 337 336 336 335 335 335 335 333 334 333 333 330 329 329 329 328 327 327 327 328 328 328 328 328 328 328 328 329 329
321 325 328 333 334 335 337 337 337 336 337 336 336 336 336 336 336 336 336 335 335 334 334 333 334 333 332 330 330 331 331 329 329 329 330 330 330 330 329 329 328 329 329
320 320 323 329 333 332 334 335 336 337 336 335 335 335 335 335 328 335 335 335 335 335 335 335 334 335 332 331 330 331 331 328 328 328 328 328 328 329 327 327 327 327 328
320 320 321 326 325 329 333 333 334 336 336 335 336 335 335 335 333 334 336 336 335 335 336 336 334 333 333 332 330 329 331 328 327 327 329 327 328 327 326 325 324 325 326
319 319 319 324 324 326 327 329 331 333 334 335 336 335 335 334 334 336 337 335 334 334 333 333 332 330 330 328 330 330 325 326 327 326 325 324 323 324 325 323 321 322 325
316 316 317 320 324 325 325 326 327 329 331 331 333 333 335 334 333 333 332 332 331 330 330 329 328 327 327 328 329 328 327 326 326 325 324 321 321 322 320 322 325 322 322
316 317 318 319 321 324 326 325 325 326 328 329 329 329 331 332 332 332 331 329 328 327 326 325 325 326 326 326 326 327 326 325 324 324 321 321 324 320 319 321 322 323 324
317 317 318 318 321 323 325 324 324 325 325 327 328 329 329 330 330 330 328 327 326 325 323 322 324 325 322 322 322 321 320 319 321 320 321 321 321 320 322 323 323 324 325
317 317 318 318 318 322 324 325 324 324 324 324 325 325 328 330 330 328 326 326 324 322 321 321 320 320 322 323 322 320 321 322 319 315 313 312 312 313 317 325 325 325 325
315 317 317 317 317 319 323 324 325 325 323 326 326 328 330 329 325 324 324 323 321 321 321 322 322 322 322 323 322 319 314 312 311 311 311 311 311 311 312 322 320 322 324
314 315 315 316 317 319 323 324 323 322 323 323 325 328 327 324 323 322 322 322 322 323 322 318 316 314 313 312 311 311 311 311 312 312 312 312 313 312 317 317 319 320 320
313 316 315 316 317 319 321 321 321 321 321 321 323 326 325 325 325 323 321 323 323 319 315 313 312 312 312 311 311 311 310 310 310 310 310 311 311 313 314 317 317 317 318
313 314 317 317 318 320 321 321 320 319 319 318 318 317 317 317 318 319 319 317 314 313 313 312 311 311 310 310 310 310 310 310 309 309 308 309 310 310 314 315 315 316 317
312 313 314 316 319 320 319 319 319 318 317 315 315 315 315 315 315 314 313 314 314 313 311 310 310 310 310 310 310 310 309 309 308 308 308 308 308 309 310 312 313 314 314
313 313 314 315 316 317 317 316 316 315 315 315 315 315 314 314 314 314 314 313 311 311 310 310 309 309 309 310 309 309 308 308 308 307 307 307 306 306 307 308 310 310 311
313 313 313 313 314 315 315 315 315 315 314 314 314 314 314 314 313 311 311 310 310 309 309 309 309 309 309 309 309 308 308 307 307 306 306 306 305 304 305 305 306 307 308
312 313 313 313 313 313 313 312 312 312 312 311 311 311 311 310 310 310 310 309 309 309 309 309 309 309 308 308 308 308 307 306 305 305 304 301 301 302 302 302 304 304 305
309 311 313 313 313 313 312 312 311 311 311 311 311 310 310 310 310 309 309 309 309 309 309 309 308 308 308 307 307 306 306 305 304 303 301 301 300 300 300 300 301 301 301
309 310 311 313 313 313 312 312 311 311 311 311 310 310 310 309 309 309 308 308 308 308 308 308 307 307 307 305 305 305 304 303 303 300 300 300 300 300 300 300 300 300 300
308 309 311 313 313 312 312 312 311 311 310 310 310 310 309 309 309 308 308 308 308 308 308 307 306 305 305 304 304 302 302 300 300 299 299 299 298 298 297 298 298 297 296
309 312 312 313 313 312 312 312 311 310 310 310 310 309 309 309 308 308 308 307 307 307 306 305 305 304 304 303 299 299 298 298 298 298 297 297 297 297 296 296 293 291 290
307 310 311 312 312 312 311 311 310 310 310 309 309 309 309 308 308 307 307 307 306 306 305 305 305 304 303 302 300 300 299 298 298 297 296 296 294 292 291 289 288 287 287
307 307 308 310 311 311 311 310 310 310 310 309 308 308 307 307 307 307 306 306 305 305 304 304 304 303 303 302 301 300 299 298 297 296 295 291 288 288 288 287 287 286 286
306 306 307 307 307 307 307 307 307 307 307 307 307 307 307 306 306 305 305 304 304 303 304 304 303 303 303 301 300 299 298 297 296 295 292 288 287 287 287 287 287 286 286
304 304 304 305 305 305 306 306 306 306 306 305 305 305 305 305 304 304 303 304 304 303 303 304 304 303 302 300 298 297 296 296 295 294 291 289 288 287 286 286 286 286 286

GFSMW_850_thetae_108.txt.gz
Theta_e
327 332 333 334 335 335 335 336 336 337 338 338 337 337 335 333 333 333 333 333 331 329 326 325 326 327 327 328 329 331 329 328 327 327 326 325 326 326 325 325 326 326 327
321 330 333 333 333 335 337 338 339 338 339 338 337 335 335 334 336 334 335 335 334 333 332 331 329 328 328 329 330 330 329 328 328 328 328 327 328 328 328 327 327 327 327
321 324 331 332 332 333 334 336 337 336 337 336 337 336 335 335 336 335 335 333 333 335 333 334 333 333 333 331 330 330 329 328 329 329 329 329 329 329 328 326 328 328 327
320 321 324 331 331 329 333 331 333 335 336 336 336 333 332 334 334 333 333 331 332 333 334 334 334 333 333 333 331 331 331 328 327 329 327 327 327 328 328 327 327 326 326
320 320 321 326 332 332 331 331 332 336 336 335 334 328 327 332 331 331 329 331 333 334 334 335 335 334 333 332 331 329 327 327 328 327 323 325 327 328 328 327 326 325 324
320 320 320 321 328 331 330 328 332 331 335 335 335 334 333 333 332 331 331 332 329 334 334 333 330 327 325 331 331 329 329 329 328 327 327 327 326 325 324 324 325 322 322
319 320 319 321 323 328 332 331 332 332 332 333 332 333 332 332 332 332 332 332 332 331 331 331 330 330 328 327 327 327 327 328 326 326 325 324 324 322 322 323 322 320 321
319 318 318 318 321 324 325 327 327 328 329 330 330 329 329 330 331 332 331 331 330 330 328 327 326 323 325 326 325 324 326 326 325 325 324 324 322 321 321 321 321 320 322
316 318 317 318 319 320 324 325 325 326 326 327 327 327 327 330 329 330 330 328 327 326 326 324 322 323 324 322 321 321 323 322 320 319 321 322 321 321 321 323 323 323 323
315 316 316 317 319 321 323 325 323 325 325 326 326 326 328 328 329 330 329 327 326 325 323 321 321 320 320 320 322 323 322 321 322 319 313 311 311 311 312 312 313 317 320
314 315 316 317 317 319 323 324 324 323 323 324 323 325 325 326 328 329 327 326 325 323 321 321 321 321 322 321 320 319 316 313 311 311 311 311 311 312 312 312 313 313 320
314 315 315 316 317 317 320 324 324 324 324 323 324 323 326 328 328 328 325 324 323 321 321 321 321 317 314 312 311 311 311 311 311 311 311 310 310 311 312 312 318 318 317
313 315 314 314 315 317 319 323 323 324 324 323 322 322 327 328 327 324 322 322 322 321 322 322 315 313 312 311 311 311 310 310 310 310 310 310 309 309 309 310 312 315 317
313 313 316 314 315 316 319 322 322 321 321 321 321 322 325 325 324 324 324 322 321 322 317 314 313 312 311 310 310 310 310 310 310 309 309 309 308 308 308 309 311 314 314
312 312 314 316 317 317 318 320 320 319 318 318 318 318 318 319 319 318 318 318 314 313 313 313 312 311 310 310 310 310 310 309 309 308 308 308 307 307 307 308 309 310 312
312 312 313 314 316 317 317 317 317 317 316 316 315 315 315 315 314 313 313 313 314 314 313 310 310 310 310 310 310 309 309 308 308 308 307 307 306 306 306 304 305 306 308
312 313 313 313 314 315 316 316 315 315 315 315 314 314 314 314 313 313 314 314 312 310 310 310 309 309 309 309 309 308 308 308 308 307 307 305 304 304 303 302 304 303 304
310 312 313 313 312 313 313 313 314 314 314 314 314 313 313 313 313 312 311 310 310 309 309 309 309 309 309 309 308 308 307 307 306 306 305 304 303 301 301 300 300 301 302
308 309 311 313 313 312 312 312 312 312 312 311 311 311 310 310 310 310 309 309 309 309 309 309 309 309 308 307 307 307 306 306 305 304 304 303 301 300 301 300 300 300 300
307 308 309 312 313 312 312 312 311 311 310 310 310 310 309 309 309 309 308 308 308 309 309 309 309 308 307 307 306 306 305 304 304 303 302 301 299 299 300 300 299 299 299
308 310 310 312 312 312 312 311 311 310 310 309 309 309 309 309 308 308 308 309 309 309 309 309 308 307 306 305 305 304 303 301 300 299 300 299 298 299 298 299 298 298 297
309 311 311 311 312 312 312 311 311 310 310 309 309 308 308 308 308 308 308 308 308 308 308 307 307 306 306 305 304 302 300 299 299 299 298 298 298 298 298 297 296 295 294
307 308 310 311 311 311 311 311 310 310 310 309 309 309 309 308 308 308 308 308 308 308 307 307 307 306 306 305 304 302 302 300 300 299 297 297 297 296 296 294 292 289 288
307 306 306 309 310 310 310 310 310 310 309 309 309 308 308 308 308 308 308 307 307 306 305 305 305 305 305 304 303 302 301 300 300 299 298 296 295 291 290 289 288 288 287
306 306 306 306 307 307 307 308 308 308 308 308 308 307 307 306 306 306 306 306 306 305 305 305 305 305 304 302 303 302 300 299 298 297 297 296 293 289 287 288 287 287 287
304 303 303 303 303 304 304 305 305 306 306 305 305 305 306 306 306 306 305 305 304 303 304 305 304 304 304 303 302 302 300 298 297 296 296 296 293 289 287 287 286 286 286

GFSMW_850_thetae_111.txt.gz
Theta_e
327 331 332 335 334 334 334 331 329 338 337 335 336 334 330 322 326 323 320 320 323 325 326 325 324 327 328 329 331 331 331 330 328 327 326 326 326 326 327 326 326 326 326
322 331 332 334 334 332 332 329 333 338 338 337 336 334 334 327 327 323 325 327 327 326 325 326 327 328 328 329 330 331 331 330 328 327 327 328 328 328 327 327 327 327 327
321 329 332 332 332 334 331 332 337 339 338 336 336 336 336 335 332 331 332 333 332 332 331 330 328 327 328 329 330 330 330 329 328 328 329 329 327 327 328 328 327 326 328
321 326 332 333 332 329 332 336 337 338 336 337 335 336 336 335 333 333 333 334 333 332 333 331 329 329 329 329 330 330 329 328 326 326 327 328 327 327 327 327 327 327 327
320 324 330 332 332 331 330 334 334 329 331 336 335 335 334 332 333 334 333 332 331 330 332 332 332 332 332 326 326 330 326 326 326 327 327 326 325 325 326 327 326 325 325
319 319 324 330 331 331 331 331 333 328 326 327 334 334 332 329 331 332 330 328 327 330 331 331 333 332 330 327 325 327 330 329 328 328 327 327 326 326 325 325 323 323 323
318 317 320 325 327 331 331 330 330 330 329 329 327 327 328 328 328 331 327 327 327 329 329 331 330 330 329 329 328 328 328 327 328 327 326 325 324 324 324 322 323 322 322
318 316 315 318 324 330 330 330 329 330 328 327 327 332 330 327 328 329 328 331 330 330 330 331 331 329 326 325 325 324 323 325 325 325 324 322 321 322 322 322 321 321 322
317 316 316 316 320 327 327 325 326 328 328 328 328 327 326 325 327 329 330 331 330 330 329 328 325 323 324 323 321 321 321 322 322 319 319 320 320 317 317 318 320 320 321
318 317 315 316 318 320 327 328 327 327 327 328 327 328 328 328 329 329 328 328 327 326 325 323 321 321 320 320 321 322 322 322 322 321 319 312 311 311 311 311 311 312 316
315 317 316 316 317 322 325 327 325 326 325 326 326 325 326 326 327 328 328 326 326 325 323 321 321 320 320 320 318 317 315 313 311 311 311 311 311 311 311 311 312 312 313
314 315 316 315 317 320 324 326 325 325 323 324 324 324 324 326 327 328 327 326 325 324 321 321 321 321 317 314 313 313 312 311 311 311 310 310 310 310 310 310 310 310 314
314 314 315 318 315 317 322 325 325 324 324 324 324 324 323 326 327 328 327 325 324 322 321 321 322 317 313 313 313 312 311 310 310 310 311 310 310 309 309 309 309 309 310
312 314 314 313 315 315 318 324 324 323 324 324 323 322 323 326 327 326 323 322 322 322 321 322 316 313 313 313 311 311 310 310 310 310 309 309 309 309 309 308 308 308 309
312 313 314 316 315 316 318 322 323 323 322 322 323 321 323 324 324 324 324 323 322 320 319 314 313 313 312 311 311 310 310 310 309 309 309 309 309 308 308 307 307 307 308
312 312 313 314 316 317 317 318 319 318 318 318 318 319 319 319 319 319 318 318 317 315 313 313 311 310 310 310 310 310 310 309 309 309 309 308 307 306 305 305 305 304 304
310 311 312 312 314 315 316 316 317 316 316 316 315 315 315 315 315 314 314 313 312 312 312 310 309 310 310 310 310 310 309 309 308 308 308 307 306 305 304 303 301 301 302
308 309 311 312 312 313 314 314 314 314 314 314 314 314 314 314 313 312 312 312 312 310 309 309 310 309 310 310 309 309 308 307 307 307 306 306 305 303 303 303 301 300 299
307 308 309 311 312 312 312 312 312 313 313 313 313 313 313 313 313 313 312 310 309 309 309 309 309 309 309 309 308 307 307 307 306 305 305 304 304 303 303 301 300 300 300
307 308 309 310 313 312 312 312 311 311 311 310 310 310 310 310 309 309 309 308 308 308 308 309 309 309 308 307 307 306 306 305 304 303 303 302 301 298 299 299 300 299 299
308 310 310 310 312 312 312 311 311 310 310 309 309 309 308 308 308 308 308 308 308 308 308 308 309 308 307 306 306 305 305 304 302 301 300 299 299 298 298 299 299 299 299
308 310 310 311 311 311 311 311 310 310 310 310 310 309 309 308 308 308 307 307 307 307 308 308 308 306 306 306 305 305 304 303 302 301 299 298 297 297 297 298 298 297 296
307 308 309 310 311 311 311 310 310 310 309 309 309 308 308 308 308 307 307 308 308 308 307 307 306 305 305 305 305 305 304 303 303 302 301 299 298 297 296 295 294 292 291
307 307 306 307 309 309 309 309 309 309 309 309 308 308 308 308 308 308 307 307 306 306 306 306 305 305 305 304 304 304 303 302 302 301 300 299 298 296 293 290 290 289 288
305 305 305 306 306 305 306 307 308 308 307 307 307 307 306 306 306 306 306 306 306 306 305 304 304 305 305 305 304 304 303 302 301 300 298 296 295 295 293 289 287 288 287
303 302 302 302 302 303 303 303 304 304 305 304 305 305 305 304 306 306 305 305 304 304 303 303 304 303 304 304 303 303 303 302 299 298 296 295 294 294 292 289 287 287 286

GFSMW_850_thetae_114.txt.gz
Theta_e
315 318 327 326 329 329 333 337 338 337 337 334 334 333 332 331 333 331 329 324 322 322 323 325 328 329 329 329 330 331 331 330 329 327 328 325 325 326 326 326 326 326 326
315 317 325 330 323 332 333 331 336 338 336 336 335 335 335 332 327 328 328 327 327 328 327 327 327 327 328 330 330 331 331 330 328 328 329 330 330 328 327 327 327 327 327
316 317 323 331 326 331 333 335 336 335 337 337 334 335 335 331 324 324 323 323 321 323 326 327 328 327 328 329 329 330 331 330 328 328 329 330 330 329 327 327 328 326 327
316 318 321 332 331 332 335 336 337 339 337 337 336 334 335 332 322 325 322 322 326 327 327 327 328 328 328 329 329 330 330 329 328 328 326 327 328 330 328 327 326 326 327
316 318 320 331 329 332 332 335 335 335 339 334 336 335 336 333 330 328 326 330 331 331 330 329 329 329 329 329 329 328 325 325 327 327 327 327 327 326 326 326 327 326 323
317 318 324 334 331 331 326 330 333 336 335 336 335 335 335 335 334 331 331 333 332 331 331 331 331 330 330 329 327 326 324 325 327 327 328 328 327 325 324 325 325 324 323
318 317 322 330 332 330 327 326 327 327 327 331 333 333 334 332 330 331 330 332 332 330 328 328 330 331 330 325 328 327 327 329 329 328 328 327 325 324 323 324 324 323 323
316 315 321 328 330 330 330 328 328 327 326 326 327 328 329 330 330 329 329 329 330 327 327 327 329 327 329 329 329 328 328 327 327 327 326 326 324 322 322 325 323 323 322
314 314 318 326 328 331 331 331 330 329 329 328 328 327 327 327 328 326 326 325 328 327 327 325 327 330 330 328 325 325 323 324 324 324 324 321 319 321 317 316 318 320 319
313 314 317 319 328 328 328 325 328 330 329 329 328 324 324 326 326 327 324 326 323 324 326 329 329 328 325 324 322 320 321 322 322 321 320 321 315 311 311 311 311 312 314
314 313 314 320 321 327 326 325 327 328 328 327 326 326 325 325 324 325 328 324 327 327 328 329 324 322 321 320 320 321 321 321 320 316 312 311 311 311 311 311 311 311 312
315 314 314 315 324 325 326 326 326 326 326 326 327 327 326 327 327 327 327 327 327 326 325 322 321 320 320 320 318 316 313 312 311 311 311 310 310 311 311 310 310 310 310
315 315 315 316 316 325 327 325 326 325 326 325 326 326 326 326 326 327 327 326 325 324 323 321 320 320 320 316 313 312 312 311 311 310 311 311 311 310 310 310 309 309 309
313 315 315 316 316 317 324 325 325 324 324 324 324 323 322 324 325 327 326 325 325 324 321 321 320 321 314 313 313 312 311 311 311 311 311 310 310 310 309 309 309 308 308
310 313 314 314 315 315 320 324 324 323 323 323 323 323 322 323 324 326 326 324 323 322 321 321 320 314 313 313 312 311 310 310 310 310 310 310 310 309 309 308 307 306 306
308 310 312 314 315 316 317 319 321 322 323 323 323 322 323 324 325 324 323 322 322 321 320 318 314 313 313 312 310 310 310 310 309 309 310 310 309 308 307 306 306 304 304
307 309 311 312 314 315 315 316 316 317 319 321 322 323 323 323 323 323 322 321 320 318 315 312 312 312 310 309 309 309 310 309 309 309 309 308 307 306 305 305 304 303 303
307 308 309 312 312 313 314 315 315 315 314 315 316 316 317 317 316 316 316 315 313 312 312 311 310 309 309 309 309 309 309 308 308 308 308 306 306 305 305 304 303 303 301
307 308 309 310 312 312 312 313 314 314 314 314 313 313 313 313 313 312 312 311 311 311 310 309 309 309 310 309 309 307 307 307 307 307 306 305 304 304 304 304 302 301 301
309 309 309 310 311 312 312 312 312 311 312 312 313 313 312 311 311 311 311 311 309 308 308 308 309 309 309 308 307 306 306 306 306 305 304 303 302 301 301 299 299 299 299
309 310 310 310 311 311 311 311 310 310 310 310 310 310 310 310 309 309 308 308 307 307 307 307 308 308 307 307 306 306 305 305 304 303 302 300 299 299 298 298 299 298 299
308 310 310 309 310 310 310 310 309 309 309 309 309 309 309 309 308 308 307 307 307 307 308 308 308 308 307 306 306 306 305 305 304 303 302 301 300 299 298 297 297 298 298
306 307 308 309 309 309 309 309 309 308 308 308 307 307 307 307 307 307 307 307 307 307 307 307 307 307 306 305 304 304 304 303 303 303 302 301 301 300 298 296 295 295 294
306 305 305 306 308 309 309 309 309 308 308 307 307 306 306 306 305 305 305 305 305 306 306 306 306 305 305 304 305 305 304 303 302 302 301 301 299 297 296 295 292 290 290
304 304 303 304 304 305 305 305 306 307 307 307 308 307 307 306 305 305 304 304 304 304 305 305 305 304 304 304 305 304 303 303 302 301 301 300 298 296 295 295 292 289 288
303 303 302 302 302 302 302 302 302 302 302 304 305 305 305 305 305 304 304 304 305 304 304 304 304 304 305 304 304 303 303 303 301 301 299 297 296 295 294 294 293 289 288

GFSMW_850_thetae_117.txt.gz
Theta_e
316 317 317 318 321 326 325 333 333 336 334 333 336 331 329 327 326 325 326 326 327 326 325 326 328 326 326 329 327 327 327 329 328 328 328 329 330 329 327 326 326 327 325
317 317 318 319 326 326 324 329 328 336 335 333 334 335 332 331 327 323 324 320 324 322 322 328 329 329 331 332 330 330 330 330 328 329 331 331 331 330 328 327 326 327 327
317 317 318 319 328 326 325 326 331 337 336 335 337 336 335 334 332 331 330 328 328 326 323 332 331 330 329 331 329 329 329 330 332 330 331 330 331 331 330 327 327 328 326
317 317 317 319 329 326 326 328 327 336 336 336 334 334 334 333 332 332 332 332 330 330 329 330 326 326 325 328 328 328 329 330 333 330 328 328 326 329 329 328 327 326 326
317 318 319 321 330 325 326 327 330 332 336 336 335 335 335 333 330 328 328 326 325 323 323 325 327 327 328 328 329 329 330 330 330 327 328 327 327 327 327 327 325 327 325
319 318 319 322 330 325 325 330 330 332 334 333 334 335 336 335 331 328 331 327 324 322 327 328 327 328 328 328 329 329 327 326 329 326 328 327 329 328 325 324 325 325 324
318 319 321 326 332 327 324 327 329 335 331 327 334 335 335 335 334 326 326 326 326 328 329 329 329 329 330 330 329 325 323 327 326 325 328 328 328 327 326 326 325 325 324
314 315 322 331 330 329 325 324 323 326 330 331 330 333 334 334 334 332 329 330 332 332 331 329 329 329 327 325 324 324 326 327 328 329 329 327 327 326 323 321 321 323 323
313 317 321 329 330 329 328 327 326 326 326 326 325 326 329 329 329 330 329 328 329 329 327 327 327 326 323 323 325 327 328 330 328 326 326 326 325 323 320 321 318 321 319
313 319 325 330 331 329 329 327 327 326 325 326 325 326 325 323 324 324 325 328 327 328 328 327 327 325 323 323 326 329 326 325 323 323 323 323 320 320 317 311 311 312 313
313 315 324 330 330 330 330 329 329 330 329 329 328 325 324 325 324 324 324 328 327 326 325 323 324 324 323 325 327 325 321 321 321 322 321 321 317 311 311 311 311 311 312
313 314 321 327 328 325 325 326 328 328 328 327 328 327 326 325 324 327 325 324 324 324 322 322 324 325 326 325 325 321 321 321 320 318 315 312 311 311 310 310 310 310 310
313 313 314 322 325 325 325 325 326 325 325 325 325 325 324 326 324 323 324 324 324 323 324 326 326 326 324 324 321 320 318 315 313 313 312 311 310 310 310 310 310 309 309
313 313 313 315 323 325 325 326 325 324 324 324 326 326 325 325 325 324 325 326 326 326 327 326 324 323 322 320 320 316 313 313 312 311 311 310 310 310 310 309 309 310 309
310 315 314 313 315 320 324 325 324 324 324 323 324 324 325 325 325 326 326 326 326 326 325 322 321 320 320 320 315 313 312 312 310 310 310 310 310 309 309 309 309 309 308
309 310 312 315 314 316 319 322 323 323 323 324 324 323 324 325 324 325 325 325 325 324 323 321 320 320 321 315 312 312 311 310 310 310 310 310 310 310 310 308 308 307 305
308 309 310 311 313 314 316 318 321 323 323 323 324 324 323 323 324 325 324 324 323 322 321 321 321 319 315 312 311 310 309 310 310 310 310 310 309 308 308 307 306 306 305
308 309 309 310 311 312 313 314 315 318 321 321 322 322 322 322 323 323 322 322 321 321 320 319 316 313 311 310 309 309 309 309 309 309 308 308 307 307 305 305 304 304 303
308 308 308 310 311 312 312 313 313 314 314 315 317 319 321 321 321 321 321 320 319 317 314 312 311 310 309 309 309 309 309 308 307 307 306 306 305 304 304 304 303 303 303
307 308 308 309 310 311 311 311 311 312 312 312 312 313 313 313 314 314 314 313 312 311 310 310 309 308 308 309 309 308 307 307 306 305 304 304 304 303 302 301 301 301 301
309 307 309 310 310 310 309 309 309 310 310 310 311 311 311 311 311 311 310 310 310 310 309 308 308 308 308 309 308 307 307 306 305 304 304 303 302 302 301 300 300 300 299
307 308 309 310 310 310 310 310 309 308 308 308 308 308 308 309 309 309 309 309 308 307 307 307 307 308 308 309 307 306 305 305 305 304 303 302 302 301 301 300 300 299 298
307 306 306 308 309 310 310 310 310 309 308 307 307 307 307 307 307 306 306 306 306 306 306 307 307 308 308 307 306 305 305 304 304 303 303 302 302 301 301 300 300 299 297
305 304 305 305 305 306 307 308 308 309 309 308 308 306 306 306 306 306 305 304 304 304 304 305 305 305 306 306 305 305 305 304 304 304 303 302 302 301 299 298 297 296 294
304 303 303 302 302 302 303 303 304 305 306 307 307 306 306 306 305 304 304 304 304 304 304 304 304 304 305 305 305 305 305 305 304 303 302 301 301 299 297 297 296 296 294
305 303 303 304 303 303 303 303 302 301 301 302 303 303 304 304 304 304 303 302 301 301 302 303 303 303 303 303 303 304 304 303 303 302 302 300 298 297 296 295 295 294 293

GFSMW_850_thetae_120.txt.gz
Theta_e
310 312 317 317 317 317 317 319 325 333 331 330 329 329 330 330 329 329 331 330 332 332 332 331 329 327 323 321 319 321 325 329 331 330 328 329 329 327 327 327 326 327 326
312 315 316 317 317 316 317 322 325 331 329 331 329 328 328 329 328 328 331 332 332 331 328 328 327 323 322 320 322 324 326 328 329 329 331 331 331 331 329 327 326 326 327
316 317 317 317 317 316 317 323 325 331 334 331 330 328 327 327 328 329 329 331 330 327 327 326 323 322 323 323 325 328 329 329 332 331 330 330 330 331 330 329 328 327 327
316 316 317 318 318 319 321 325 326 327 334 332 330 328 327 327 326 327 326 327 327 326 326 325 325 321 325 326 328 330 330 331 334 333 329 328 327 326 329 328 327 326 325
316 316 317 317 319 324 326 323 328 330 330 328 332 332 331 330 326 325 326 325 327 326 324 326 322 323 327 327 329 328 328 329 331 331 328 327 327 326 328 327 327 324 325
318 318 317 318 323 327 325 325 323 323 328 333 333 331 333 332 331 330 329 330 328 329 329 327 326 327 327 327 327 328 329 330 328 328 328 326 327 328 328 326 325 324 324
318 318 319 318 326 327 326 326 325 326 326 328 334 331 333 328 330 331 331 331 330 330 330 328 326 327 327 327 328 329 327 323 322 326 326 326 327 328 327 325 324 323 323
315 318 319 320 328 325 329 328 328 327 329 328 330 332 331 331 330 330 331 330 328 326 323 324 327 328 328 329 329 326 325 324 323 326 326 329 329 329 327 325 321 321 320
315 317 321 324 329 326 325 325 324 327 324 328 328 331 332 331 333 331 329 329 326 323 325 328 329 329 329 328 325 325 323 323 322 327 327 329 326 326 326 322 319 320 317
318 322 321 330 329 325 325 325 323 324 322 326 327 326 328 328 329 330 331 330 329 328 330 330 328 329 326 324 324 323 322 322 327 326 327 325 326 325 321 320 315 311 312
314 323 327 330 329 325 323 325 326 325 325 326 325 326 325 324 325 327 328 329 328 329 328 327 327 326 324 324 324 323 322 328 327 325 323 322 322 321 318 312 311 311 311
314 319 329 329 329 328 328 327 327 328 328 326 325 325 321 322 323 324 325 324 325 327 328 327 326 325 325 323 323 323 322 324 324 322 322 321 320 313 312 311 311 310 310
314 317 322 325 327 328 328 327 327 326 326 328 326 324 323 323 325 325 324 324 324 325 327 327 326 325 324 324 323 323 327 325 321 321 320 316 312 311 311 310 310 310 309
312 314 315 320 324 325 325 326 323 323 325 325 326 326 325 325 325 325 325 327 326 325 325 325 325 324 323 323 324 325 325 321 320 317 314 313 311 311 311 310 310 309 309
310 312 313 315 319 323 325 325 325 324 323 324 326 325 325 324 325 323 323 324 324 324 324 322 322 323 324 326 325 325 321 320 317 312 312 311 310 310 310 309 309 309 309
309 311 311 313 314 318 322 323 324 324 324 324 325 325 325 324 325 324 324 324 324 323 324 325 326 324 323 324 323 320 320 314 312 311 311 310 310 310 309 309 309 308 308
308 310 310 311 312 312 315 322 323 322 323 323 323 322 324 323 324 323 323 325 324 324 324 324 323 323 322 320 320 318 312 312 311 310 310 310 310 310 310 309 308 308 306
308 310 310 311 312 312 312 313 317 320 320 320 320 320 322 322 322 323 322 321 322 323 322 321 320 320 320 319 315 311 310 310 310 310 310 310 309 309 308 307 306 305 305
308 309 310 310 311 311 311 312 312 313 314 317 319 319 319 320 320 321 321 320 320 320 320 319 319 320 318 314 311 310 310 309 309 309 309 307 307 306 306 305 305 304 303
309 309 310 311 311 310 311 311 311 312 312 312 312 313 315 317 318 318 317 318 318 318 317 317 316 314 311 310 309 309 309 309 309 308 307 306 305 304 304 304 303 302 301
309 309 310 311 311 310 311 311 310 310 310 310 310 311 311 311 311 312 312 312 312 312 311 311 310 310 309 308 308 308 309 308 307 306 305 304 304 303 303 302 301 301 300
307 309 310 310 310 310 310 310 310 309 309 309 309 309 309 309 310 310 309 309 309 309 308 308 308 307 307 307 308 308 307 307 306 305 305 304 304 303 302 301 300 300 299
305 306 307 308 309 309 309 309 309 309 308 309 309 308 308 308 307 307 307 307 307 307 306 306 306 306 306 306 307 307 306 305 305 304 304 303 303 302 301 301 300 300 299
303 302 303 304 305 306 307 308 309 309 309 308 308 307 306 307 307 306 306 305 305 305 304 304 304 304 305 305 305 306 305 304 304 304 304 303 303 302 301 301 299 298 297
304 303 303 303 302 302 303 303 303 304 305 305 305 306 306 307 307 307 306 304 304 304 304 303 303 303 304 304 304 304 303 304 304 303 303 303 302 301 301 300 298 297 296
304 304 304 304 303 303 303 302 302 302 302 302 302 302 303 304 304 305 305 305 304 303 302 301 301 301 301 301 302 302 302 301 301 301 303 302 302 302 300 298 297 296 295